<?xml version="1.0" encoding="UTF-8" standalone="no" ?><gpx xmlns="http://www.topografix.com/GPX/1/1" xmlns:gpxx="http://www.garmin.com/xmlschemas/GpxExtensions/v3" xmlns:wptx1="http://www.garmin.com/xmlschemas/WaypointExtension/v1" xmlns:gpxtpx="http://www.garmin.com/xmlschemas/TrackPointExtension/v1" creator="GuideVTT.com" version="1.1" xmlns:xsi="http://www.w3.org/2001/XMLSchema-instance" xsi:schemaLocation="http://www.topografix.com/GPX/1/1 http://www.topografix.com/GPX/1/1/gpx.xsd http://www.garmin.com/xmlschemas/GpxExtensions/v3 http://www8.garmin.com/xmlschemas/GpxExtensionsv3.xsd http://www.garmin.com/xmlschemas/WaypointExtension/v1 http://www8.garmin.com/xmlschemas/WaypointExtensionv1.xsd http://www.garmin.com/xmlschemas/TrackPointExtension/v1 http://www.garmin.com/xmlschemas/TrackPointExtensionv1.xsd">
<metadata><link href="http://www.garmin.com"><text>Garmin International</text></link><time>2013-06-22T15:13:50Z</time></metadata>
<trk><name>bulle-saint_saturnin_etape4.gpx</name><extensions><gpxx:TrackExtension><gpxx:DisplayColor>Cyan</gpxx:DisplayColor></gpxx:TrackExtension></extensions><trkseg>
<trkpt lat="44.81970000" lon="5.94614400"><ele>955.119995</ele><time>2010-06-02T07:24:02Z</time></trkpt>
<trkpt lat="44.81964800" lon="5.94620700"><ele>956.039001</ele><time>2010-06-02T07:24:11Z</time></trkpt>
<trkpt lat="44.81961700" lon="5.94617500"><ele>956.327026</ele><time>2010-06-02T07:24:13Z</time></trkpt>
<trkpt lat="44.81958500" lon="5.94613800"><ele>956.536011</ele><time>2010-06-02T07:24:15Z</time></trkpt>
<trkpt lat="44.81950500" lon="5.94606800"><ele>956.807007</ele><time>2010-06-02T07:24:19Z</time></trkpt>
<trkpt lat="44.81930400" lon="5.94594800"><ele>957.153992</ele><time>2010-06-02T07:24:26Z</time></trkpt>
<trkpt lat="44.81912800" lon="5.94580800"><ele>957.093018</ele><time>2010-06-02T07:24:32Z</time></trkpt>
<trkpt lat="44.81903200" lon="5.94558900"><ele>956.817993</ele><time>2010-06-02T07:24:38Z</time></trkpt>
<trkpt lat="44.81902200" lon="5.94525700"><ele>956.340027</ele><time>2010-06-02T07:24:45Z</time></trkpt>
<trkpt lat="44.81901800" lon="5.94481400"><ele>956.684021</ele><time>2010-06-02T07:24:53Z</time></trkpt>
<trkpt lat="44.81901200" lon="5.94441800"><ele>955.267029</ele><time>2010-06-02T07:25:00Z</time></trkpt>
<trkpt lat="44.81900500" lon="5.94410200"><ele>955.570007</ele><time>2010-06-02T07:25:06Z</time></trkpt>
<trkpt lat="44.81899400" lon="5.94369800"><ele>954.919983</ele><time>2010-06-02T07:25:14Z</time></trkpt>
<trkpt lat="44.81898800" lon="5.94338500"><ele>954.979004</ele><time>2010-06-02T07:25:20Z</time></trkpt>
<trkpt lat="44.81897300" lon="5.94297500"><ele>954.294983</ele><time>2010-06-02T07:25:28Z</time></trkpt>
<trkpt lat="44.81895800" lon="5.94254300"><ele>953.997009</ele><time>2010-06-02T07:25:36Z</time></trkpt>
<trkpt lat="44.81897600" lon="5.94231600"><ele>953.744019</ele><time>2010-06-02T07:25:40Z</time></trkpt>
<trkpt lat="44.81903600" lon="5.94203300"><ele>953.583008</ele><time>2010-06-02T07:25:45Z</time></trkpt>
<trkpt lat="44.81917000" lon="5.94165000"><ele>952.682983</ele><time>2010-06-02T07:25:52Z</time></trkpt>
<trkpt lat="44.81921600" lon="5.94140700"><ele>952.531006</ele><time>2010-06-02T07:25:56Z</time></trkpt>
<trkpt lat="44.81922900" lon="5.94127800"><ele>952.651001</ele><time>2010-06-02T07:25:58Z</time></trkpt>
<trkpt lat="44.81922100" lon="5.94100100"><ele>952.47699</ele><time>2010-06-02T07:26:02Z</time></trkpt>
<trkpt lat="44.81914300" lon="5.94053200"><ele>951.487976</ele><time>2010-06-02T07:26:09Z</time></trkpt>
<trkpt lat="44.81904200" lon="5.93996500"><ele>950.695984</ele><time>2010-06-02T07:26:17Z</time></trkpt>
<trkpt lat="44.81896400" lon="5.93951800"><ele>949.664978</ele><time>2010-06-02T07:26:23Z</time></trkpt>
<trkpt lat="44.81897400" lon="5.93893900"><ele>946.958008</ele><time>2010-06-02T07:26:29Z</time></trkpt>
<trkpt lat="44.81898500" lon="5.93882500"><ele>946.661987</ele><time>2010-06-02T07:26:30Z</time></trkpt>
<trkpt lat="44.81900900" lon="5.93832300"><ele>944.580994</ele><time>2010-06-02T07:26:34Z</time></trkpt>
<trkpt lat="44.81893600" lon="5.93764000"><ele>941.260986</ele><time>2010-06-02T07:26:39Z</time></trkpt>
<trkpt lat="44.81891000" lon="5.93738600"><ele>940.012024</ele><time>2010-06-02T07:26:41Z</time></trkpt>
<trkpt lat="44.81891000" lon="5.93712700"><ele>939.202026</ele><time>2010-06-02T07:26:43Z</time></trkpt>
<trkpt lat="44.81901000" lon="5.93660000"><ele>935.445007</ele><time>2010-06-02T07:26:47Z</time></trkpt>
<trkpt lat="44.81932400" lon="5.93577700"><ele>930.044983</ele><time>2010-06-02T07:26:54Z</time></trkpt>
<trkpt lat="44.81954000" lon="5.93541600"><ele>927.05603</ele><time>2010-06-02T07:26:58Z</time></trkpt>
<trkpt lat="44.81964000" lon="5.93522000"><ele>926.031982</ele><time>2010-06-02T07:27:00Z</time></trkpt>
<trkpt lat="44.81976400" lon="5.93450700"><ele>922.903992</ele><time>2010-06-02T07:27:06Z</time></trkpt>
<trkpt lat="44.81975800" lon="5.93438200"><ele>922.903992</ele><time>2010-06-02T07:27:07Z</time></trkpt>
<trkpt lat="44.81973500" lon="5.93413100"><ele>921.684021</ele><time>2010-06-02T07:27:09Z</time></trkpt>
<trkpt lat="44.81968800" lon="5.93374400"><ele>920.304993</ele><time>2010-06-02T07:27:12Z</time></trkpt>
<trkpt lat="44.81965500" lon="5.93349000"><ele>918.960999</ele><time>2010-06-02T07:27:14Z</time></trkpt>
<trkpt lat="44.81956100" lon="5.93268600"><ele>914.14502</ele><time>2010-06-02T07:27:21Z</time></trkpt>
<trkpt lat="44.81957400" lon="5.93226900"><ele>909.708984</ele><time>2010-06-02T07:27:27Z</time></trkpt>
<trkpt lat="44.81949700" lon="5.93206900"><ele>908.452026</ele><time>2010-06-02T07:27:31Z</time></trkpt>
<trkpt lat="44.81936900" lon="5.93215000"><ele>907.526001</ele><time>2010-06-02T07:27:34Z</time></trkpt>
<trkpt lat="44.81932300" lon="5.93231700"><ele>907.526001</ele><time>2010-06-02T07:27:36Z</time></trkpt>
<trkpt lat="44.81926900" lon="5.93262100"><ele>906.416016</ele><time>2010-06-02T07:27:39Z</time></trkpt>
<trkpt lat="44.81897200" lon="5.93312700"><ele>903.979004</ele><time>2010-06-02T07:27:45Z</time></trkpt>
<trkpt lat="44.81883500" lon="5.93314600"><ele>902.502014</ele><time>2010-06-02T07:27:47Z</time></trkpt>
<trkpt lat="44.81866200" lon="5.93304700"><ele>901.052002</ele><time>2010-06-02T07:27:50Z</time></trkpt>
<trkpt lat="44.81852500" lon="5.93270800"><ele>899.348999</ele><time>2010-06-02T07:27:54Z</time></trkpt>
<trkpt lat="44.81848100" lon="5.93249600"><ele>895.190002</ele><time>2010-06-02T07:27:56Z</time></trkpt>
<trkpt lat="44.81849700" lon="5.93207900"><ele>892.30603</ele><time>2010-06-02T07:28:00Z</time></trkpt>
<trkpt lat="44.81857500" lon="5.93175800"><ele>890.731995</ele><time>2010-06-02T07:28:03Z</time></trkpt>
<trkpt lat="44.81859000" lon="5.93116100"><ele>888.343994</ele><time>2010-06-02T07:28:08Z</time></trkpt>
<trkpt lat="44.81850300" lon="5.93058300"><ele>885.330994</ele><time>2010-06-02T07:28:13Z</time></trkpt>
<trkpt lat="44.81850000" lon="5.93008300"><ele>883.120972</ele><time>2010-06-02T07:28:17Z</time></trkpt>
<trkpt lat="44.81854300" lon="5.92941700"><ele>878.848022</ele><time>2010-06-02T07:28:22Z</time></trkpt>
<trkpt lat="44.81851400" lon="5.92860300"><ele>874.702026</ele><time>2010-06-02T07:28:28Z</time></trkpt>
<trkpt lat="44.81846200" lon="5.92796800"><ele>871.226013</ele><time>2010-06-02T07:28:33Z</time></trkpt>
<trkpt lat="44.81845600" lon="5.92757400"><ele>868.742981</ele><time>2010-06-02T07:28:36Z</time></trkpt>
<trkpt lat="44.81852900" lon="5.92709000"><ele>864.820984</ele><time>2010-06-02T07:28:40Z</time></trkpt>
<trkpt lat="44.81853500" lon="5.92664800"><ele>861.791992</ele><time>2010-06-02T07:28:44Z</time></trkpt>
<trkpt lat="44.81840900" lon="5.92637600"><ele>859.455017</ele><time>2010-06-02T07:28:47Z</time></trkpt>
<trkpt lat="44.81824400" lon="5.92612100"><ele>858.078003</ele><time>2010-06-02T07:28:50Z</time></trkpt>
<trkpt lat="44.81816300" lon="5.92578100"><ele>856.551025</ele><time>2010-06-02T07:28:53Z</time></trkpt>
<trkpt lat="44.81815900" lon="5.92565200"><ele>856.177979</ele><time>2010-06-02T07:28:54Z</time></trkpt>
<trkpt lat="44.81820500" lon="5.92481600"><ele>851.645996</ele><time>2010-06-02T07:29:00Z</time></trkpt>
<trkpt lat="44.81821900" lon="5.92397100"><ele>846.320007</ele><time>2010-06-02T07:29:06Z</time></trkpt>
<trkpt lat="44.81821400" lon="5.92355100"><ele>843.846008</ele><time>2010-06-02T07:29:09Z</time></trkpt>
<trkpt lat="44.81816400" lon="5.92274100"><ele>839.286987</ele><time>2010-06-02T07:29:15Z</time></trkpt>
<trkpt lat="44.81821700" lon="5.92189100"><ele>834.234985</ele><time>2010-06-02T07:29:21Z</time></trkpt>
<trkpt lat="44.81829900" lon="5.92119300"><ele>829.882019</ele><time>2010-06-02T07:29:26Z</time></trkpt>
<trkpt lat="44.81825700" lon="5.92065700"><ele>827.132019</ele><time>2010-06-02T07:29:30Z</time></trkpt>
<trkpt lat="44.81819000" lon="5.92008900"><ele>823.500977</ele><time>2010-06-02T07:29:34Z</time></trkpt>
<trkpt lat="44.81817900" lon="5.91949400"><ele>819.651001</ele><time>2010-06-02T07:29:38Z</time></trkpt>
<trkpt lat="44.81804300" lon="5.91880100"><ele>814.973999</ele><time>2010-06-02T07:29:43Z</time></trkpt>
<trkpt lat="44.81795800" lon="5.91842800"><ele>812.796021</ele><time>2010-06-02T07:29:46Z</time></trkpt>
<trkpt lat="44.81778800" lon="5.91807500"><ele>810.392029</ele><time>2010-06-02T07:29:50Z</time></trkpt>
<trkpt lat="44.81729900" lon="5.91769400"><ele>806.130981</ele><time>2010-06-02T07:29:57Z</time></trkpt>
<trkpt lat="44.81708000" lon="5.91749100"><ele>803.257996</ele><time>2010-06-02T07:30:01Z</time></trkpt>
<trkpt lat="44.81699400" lon="5.91722300"><ele>800.646973</ele><time>2010-06-02T07:30:05Z</time></trkpt>
<trkpt lat="44.81711500" lon="5.91700900"><ele>799.221008</ele><time>2010-06-02T07:30:08Z</time></trkpt>
<trkpt lat="44.81717500" lon="5.91695200"><ele>798.658997</ele><time>2010-06-02T07:30:09Z</time></trkpt>
<trkpt lat="44.81764800" lon="5.91659700"><ele>795.640991</ele><time>2010-06-02T07:30:16Z</time></trkpt>
<trkpt lat="44.81799200" lon="5.91626600"><ele>795.242981</ele><time>2010-06-02T07:30:22Z</time></trkpt>
<trkpt lat="44.81826300" lon="5.91595400"><ele>793.788025</ele><time>2010-06-02T07:30:28Z</time></trkpt>
<trkpt lat="44.81853300" lon="5.91582100"><ele>794.591003</ele><time>2010-06-02T07:30:33Z</time></trkpt>
<trkpt lat="44.81910400" lon="5.91573300"><ele>794.551025</ele><time>2010-06-02T07:30:43Z</time></trkpt>
<trkpt lat="44.81933900" lon="5.91553900"><ele>794.59198</ele><time>2010-06-02T07:30:48Z</time></trkpt>
<trkpt lat="44.81940000" lon="5.91530600"><ele>794.630981</ele><time>2010-06-02T07:30:51Z</time></trkpt>
<trkpt lat="44.81936300" lon="5.91507600"><ele>794.705017</ele><time>2010-06-02T07:30:54Z</time></trkpt>
<trkpt lat="44.81933200" lon="5.91501000"><ele>794.661987</ele><time>2010-06-02T07:30:55Z</time></trkpt>
<trkpt lat="44.81910700" lon="5.91461900"><ele>794.695984</ele><time>2010-06-02T07:31:02Z</time></trkpt>
<trkpt lat="44.81894300" lon="5.91447500"><ele>794.557007</ele><time>2010-06-02T07:31:06Z</time></trkpt>
<trkpt lat="44.81866500" lon="5.91431100"><ele>794.406982</ele><time>2010-06-02T07:31:12Z</time></trkpt>
<trkpt lat="44.81854400" lon="5.91419000"><ele>794.27002</ele><time>2010-06-02T07:31:15Z</time></trkpt>
<trkpt lat="44.81843300" lon="5.91398700"><ele>794.033997</ele><time>2010-06-02T07:31:19Z</time></trkpt>
<trkpt lat="44.81822800" lon="5.91339300"><ele>794.616028</ele><time>2010-06-02T07:31:29Z</time></trkpt>
<trkpt lat="44.81809800" lon="5.91296600"><ele>794.669983</ele><time>2010-06-02T07:31:36Z</time></trkpt>
<trkpt lat="44.81807700" lon="5.91268700"><ele>794.710022</ele><time>2010-06-02T07:31:40Z</time></trkpt>
<trkpt lat="44.81814000" lon="5.91206800"><ele>795.195007</ele><time>2010-06-02T07:31:49Z</time></trkpt>
<trkpt lat="44.81819200" lon="5.91172900"><ele>796.560974</ele><time>2010-06-02T07:31:55Z</time></trkpt>
<trkpt lat="44.81828400" lon="5.91134600"><ele>797.372009</ele><time>2010-06-02T07:32:03Z</time></trkpt>
<trkpt lat="44.81836200" lon="5.91109700"><ele>798.127014</ele><time>2010-06-02T07:32:09Z</time></trkpt>
<trkpt lat="44.81836600" lon="5.91078800"><ele>800.200012</ele><time>2010-06-02T07:32:16Z</time></trkpt>
<trkpt lat="44.81831400" lon="5.91061700"><ele>801.047974</ele><time>2010-06-02T07:32:21Z</time></trkpt>
<trkpt lat="44.81825100" lon="5.91041900"><ele>802.262024</ele><time>2010-06-02T07:32:27Z</time></trkpt>
<trkpt lat="44.81820100" lon="5.91020000"><ele>802.921021</ele><time>2010-06-02T07:32:33Z</time></trkpt>
<trkpt lat="44.81817000" lon="5.90994600"><ele>803.934021</ele><time>2010-06-02T07:32:40Z</time></trkpt>
<trkpt lat="44.81818000" lon="5.90964000"><ele>805.161011</ele><time>2010-06-02T07:32:49Z</time></trkpt>
<trkpt lat="44.81821000" lon="5.90936300"><ele>806.414978</ele><time>2010-06-02T07:32:57Z</time></trkpt>
<trkpt lat="44.81824100" lon="5.90908400"><ele>807.348022</ele><time>2010-06-02T07:33:05Z</time></trkpt>
<trkpt lat="44.81827600" lon="5.90883700"><ele>807.530029</ele><time>2010-06-02T07:33:12Z</time></trkpt>
<trkpt lat="44.81830300" lon="5.90857300"><ele>808.570984</ele><time>2010-06-02T07:33:19Z</time></trkpt>
<trkpt lat="44.81830400" lon="5.90825000"><ele>810.869019</ele><time>2010-06-02T07:33:28Z</time></trkpt>
<trkpt lat="44.81823000" lon="5.90807600"><ele>811.747009</ele><time>2010-06-02T07:33:34Z</time></trkpt>
<trkpt lat="44.81818600" lon="5.90800100"><ele>813.015015</ele><time>2010-06-02T07:33:37Z</time></trkpt>
<trkpt lat="44.81807600" lon="5.90780400"><ele>814.518005</ele><time>2010-06-02T07:33:45Z</time></trkpt>
<trkpt lat="44.81793700" lon="5.90756100"><ele>814.703979</ele><time>2010-06-02T07:33:54Z</time></trkpt>
<trkpt lat="44.81782000" lon="5.90744600"><ele>815.934998</ele><time>2010-06-02T07:34:00Z</time></trkpt>
<trkpt lat="44.81768300" lon="5.90741800"><ele>817.419006</ele><time>2010-06-02T07:34:06Z</time></trkpt>
<trkpt lat="44.81751700" lon="5.90751900"><ele>817.234009</ele><time>2010-06-02T07:34:14Z</time></trkpt>
<trkpt lat="44.81734900" lon="5.90766500"><ele>823.515015</ele><time>2010-06-02T07:34:22Z</time></trkpt>
<trkpt lat="44.81732700" lon="5.90768100"><ele>823.34198</ele><time>2010-06-02T07:34:23Z</time></trkpt>
<trkpt lat="44.81719000" lon="5.90778800"><ele>821.40802</ele><time>2010-06-02T07:34:29Z</time></trkpt>
<trkpt lat="44.81697400" lon="5.90797500"><ele>821.184998</ele><time>2010-06-02T07:34:38Z</time></trkpt>
<trkpt lat="44.81679200" lon="5.90804700"><ele>820.692993</ele><time>2010-06-02T07:34:45Z</time></trkpt>
<trkpt lat="44.81668500" lon="5.90795600"><ele>820.499023</ele><time>2010-06-02T07:34:50Z</time></trkpt>
<trkpt lat="44.81659300" lon="5.90777800"><ele>821.916016</ele><time>2010-06-02T07:34:56Z</time></trkpt>
<trkpt lat="44.81658200" lon="5.90774700"><ele>822.203979</ele><time>2010-06-02T07:34:57Z</time></trkpt>
<trkpt lat="44.81647000" lon="5.90750800"><ele>824.440002</ele><time>2010-06-02T07:35:05Z</time></trkpt>
<trkpt lat="44.81635600" lon="5.90723400"><ele>824.299011</ele><time>2010-06-02T07:35:14Z</time></trkpt>
<trkpt lat="44.81624600" lon="5.90713400"><ele>827.517029</ele><time>2010-06-02T07:35:20Z</time></trkpt>
<trkpt lat="44.81620100" lon="5.90716000"><ele>828.422974</ele><time>2010-06-02T07:35:22Z</time></trkpt>
<trkpt lat="44.81616000" lon="5.90730700"><ele>828.35498</ele><time>2010-06-02T07:35:26Z</time></trkpt>
<trkpt lat="44.81616800" lon="5.90747500"><ele>828.27002</ele><time>2010-06-02T07:35:30Z</time></trkpt>
<trkpt lat="44.81617000" lon="5.90796200"><ele>829.534973</ele><time>2010-06-02T07:35:42Z</time></trkpt>
<trkpt lat="44.81615900" lon="5.90827900"><ele>830.47699</ele><time>2010-06-02T07:35:50Z</time></trkpt>
<trkpt lat="44.81614400" lon="5.90858800"><ele>832.437012</ele><time>2010-06-02T07:35:58Z</time></trkpt>
<trkpt lat="44.81615600" lon="5.90885900"><ele>836.335999</ele><time>2010-06-02T07:36:06Z</time></trkpt>
<trkpt lat="44.81615700" lon="5.90921700"><ele>837.838989</ele><time>2010-06-02T07:36:17Z</time></trkpt>
<trkpt lat="44.81615800" lon="5.90947700"><ele>839.008972</ele><time>2010-06-02T07:36:25Z</time></trkpt>
<trkpt lat="44.81613700" lon="5.90970000"><ele>840.692993</ele><time>2010-06-02T07:36:32Z</time></trkpt>
<trkpt lat="44.81607900" lon="5.90995800"><ele>842.757019</ele><time>2010-06-02T07:36:40Z</time></trkpt>
<trkpt lat="44.81601700" lon="5.91020100"><ele>844.463013</ele><time>2010-06-02T07:36:48Z</time></trkpt>
<trkpt lat="44.81591600" lon="5.91037600"><ele>846.226013</ele><time>2010-06-02T07:36:55Z</time></trkpt>
<trkpt lat="44.81577200" lon="5.91047800"><ele>846.354004</ele><time>2010-06-02T07:37:01Z</time></trkpt>
<trkpt lat="44.81558600" lon="5.91057800"><ele>847.934021</ele><time>2010-06-02T07:37:08Z</time></trkpt>
<trkpt lat="44.81542500" lon="5.91064600"><ele>848.955994</ele><time>2010-06-02T07:37:14Z</time></trkpt>
<trkpt lat="44.81526400" lon="5.91066600"><ele>850.445007</ele><time>2010-06-02T07:37:21Z</time></trkpt>
<trkpt lat="44.81507500" lon="5.91072600"><ele>851.679016</ele><time>2010-06-02T07:37:30Z</time></trkpt>
<trkpt lat="44.81490500" lon="5.91082100"><ele>852.697021</ele><time>2010-06-02T07:37:37Z</time></trkpt>
<trkpt lat="44.81470400" lon="5.91093500"><ele>854.200989</ele><time>2010-06-02T07:37:44Z</time></trkpt>
<trkpt lat="44.81455300" lon="5.91098600"><ele>855.43103</ele><time>2010-06-02T07:37:51Z</time></trkpt>
<trkpt lat="44.81449500" lon="5.91110900"><ele>856.249023</ele><time>2010-06-02T07:37:57Z</time></trkpt>
<trkpt lat="44.81450700" lon="5.91115900"><ele>857.116028</ele><time>2010-06-02T07:38:00Z</time></trkpt>
<trkpt lat="44.81461400" lon="5.91132500"><ele>858.228027</ele><time>2010-06-02T07:38:07Z</time></trkpt>
<trkpt lat="44.81467900" lon="5.91159500"><ele>859.827026</ele><time>2010-06-02T07:38:15Z</time></trkpt>
<trkpt lat="44.81461700" lon="5.91176900"><ele>860.929993</ele><time>2010-06-02T07:38:21Z</time></trkpt>
<trkpt lat="44.81446300" lon="5.91192200"><ele>862.27002</ele><time>2010-06-02T07:38:29Z</time></trkpt>
<trkpt lat="44.81432900" lon="5.91208400"><ele>862.945984</ele><time>2010-06-02T07:38:35Z</time></trkpt>
<trkpt lat="44.81423300" lon="5.91225700"><ele>864.41803</ele><time>2010-06-02T07:38:42Z</time></trkpt>
<trkpt lat="44.81410500" lon="5.91235700"><ele>865.916992</ele><time>2010-06-02T07:38:49Z</time></trkpt>
<trkpt lat="44.81396200" lon="5.91244800"><ele>867.075989</ele><time>2010-06-02T07:38:56Z</time></trkpt>
<trkpt lat="44.81389300" lon="5.91259900"><ele>867.96698</ele><time>2010-06-02T07:39:02Z</time></trkpt>
<trkpt lat="44.81381600" lon="5.91280200"><ele>869.374023</ele><time>2010-06-02T07:39:10Z</time></trkpt>
<trkpt lat="44.81370200" lon="5.91299600"><ele>870.619019</ele><time>2010-06-02T07:39:18Z</time></trkpt>
<trkpt lat="44.81359200" lon="5.91318600"><ele>871.999023</ele><time>2010-06-02T07:39:25Z</time></trkpt>
<trkpt lat="44.81346300" lon="5.91330100"><ele>873.096985</ele><time>2010-06-02T07:39:32Z</time></trkpt>
<trkpt lat="44.81331400" lon="5.91332700"><ele>875.059998</ele><time>2010-06-02T07:39:39Z</time></trkpt>
<trkpt lat="44.81314600" lon="5.91336500"><ele>876.119995</ele><time>2010-06-02T07:39:46Z</time></trkpt>
<trkpt lat="44.81300100" lon="5.91341400"><ele>877.452026</ele><time>2010-06-02T07:39:52Z</time></trkpt>
<trkpt lat="44.81276900" lon="5.91354100"><ele>879.622009</ele><time>2010-06-02T07:40:01Z</time></trkpt>
<trkpt lat="44.81263000" lon="5.91366100"><ele>880.679016</ele><time>2010-06-02T07:40:07Z</time></trkpt>
<trkpt lat="44.81245500" lon="5.91375800"><ele>882.301025</ele><time>2010-06-02T07:40:16Z</time></trkpt>
<trkpt lat="44.81230600" lon="5.91372900"><ele>883.413025</ele><time>2010-06-02T07:40:23Z</time></trkpt>
<trkpt lat="44.81210500" lon="5.91359000"><ele>885.671997</ele><time>2010-06-02T07:40:33Z</time></trkpt>
<trkpt lat="44.81194500" lon="5.91340900"><ele>887.666016</ele><time>2010-06-02T07:40:43Z</time></trkpt>
<trkpt lat="44.81176700" lon="5.91319700"><ele>888.976013</ele><time>2010-06-02T07:40:53Z</time></trkpt>
<trkpt lat="44.81163700" lon="5.91305200"><ele>890.513</ele><time>2010-06-02T07:41:00Z</time></trkpt>
<trkpt lat="44.81151500" lon="5.91287800"><ele>891.651978</ele><time>2010-06-02T07:41:08Z</time></trkpt>
<trkpt lat="44.81138700" lon="5.91270900"><ele>893.460022</ele><time>2010-06-02T07:41:17Z</time></trkpt>
<trkpt lat="44.81127200" lon="5.91258800"><ele>894.434021</ele><time>2010-06-02T07:41:24Z</time></trkpt>
<trkpt lat="44.81114700" lon="5.91246600"><ele>895.603027</ele><time>2010-06-02T07:41:31Z</time></trkpt>
<trkpt lat="44.81101000" lon="5.91231100"><ele>897.112</ele><time>2010-06-02T07:41:39Z</time></trkpt>
<trkpt lat="44.81092600" lon="5.91221800"><ele>898.161011</ele><time>2010-06-02T07:41:44Z</time></trkpt>
<trkpt lat="44.81075700" lon="5.91212700"><ele>898.989014</ele><time>2010-06-02T07:41:51Z</time></trkpt>
<trkpt lat="44.81065600" lon="5.91204900"><ele>900.10199</ele><time>2010-06-02T07:41:57Z</time></trkpt>
<trkpt lat="44.81053900" lon="5.91194900"><ele>901.624023</ele><time>2010-06-02T07:42:04Z</time></trkpt>
<trkpt lat="44.81039900" lon="5.91187400"><ele>902.596008</ele><time>2010-06-02T07:42:11Z</time></trkpt>
<trkpt lat="44.81018400" lon="5.91175800"><ele>903.809998</ele><time>2010-06-02T07:42:21Z</time></trkpt>
<trkpt lat="44.81005400" lon="5.91170600"><ele>904.530029</ele><time>2010-06-02T07:42:27Z</time></trkpt>
<trkpt lat="44.80994700" lon="5.91163000"><ele>905.997986</ele><time>2010-06-02T07:42:32Z</time></trkpt>
<trkpt lat="44.80977200" lon="5.91151300"><ele>907.632996</ele><time>2010-06-02T07:42:40Z</time></trkpt>
<trkpt lat="44.80957500" lon="5.91139300"><ele>909.189026</ele><time>2010-06-02T07:42:49Z</time></trkpt>
<trkpt lat="44.80940000" lon="5.91134400"><ele>910.414978</ele><time>2010-06-02T07:42:56Z</time></trkpt>
<trkpt lat="44.80923500" lon="5.91131500"><ele>911.385986</ele><time>2010-06-02T07:43:03Z</time></trkpt>
<trkpt lat="44.80905100" lon="5.91135800"><ele>912.708984</ele><time>2010-06-02T07:43:10Z</time></trkpt>
<trkpt lat="44.80889200" lon="5.91139000"><ele>914.002014</ele><time>2010-06-02T07:43:16Z</time></trkpt>
<trkpt lat="44.80871400" lon="5.91140600"><ele>915.215027</ele><time>2010-06-02T07:43:24Z</time></trkpt>
<trkpt lat="44.80866800" lon="5.91142200"><ele>915.398987</ele><time>2010-06-02T07:43:26Z</time></trkpt>
<trkpt lat="44.80848300" lon="5.91143100"><ele>916.721985</ele><time>2010-06-02T07:43:35Z</time></trkpt>
<trkpt lat="44.80832400" lon="5.91142800"><ele>918.262024</ele><time>2010-06-02T07:43:43Z</time></trkpt>
<trkpt lat="44.80812500" lon="5.91143200"><ele>920.150024</ele><time>2010-06-02T07:43:52Z</time></trkpt>
<trkpt lat="44.80789100" lon="5.91143700"><ele>921.619019</ele><time>2010-06-02T07:44:02Z</time></trkpt>
<trkpt lat="44.80772300" lon="5.91144400"><ele>923.106018</ele><time>2010-06-02T07:44:09Z</time></trkpt>
<trkpt lat="44.80748500" lon="5.91147300"><ele>925.051025</ele><time>2010-06-02T07:44:19Z</time></trkpt>
<trkpt lat="44.80726100" lon="5.91148700"><ele>926.866028</ele><time>2010-06-02T07:44:29Z</time></trkpt>
<trkpt lat="44.80709400" lon="5.91152700"><ele>927.775024</ele><time>2010-06-02T07:44:36Z</time></trkpt>
<trkpt lat="44.80682300" lon="5.91162900"><ele>930.291016</ele><time>2010-06-02T07:44:47Z</time></trkpt>
<trkpt lat="44.80648200" lon="5.91173000"><ele>931.744995</ele><time>2010-06-02T07:45:00Z</time></trkpt>
<trkpt lat="44.80626700" lon="5.91175600"><ele>932.73999</ele><time>2010-06-02T07:45:08Z</time></trkpt>
<trkpt lat="44.80602900" lon="5.91174500"><ele>932.994019</ele><time>2010-06-02T07:45:16Z</time></trkpt>
<trkpt lat="44.80575300" lon="5.91171600"><ele>933.401001</ele><time>2010-06-02T07:45:24Z</time></trkpt>
<trkpt lat="44.80539400" lon="5.91166800"><ele>933.768982</ele><time>2010-06-02T07:45:32Z</time></trkpt>
<trkpt lat="44.80489800" lon="5.91160800"><ele>933.960999</ele><time>2010-06-02T07:45:42Z</time></trkpt>
<trkpt lat="44.80433000" lon="5.91154200"><ele>934.715027</ele><time>2010-06-02T07:45:53Z</time></trkpt>
<trkpt lat="44.80390400" lon="5.91149100"><ele>935.109009</ele><time>2010-06-02T07:46:01Z</time></trkpt>
<trkpt lat="44.80385200" lon="5.91148000"><ele>935.260986</ele><time>2010-06-02T07:46:02Z</time></trkpt>
<trkpt lat="44.80338400" lon="5.91142500"><ele>936.20697</ele><time>2010-06-02T07:46:11Z</time></trkpt>
<trkpt lat="44.80285900" lon="5.91136400"><ele>936.921997</ele><time>2010-06-02T07:46:21Z</time></trkpt>
<trkpt lat="44.80237900" lon="5.91129600"><ele>937.447998</ele><time>2010-06-02T07:46:30Z</time></trkpt>
<trkpt lat="44.80192000" lon="5.91124100"><ele>938.530029</ele><time>2010-06-02T07:46:39Z</time></trkpt>
<trkpt lat="44.80141700" lon="5.91118300"><ele>939.406982</ele><time>2010-06-02T07:46:49Z</time></trkpt>
<trkpt lat="44.80101600" lon="5.91112400"><ele>940.031982</ele><time>2010-06-02T07:46:57Z</time></trkpt>
<trkpt lat="44.80052200" lon="5.91105900"><ele>941.234985</ele><time>2010-06-02T07:47:07Z</time></trkpt>
<trkpt lat="44.80007800" lon="5.91100500"><ele>941.986023</ele><time>2010-06-02T07:47:16Z</time></trkpt>
<trkpt lat="44.79953300" lon="5.91094100"><ele>942.869019</ele><time>2010-06-02T07:47:27Z</time></trkpt>
<trkpt lat="44.79898400" lon="5.91086600"><ele>943.13501</ele><time>2010-06-02T07:47:38Z</time></trkpt>
<trkpt lat="44.79852900" lon="5.91080800"><ele>943.65802</ele><time>2010-06-02T07:47:47Z</time></trkpt>
<trkpt lat="44.79802400" lon="5.91074200"><ele>943.940002</ele><time>2010-06-02T07:47:57Z</time></trkpt>
<trkpt lat="44.79755400" lon="5.91068700"><ele>944.02301</ele><time>2010-06-02T07:48:06Z</time></trkpt>
<trkpt lat="44.79705500" lon="5.91062600"><ele>944.234985</ele><time>2010-06-02T07:48:15Z</time></trkpt>
<trkpt lat="44.79647500" lon="5.91055900"><ele>945.421997</ele><time>2010-06-02T07:48:25Z</time></trkpt>
<trkpt lat="44.79597500" lon="5.91051400"><ele>946.335022</ele><time>2010-06-02T07:48:34Z</time></trkpt>
<trkpt lat="44.79525600" lon="5.91041500"><ele>948.419006</ele><time>2010-06-02T07:48:47Z</time></trkpt>
<trkpt lat="44.79476600" lon="5.91034500"><ele>948.830994</ele><time>2010-06-02T07:48:56Z</time></trkpt>
<trkpt lat="44.79437900" lon="5.91029200"><ele>949.271973</ele><time>2010-06-02T07:49:03Z</time></trkpt>
<trkpt lat="44.79380800" lon="5.91022900"><ele>950.554993</ele><time>2010-06-02T07:49:13Z</time></trkpt>
<trkpt lat="44.79322000" lon="5.91014400"><ele>951.643005</ele><time>2010-06-02T07:49:23Z</time></trkpt>
<trkpt lat="44.79270000" lon="5.91008000"><ele>952.130981</ele><time>2010-06-02T07:49:32Z</time></trkpt>
<trkpt lat="44.79221000" lon="5.91002400"><ele>953.072021</ele><time>2010-06-02T07:49:41Z</time></trkpt>
<trkpt lat="44.79165800" lon="5.90995600"><ele>953.596985</ele><time>2010-06-02T07:49:51Z</time></trkpt>
<trkpt lat="44.79114500" lon="5.90988700"><ele>954.195007</ele><time>2010-06-02T07:50:00Z</time></trkpt>
<trkpt lat="44.79053800" lon="5.90978500"><ele>954.388977</ele><time>2010-06-02T07:50:10Z</time></trkpt>
<trkpt lat="44.78992900" lon="5.90967200"><ele>954.507996</ele><time>2010-06-02T07:50:19Z</time></trkpt>
<trkpt lat="44.78945900" lon="5.90958100"><ele>954.771973</ele><time>2010-06-02T07:50:26Z</time></trkpt>
<trkpt lat="44.78876200" lon="5.90945800"><ele>956.059998</ele><time>2010-06-02T07:50:37Z</time></trkpt>
<trkpt lat="44.78800900" lon="5.90931400"><ele>957.184998</ele><time>2010-06-02T07:50:49Z</time></trkpt>
<trkpt lat="44.78733400" lon="5.90918400"><ele>958.64502</ele><time>2010-06-02T07:51:00Z</time></trkpt>
<trkpt lat="44.78691100" lon="5.90911200"><ele>959.497986</ele><time>2010-06-02T07:51:07Z</time></trkpt>
<trkpt lat="44.78638400" lon="5.90901200"><ele>960.400024</ele><time>2010-06-02T07:51:16Z</time></trkpt>
<trkpt lat="44.78575100" lon="5.90889400"><ele>961.357971</ele><time>2010-06-02T07:51:27Z</time></trkpt>
<trkpt lat="44.78518200" lon="5.90879600"><ele>961.926025</ele><time>2010-06-02T07:51:37Z</time></trkpt>
<trkpt lat="44.78474600" lon="5.90870400"><ele>962.72699</ele><time>2010-06-02T07:51:45Z</time></trkpt>
<trkpt lat="44.78423700" lon="5.90861000"><ele>963.945007</ele><time>2010-06-02T07:51:54Z</time></trkpt>
<trkpt lat="44.78375800" lon="5.90851900"><ele>964.682007</ele><time>2010-06-02T07:52:02Z</time></trkpt>
<trkpt lat="44.78319300" lon="5.90842000"><ele>965.372009</ele><time>2010-06-02T07:52:11Z</time></trkpt>
<trkpt lat="44.78249800" lon="5.90828800"><ele>966.546021</ele><time>2010-06-02T07:52:22Z</time></trkpt>
<trkpt lat="44.78189600" lon="5.90817700"><ele>966.853027</ele><time>2010-06-02T07:52:32Z</time></trkpt>
<trkpt lat="44.78137500" lon="5.90807300"><ele>967.773987</ele><time>2010-06-02T07:52:41Z</time></trkpt>
<trkpt lat="44.78074700" lon="5.90796100"><ele>968.815979</ele><time>2010-06-02T07:52:52Z</time></trkpt>
<trkpt lat="44.78029300" lon="5.90787100"><ele>969.629028</ele><time>2010-06-02T07:53:00Z</time></trkpt>
<trkpt lat="44.77966600" lon="5.90774900"><ele>970.273987</ele><time>2010-06-02T07:53:11Z</time></trkpt>
<trkpt lat="44.77928000" lon="5.90767900"><ele>970.900024</ele><time>2010-06-02T07:53:18Z</time></trkpt>
<trkpt lat="44.77886600" lon="5.90758800"><ele>971.58197</ele><time>2010-06-02T07:53:26Z</time></trkpt>
<trkpt lat="44.77843000" lon="5.90750800"><ele>972.031982</ele><time>2010-06-02T07:53:34Z</time></trkpt>
<trkpt lat="44.77783800" lon="5.90740000"><ele>972.919006</ele><time>2010-06-02T07:53:45Z</time></trkpt>
<trkpt lat="44.77721300" lon="5.90728100"><ele>973.905029</ele><time>2010-06-02T07:53:57Z</time></trkpt>
<trkpt lat="44.77660100" lon="5.90716800"><ele>974.614014</ele><time>2010-06-02T07:54:09Z</time></trkpt>
<trkpt lat="44.77621000" lon="5.90710400"><ele>975.122009</ele><time>2010-06-02T07:54:17Z</time></trkpt>
<trkpt lat="44.77582400" lon="5.90702200"><ele>975.66803</ele><time>2010-06-02T07:54:25Z</time></trkpt>
<trkpt lat="44.77535900" lon="5.90692400"><ele>976.15802</ele><time>2010-06-02T07:54:35Z</time></trkpt>
<trkpt lat="44.77508500" lon="5.90680200"><ele>976.679016</ele><time>2010-06-02T07:54:42Z</time></trkpt>
<trkpt lat="44.77490800" lon="5.90679300"><ele>976.603027</ele><time>2010-06-02T07:54:48Z</time></trkpt>
<trkpt lat="44.77467100" lon="5.90692500"><ele>976.98999</ele><time>2010-06-02T07:54:55Z</time></trkpt>
<trkpt lat="44.77451000" lon="5.90696100"><ele>977.557983</ele><time>2010-06-02T07:55:00Z</time></trkpt>
<trkpt lat="44.77444600" lon="5.90698500"><ele>977.39502</ele><time>2010-06-02T07:55:04Z</time></trkpt>
<trkpt lat="44.77443900" lon="5.90698500"><ele>977.172974</ele><time>2010-06-02T07:55:06Z</time></trkpt>
<trkpt lat="44.77445300" lon="5.90698000"><ele>977.929016</ele><time>2010-06-02T07:57:24Z</time></trkpt>
<trkpt lat="44.77445200" lon="5.90694000"><ele>978.286011</ele><time>2010-06-02T07:57:30Z</time></trkpt>
<trkpt lat="44.77438400" lon="5.90667600"><ele>978.065002</ele><time>2010-06-02T07:57:38Z</time></trkpt>
<trkpt lat="44.77435600" lon="5.90629700"><ele>977.866028</ele><time>2010-06-02T07:57:45Z</time></trkpt>
<trkpt lat="44.77426700" lon="5.90579500"><ele>978.737</ele><time>2010-06-02T07:57:53Z</time></trkpt>
<trkpt lat="44.77412500" lon="5.90521900"><ele>978.978027</ele><time>2010-06-02T07:58:02Z</time></trkpt>
<trkpt lat="44.77400600" lon="5.90467800"><ele>979.30603</ele><time>2010-06-02T07:58:10Z</time></trkpt>
<trkpt lat="44.77391400" lon="5.90424400"><ele>979.487976</ele><time>2010-06-02T07:58:16Z</time></trkpt>
<trkpt lat="44.77392300" lon="5.90399900"><ele>979.447998</ele><time>2010-06-02T07:58:19Z</time></trkpt>
<trkpt lat="44.77403600" lon="5.90362000"><ele>979.905029</ele><time>2010-06-02T07:58:24Z</time></trkpt>
<trkpt lat="44.77427300" lon="5.90295300"><ele>980.077026</ele><time>2010-06-02T07:58:34Z</time></trkpt>
<trkpt lat="44.77434600" lon="5.90260700"><ele>979.768005</ele><time>2010-06-02T07:58:39Z</time></trkpt>
<trkpt lat="44.77449100" lon="5.90222800"><ele>979.64801</ele><time>2010-06-02T07:58:45Z</time></trkpt>
<trkpt lat="44.77458600" lon="5.90184600"><ele>979.682983</ele><time>2010-06-02T07:58:51Z</time></trkpt>
<trkpt lat="44.77463700" lon="5.90158600"><ele>979.481018</ele><time>2010-06-02T07:58:55Z</time></trkpt>
<trkpt lat="44.77471000" lon="5.90113000"><ele>979.632996</ele><time>2010-06-02T07:59:02Z</time></trkpt>
<trkpt lat="44.77477700" lon="5.90078600"><ele>979.896973</ele><time>2010-06-02T07:59:08Z</time></trkpt>
<trkpt lat="44.77479700" lon="5.90071600"><ele>979.752991</ele><time>2010-06-02T07:59:10Z</time></trkpt>
<trkpt lat="44.77482400" lon="5.90068000"><ele>979.403015</ele><time>2010-06-02T07:59:14Z</time></trkpt>
<trkpt lat="44.77483900" lon="5.90063500"><ele>978.97998</ele><time>2010-06-02T08:00:08Z</time></trkpt>
<trkpt lat="44.77488700" lon="5.90046800"><ele>979.01001</ele><time>2010-06-02T08:00:13Z</time></trkpt>
<trkpt lat="44.77498200" lon="5.90016000"><ele>979.315002</ele><time>2010-06-02T08:00:18Z</time></trkpt>
<trkpt lat="44.77512600" lon="5.89990300"><ele>979.385986</ele><time>2010-06-02T08:00:22Z</time></trkpt>
<trkpt lat="44.77524200" lon="5.89971400"><ele>979.775024</ele><time>2010-06-02T08:00:25Z</time></trkpt>
<trkpt lat="44.77534700" lon="5.89944100"><ele>980.296997</ele><time>2010-06-02T08:00:29Z</time></trkpt>
<trkpt lat="44.77538200" lon="5.89930400"><ele>980.357971</ele><time>2010-06-02T08:00:31Z</time></trkpt>
<trkpt lat="44.77554100" lon="5.89905800"><ele>980.796021</ele><time>2010-06-02T08:00:36Z</time></trkpt>
<trkpt lat="44.77567500" lon="5.89902000"><ele>981.049988</ele><time>2010-06-02T08:00:38Z</time></trkpt>
<trkpt lat="44.77584300" lon="5.89903600"><ele>981.422974</ele><time>2010-06-02T08:00:41Z</time></trkpt>
<trkpt lat="44.77611400" lon="5.89894000"><ele>981.914001</ele><time>2010-06-02T08:00:46Z</time></trkpt>
<trkpt lat="44.77623400" lon="5.89872100"><ele>982.549011</ele><time>2010-06-02T08:00:50Z</time></trkpt>
<trkpt lat="44.77623300" lon="5.89852900"><ele>982.909973</ele><time>2010-06-02T08:00:53Z</time></trkpt>
<trkpt lat="44.77612400" lon="5.89829100"><ele>983.164001</ele><time>2010-06-02T08:00:57Z</time></trkpt>
<trkpt lat="44.77604700" lon="5.89819500"><ele>983.409973</ele><time>2010-06-02T08:00:59Z</time></trkpt>
<trkpt lat="44.77579700" lon="5.89795100"><ele>984.205994</ele><time>2010-06-02T08:01:05Z</time></trkpt>
<trkpt lat="44.77551600" lon="5.89782600"><ele>984.607971</ele><time>2010-06-02T08:01:11Z</time></trkpt>
<trkpt lat="44.77536800" lon="5.89784500"><ele>985.070984</ele><time>2010-06-02T08:01:14Z</time></trkpt>
<trkpt lat="44.77527400" lon="5.89787800"><ele>985.219971</ele><time>2010-06-02T08:01:16Z</time></trkpt>
<trkpt lat="44.77517900" lon="5.89791000"><ele>985.508972</ele><time>2010-06-02T08:01:18Z</time></trkpt>
<trkpt lat="44.77496500" lon="5.89795400"><ele>985.961975</ele><time>2010-06-02T08:01:22Z</time></trkpt>
<trkpt lat="44.77478300" lon="5.89786700"><ele>986.572998</ele><time>2010-06-02T08:01:26Z</time></trkpt>
<trkpt lat="44.77454100" lon="5.89793200"><ele>987.262024</ele><time>2010-06-02T08:01:31Z</time></trkpt>
<trkpt lat="44.77447800" lon="5.89810100"><ele>987.554016</ele><time>2010-06-02T08:01:34Z</time></trkpt>
<trkpt lat="44.77446300" lon="5.89821400"><ele>987.817993</ele><time>2010-06-02T08:01:36Z</time></trkpt>
<trkpt lat="44.77440000" lon="5.89842500"><ele>987.788025</ele><time>2010-06-02T08:01:40Z</time></trkpt>
<trkpt lat="44.77417200" lon="5.89871300"><ele>988.554016</ele><time>2010-06-02T08:01:47Z</time></trkpt>
<trkpt lat="44.77404100" lon="5.89876100"><ele>988.93103</ele><time>2010-06-02T08:01:50Z</time></trkpt>
<trkpt lat="44.77394900" lon="5.89877300"><ele>989.158997</ele><time>2010-06-02T08:01:52Z</time></trkpt>
<trkpt lat="44.77378100" lon="5.89874000"><ele>989.177979</ele><time>2010-06-02T08:01:56Z</time></trkpt>
<trkpt lat="44.77341100" lon="5.89859900"><ele>989.830994</ele><time>2010-06-02T08:02:05Z</time></trkpt>
<trkpt lat="44.77306600" lon="5.89861100"><ele>990.375977</ele><time>2010-06-02T08:02:13Z</time></trkpt>
<trkpt lat="44.77272500" lon="5.89871400"><ele>990.854004</ele><time>2010-06-02T08:02:21Z</time></trkpt>
<trkpt lat="44.77264500" lon="5.89874500"><ele>991.046997</ele><time>2010-06-02T08:02:23Z</time></trkpt>
<trkpt lat="44.77233700" lon="5.89898000"><ele>991.676025</ele><time>2010-06-02T08:02:31Z</time></trkpt>
<trkpt lat="44.77209600" lon="5.89925400"><ele>992.421997</ele><time>2010-06-02T08:02:38Z</time></trkpt>
<trkpt lat="44.77178900" lon="5.89955700"><ele>993.163025</ele><time>2010-06-02T08:02:46Z</time></trkpt>
<trkpt lat="44.77170500" lon="5.89959700"><ele>993.364014</ele><time>2010-06-02T08:02:48Z</time></trkpt>
<trkpt lat="44.77153000" lon="5.89961500"><ele>994.08197</ele><time>2010-06-02T08:02:52Z</time></trkpt>
<trkpt lat="44.77136100" lon="5.89957000"><ele>994.637024</ele><time>2010-06-02T08:02:56Z</time></trkpt>
<trkpt lat="44.77098500" lon="5.89925100"><ele>995.05603</ele><time>2010-06-02T08:03:06Z</time></trkpt>
<trkpt lat="44.77078000" lon="5.89911200"><ele>995.656982</ele><time>2010-06-02T08:03:11Z</time></trkpt>
<trkpt lat="44.77054100" lon="5.89891300"><ele>996.366028</ele><time>2010-06-02T08:03:17Z</time></trkpt>
<trkpt lat="44.77036100" lon="5.89871500"><ele>997.039001</ele><time>2010-06-02T08:03:22Z</time></trkpt>
<trkpt lat="44.77024700" lon="5.89844400"><ele>997.603027</ele><time>2010-06-02T08:03:27Z</time></trkpt>
<trkpt lat="44.77030300" lon="5.89812200"><ele>998.174011</ele><time>2010-06-02T08:03:32Z</time></trkpt>
<trkpt lat="44.77032400" lon="5.89806400"><ele>998.218994</ele><time>2010-06-02T08:03:33Z</time></trkpt>
<trkpt lat="44.77045200" lon="5.89774700"><ele>999.354004</ele><time>2010-06-02T08:03:39Z</time></trkpt>
<trkpt lat="44.77049300" lon="5.89745800"><ele>999.94397</ele><time>2010-06-02T08:03:44Z</time></trkpt>
<trkpt lat="44.77049000" lon="5.89733100"><ele>1000.304993</ele><time>2010-06-02T08:03:46Z</time></trkpt>
<trkpt lat="44.77036500" lon="5.89683900"><ele>1000.70697</ele><time>2010-06-02T08:03:54Z</time></trkpt>
<trkpt lat="44.77018900" lon="5.89632600"><ele>1001.241028</ele><time>2010-06-02T08:04:03Z</time></trkpt>
<trkpt lat="44.77014500" lon="5.89621700"><ele>1001.435974</ele><time>2010-06-02T08:04:05Z</time></trkpt>
<trkpt lat="44.76988800" lon="5.89588700"><ele>1001.846985</ele><time>2010-06-02T08:04:13Z</time></trkpt>
<trkpt lat="44.76961400" lon="5.89572800"><ele>1002.458008</ele><time>2010-06-02T08:04:20Z</time></trkpt>
<trkpt lat="44.76942800" lon="5.89552100"><ele>1003.015015</ele><time>2010-06-02T08:04:26Z</time></trkpt>
<trkpt lat="44.76935200" lon="5.89525000"><ele>1003.208984</ele><time>2010-06-02T08:04:31Z</time></trkpt>
<trkpt lat="44.76933100" lon="5.89479800"><ele>1003.161011</ele><time>2010-06-02T08:04:38Z</time></trkpt>
<trkpt lat="44.76930400" lon="5.89447500"><ele>1002.776001</ele><time>2010-06-02T08:04:43Z</time></trkpt>
<trkpt lat="44.76929400" lon="5.89440800"><ele>1002.646973</ele><time>2010-06-02T08:04:44Z</time></trkpt>
<trkpt lat="44.76926000" lon="5.89425800"><ele>1002.455017</ele><time>2010-06-02T08:04:46Z</time></trkpt>
<trkpt lat="44.76909900" lon="5.89402900"><ele>1001.853027</ele><time>2010-06-02T08:04:50Z</time></trkpt>
<trkpt lat="44.76891600" lon="5.89408100"><ele>1001.700012</ele><time>2010-06-02T08:04:53Z</time></trkpt>
<trkpt lat="44.76869400" lon="5.89420700"><ele>1001.619019</ele><time>2010-06-02T08:04:57Z</time></trkpt>
<trkpt lat="44.76862500" lon="5.89422300"><ele>1001.546997</ele><time>2010-06-02T08:04:58Z</time></trkpt>
<trkpt lat="44.76817000" lon="5.89419500"><ele>1000.973999</ele><time>2010-06-02T08:05:04Z</time></trkpt>
<trkpt lat="44.76786200" lon="5.89407500"><ele>1001.203003</ele><time>2010-06-02T08:05:09Z</time></trkpt>
<trkpt lat="44.76746000" lon="5.89404600"><ele>1001.046021</ele><time>2010-06-02T08:05:15Z</time></trkpt>
<trkpt lat="44.76739400" lon="5.89404100"><ele>1001.039978</ele><time>2010-06-02T08:05:16Z</time></trkpt>
<trkpt lat="44.76707400" lon="5.89383300"><ele>1000.700012</ele><time>2010-06-02T08:05:21Z</time></trkpt>
<trkpt lat="44.76667500" lon="5.89335200"><ele>1000.23999</ele><time>2010-06-02T08:05:28Z</time></trkpt>
<trkpt lat="44.76661300" lon="5.89327500"><ele>1000.106995</ele><time>2010-06-02T08:05:29Z</time></trkpt>
<trkpt lat="44.76625600" lon="5.89298100"><ele>999.47998</ele><time>2010-06-02T08:05:34Z</time></trkpt>
<trkpt lat="44.76596200" lon="5.89280300"><ele>998.216003</ele><time>2010-06-02T08:05:38Z</time></trkpt>
<trkpt lat="44.76569000" lon="5.89252400"><ele>997.190002</ele><time>2010-06-02T08:05:42Z</time></trkpt>
<trkpt lat="44.76537200" lon="5.89205900"><ele>996.000977</ele><time>2010-06-02T08:05:47Z</time></trkpt>
<trkpt lat="44.76494000" lon="5.89150800"><ele>993.327026</ele><time>2010-06-02T08:05:53Z</time></trkpt>
<trkpt lat="44.76460600" lon="5.89118400"><ele>992.429016</ele><time>2010-06-02T08:05:57Z</time></trkpt>
<trkpt lat="44.76419000" lon="5.89078500"><ele>990.724976</ele><time>2010-06-02T08:06:02Z</time></trkpt>
<trkpt lat="44.76390300" lon="5.89038000"><ele>989.409973</ele><time>2010-06-02T08:06:06Z</time></trkpt>
<trkpt lat="44.76376800" lon="5.88999800"><ele>988.55603</ele><time>2010-06-02T08:06:09Z</time></trkpt>
<trkpt lat="44.76344500" lon="5.88949900"><ele>986.830017</ele><time>2010-06-02T08:06:14Z</time></trkpt>
<trkpt lat="44.76336200" lon="5.88943100"><ele>986.698975</ele><time>2010-06-02T08:06:15Z</time></trkpt>
<trkpt lat="44.76292400" lon="5.88910300"><ele>984.901001</ele><time>2010-06-02T08:06:20Z</time></trkpt>
<trkpt lat="44.76258600" lon="5.88886800"><ele>983.593994</ele><time>2010-06-02T08:06:24Z</time></trkpt>
<trkpt lat="44.76228600" lon="5.88843100"><ele>982.085022</ele><time>2010-06-02T08:06:29Z</time></trkpt>
<trkpt lat="44.76219500" lon="5.88818800"><ele>981.517029</ele><time>2010-06-02T08:06:31Z</time></trkpt>
<trkpt lat="44.76197400" lon="5.88762300"><ele>980.948975</ele><time>2010-06-02T08:06:36Z</time></trkpt>
<trkpt lat="44.76190800" lon="5.88738300"><ele>980.846985</ele><time>2010-06-02T08:06:38Z</time></trkpt>
<trkpt lat="44.76167200" lon="5.88706000"><ele>979.898987</ele><time>2010-06-02T08:06:42Z</time></trkpt>
<trkpt lat="44.76126300" lon="5.88663700"><ele>976.184021</ele><time>2010-06-02T08:06:48Z</time></trkpt>
<trkpt lat="44.76113200" lon="5.88644400"><ele>975.314026</ele><time>2010-06-02T08:06:50Z</time></trkpt>
<trkpt lat="44.76094900" lon="5.88597700"><ele>974.202026</ele><time>2010-06-02T08:06:54Z</time></trkpt>
<trkpt lat="44.76083000" lon="5.88548000"><ele>973.356995</ele><time>2010-06-02T08:06:58Z</time></trkpt>
<trkpt lat="44.76064400" lon="5.88527100"><ele>972.395996</ele><time>2010-06-02T08:07:01Z</time></trkpt>
<trkpt lat="44.76056200" lon="5.88524800"><ele>972.38501</ele><time>2010-06-02T08:07:02Z</time></trkpt>
<trkpt lat="44.76040300" lon="5.88522700"><ele>971.968018</ele><time>2010-06-02T08:07:04Z</time></trkpt>
<trkpt lat="44.76015500" lon="5.88512600"><ele>970.362</ele><time>2010-06-02T08:07:07Z</time></trkpt>
<trkpt lat="44.75980400" lon="5.88503200"><ele>969.195007</ele><time>2010-06-02T08:07:11Z</time></trkpt>
<trkpt lat="44.75916800" lon="5.88472700"><ele>967.013977</ele><time>2010-06-02T08:07:18Z</time></trkpt>
<trkpt lat="44.75851900" lon="5.88439600"><ele>965.18103</ele><time>2010-06-02T08:07:25Z</time></trkpt>
<trkpt lat="44.75802400" lon="5.88443800"><ele>963.513977</ele><time>2010-06-02T08:07:30Z</time></trkpt>
<trkpt lat="44.75745600" lon="5.88475600"><ele>962.070984</ele><time>2010-06-02T08:07:36Z</time></trkpt>
<trkpt lat="44.75720900" lon="5.88511000"><ele>960.953979</ele><time>2010-06-02T08:07:40Z</time></trkpt>
<trkpt lat="44.75715100" lon="5.88521100"><ele>960.619019</ele><time>2010-06-02T08:07:41Z</time></trkpt>
<trkpt lat="44.75692000" lon="5.88543900"><ele>959.335022</ele><time>2010-06-02T08:07:44Z</time></trkpt>
<trkpt lat="44.75683100" lon="5.88548400"><ele>958.929993</ele><time>2010-06-02T08:07:45Z</time></trkpt>
<trkpt lat="44.75644300" lon="5.88554800"><ele>958.117004</ele><time>2010-06-02T08:07:49Z</time></trkpt>
<trkpt lat="44.75625000" lon="5.88548700"><ele>958.046021</ele><time>2010-06-02T08:07:51Z</time></trkpt>
<trkpt lat="44.75559400" lon="5.88511200"><ele>955.603027</ele><time>2010-06-02T08:07:58Z</time></trkpt>
<trkpt lat="44.75530300" lon="5.88476600"><ele>954.60199</ele><time>2010-06-02T08:08:02Z</time></trkpt>
<trkpt lat="44.75521900" lon="5.88453100"><ele>954.143982</ele><time>2010-06-02T08:08:04Z</time></trkpt>
<trkpt lat="44.75510000" lon="5.88417500"><ele>952.961975</ele><time>2010-06-02T08:08:07Z</time></trkpt>
<trkpt lat="44.75479000" lon="5.88389000"><ele>952.309021</ele><time>2010-06-02T08:08:11Z</time></trkpt>
<trkpt lat="44.75435200" lon="5.88370900"><ele>950.234985</ele><time>2010-06-02T08:08:16Z</time></trkpt>
<trkpt lat="44.75402000" lon="5.88375100"><ele>947.445984</ele><time>2010-06-02T08:08:20Z</time></trkpt>
<trkpt lat="44.75339500" lon="5.88370700"><ele>944.622986</ele><time>2010-06-02T08:08:27Z</time></trkpt>
<trkpt lat="44.75320300" lon="5.88368900"><ele>944.478027</ele><time>2010-06-02T08:08:29Z</time></trkpt>
<trkpt lat="44.75302600" lon="5.88371700"><ele>944.210999</ele><time>2010-06-02T08:08:31Z</time></trkpt>
<trkpt lat="44.75265600" lon="5.88371000"><ele>942.538025</ele><time>2010-06-02T08:08:35Z</time></trkpt>
<trkpt lat="44.75197200" lon="5.88356400"><ele>940.484009</ele><time>2010-06-02T08:08:42Z</time></trkpt>
<trkpt lat="44.75156100" lon="5.88344300"><ele>939.911987</ele><time>2010-06-02T08:08:46Z</time></trkpt>
<trkpt lat="44.75124300" lon="5.88343300"><ele>938.96698</ele><time>2010-06-02T08:08:50Z</time></trkpt>
<trkpt lat="44.75109200" lon="5.88359200"><ele>937.276001</ele><time>2010-06-02T08:08:53Z</time></trkpt>
<trkpt lat="44.75106200" lon="5.88365800"><ele>937.041016</ele><time>2010-06-02T08:08:54Z</time></trkpt>
<trkpt lat="44.75101300" lon="5.88393700"><ele>936.203979</ele><time>2010-06-02T08:08:58Z</time></trkpt>
<trkpt lat="44.75100700" lon="5.88399100"><ele>935.932007</ele><time>2010-06-02T08:08:59Z</time></trkpt>
<trkpt lat="44.75095600" lon="5.88420400"><ele>935.317993</ele><time>2010-06-02T08:09:04Z</time></trkpt>
<trkpt lat="44.75095500" lon="5.88426100"><ele>935.142029</ele><time>2010-06-02T08:09:06Z</time></trkpt>
<trkpt lat="44.75095400" lon="5.88434200"><ele>934.695007</ele><time>2010-06-02T08:09:09Z</time></trkpt>
<trkpt lat="44.75092900" lon="5.88445400"><ele>934.36499</ele><time>2010-06-02T08:09:14Z</time></trkpt>
<trkpt lat="44.75093800" lon="5.88460300"><ele>934.315979</ele><time>2010-06-02T08:09:20Z</time></trkpt>
<trkpt lat="44.75095000" lon="5.88461400"><ele>934.179016</ele><time>2010-06-02T08:09:23Z</time></trkpt>
<trkpt lat="44.75096500" lon="5.88468300"><ele>934.401001</ele><time>2010-06-02T08:09:30Z</time></trkpt>
<trkpt lat="44.75096300" lon="5.88478100"><ele>935.064026</ele><time>2010-06-02T08:09:39Z</time></trkpt>
<trkpt lat="44.75095000" lon="5.88487900"><ele>934.090027</ele><time>2010-06-02T08:09:47Z</time></trkpt>
<trkpt lat="44.75091300" lon="5.88493700"><ele>933.869019</ele><time>2010-06-02T08:09:53Z</time></trkpt>
<trkpt lat="44.75084400" lon="5.88494100"><ele>933.596985</ele><time>2010-06-02T08:09:59Z</time></trkpt>
<trkpt lat="44.75077700" lon="5.88495000"><ele>934.695007</ele><time>2010-06-02T08:10:06Z</time></trkpt>
<trkpt lat="44.75076500" lon="5.88495200"><ele>934.577026</ele><time>2010-06-02T08:10:07Z</time></trkpt>
<trkpt lat="44.75075100" lon="5.88496400"><ele>934.255981</ele><time>2010-06-02T08:10:11Z</time></trkpt>
<trkpt lat="44.75054800" lon="5.88480800"><ele>934.163025</ele><time>2010-06-02T08:11:19Z</time></trkpt>
<trkpt lat="44.75048200" lon="5.88479700"><ele>934.10199</ele><time>2010-06-02T08:11:26Z</time></trkpt>
<trkpt lat="44.75043500" lon="5.88488100"><ele>934.29303</ele><time>2010-06-02T08:11:35Z</time></trkpt>
<trkpt lat="44.75042800" lon="5.88489300"><ele>934.228027</ele><time>2010-06-02T08:11:38Z</time></trkpt>
<trkpt lat="44.75038800" lon="5.88493000"><ele>934.549011</ele><time>2010-06-02T08:11:46Z</time></trkpt>
<trkpt lat="44.75028600" lon="5.88493300"><ele>934.617981</ele><time>2010-06-02T08:11:51Z</time></trkpt>
<trkpt lat="44.75023800" lon="5.88498200"><ele>934.624023</ele><time>2010-06-02T08:11:56Z</time></trkpt>
<trkpt lat="44.75019000" lon="5.88501400"><ele>934.893982</ele><time>2010-06-02T08:12:00Z</time></trkpt>
<trkpt lat="44.75013700" lon="5.88504700"><ele>934.966003</ele><time>2010-06-02T08:12:05Z</time></trkpt>
<trkpt lat="44.75008800" lon="5.88506900"><ele>935.049988</ele><time>2010-06-02T08:12:10Z</time></trkpt>
<trkpt lat="44.75008800" lon="5.88507500"><ele>935.094971</ele><time>2010-06-02T08:12:12Z</time></trkpt>
<trkpt lat="44.75010700" lon="5.88513900"><ele>935.239014</ele><time>2010-06-02T08:13:30Z</time></trkpt>
<trkpt lat="44.75009100" lon="5.88513200"><ele>935.288025</ele><time>2010-06-02T08:13:31Z</time></trkpt>
<trkpt lat="44.74995500" lon="5.88508300"><ele>935.835022</ele><time>2010-06-02T08:13:38Z</time></trkpt>
<trkpt lat="44.74984200" lon="5.88499800"><ele>935.89801</ele><time>2010-06-02T08:13:43Z</time></trkpt>
<trkpt lat="44.74970600" lon="5.88492400"><ele>937.239014</ele><time>2010-06-02T08:13:49Z</time></trkpt>
<trkpt lat="44.74955000" lon="5.88494500"><ele>938.336975</ele><time>2010-06-02T08:13:55Z</time></trkpt>
<trkpt lat="44.74936800" lon="5.88505700"><ele>939.880981</ele><time>2010-06-02T08:14:03Z</time></trkpt>
<trkpt lat="44.74914800" lon="5.88516700"><ele>941.111023</ele><time>2010-06-02T08:14:12Z</time></trkpt>
<trkpt lat="44.74894900" lon="5.88527500"><ele>942.703979</ele><time>2010-06-02T08:14:20Z</time></trkpt>
<trkpt lat="44.74880700" lon="5.88533400"><ele>944.150024</ele><time>2010-06-02T08:14:26Z</time></trkpt>
<trkpt lat="44.74858000" lon="5.88535700"><ele>945.867004</ele><time>2010-06-02T08:14:36Z</time></trkpt>
<trkpt lat="44.74841800" lon="5.88534000"><ele>947.073975</ele><time>2010-06-02T08:14:43Z</time></trkpt>
<trkpt lat="44.74824200" lon="5.88526700"><ele>949.005981</ele><time>2010-06-02T08:14:51Z</time></trkpt>
<trkpt lat="44.74808600" lon="5.88526600"><ele>950.718994</ele><time>2010-06-02T08:14:58Z</time></trkpt>
<trkpt lat="44.74793900" lon="5.88536100"><ele>952.249023</ele><time>2010-06-02T08:15:05Z</time></trkpt>
<trkpt lat="44.74775800" lon="5.88539700"><ele>954.200012</ele><time>2010-06-02T08:15:13Z</time></trkpt>
<trkpt lat="44.74771300" lon="5.88539300"><ele>955.080017</ele><time>2010-06-02T08:15:15Z</time></trkpt>
<trkpt lat="44.74756000" lon="5.88543800"><ele>956.177979</ele><time>2010-06-02T08:15:22Z</time></trkpt>
<trkpt lat="44.74741600" lon="5.88558000"><ele>957.268005</ele><time>2010-06-02T08:15:29Z</time></trkpt>
<trkpt lat="44.74728500" lon="5.88576100"><ele>959.497986</ele><time>2010-06-02T08:15:37Z</time></trkpt>
<trkpt lat="44.74715500" lon="5.88593200"><ele>961.203003</ele><time>2010-06-02T08:15:45Z</time></trkpt>
<trkpt lat="44.74700200" lon="5.88601700"><ele>962.530029</ele><time>2010-06-02T08:15:52Z</time></trkpt>
<trkpt lat="44.74682600" lon="5.88604600"><ele>963.643982</ele><time>2010-06-02T08:15:58Z</time></trkpt>
<trkpt lat="44.74681200" lon="5.88605800"><ele>963.702026</ele><time>2010-06-02T08:15:59Z</time></trkpt>
<trkpt lat="44.74674200" lon="5.88619000"><ele>964.935974</ele><time>2010-06-02T08:16:06Z</time></trkpt>
<trkpt lat="44.74661800" lon="5.88618000"><ele>965.883972</ele><time>2010-06-02T08:16:10Z</time></trkpt>
<trkpt lat="44.74652400" lon="5.88641500"><ele>967.343018</ele><time>2010-06-02T08:16:18Z</time></trkpt>
<trkpt lat="44.74643300" lon="5.88658100"><ele>967.715027</ele><time>2010-06-02T08:16:24Z</time></trkpt>
<trkpt lat="44.74630300" lon="5.88671700"><ele>969.659973</ele><time>2010-06-02T08:16:32Z</time></trkpt>
<trkpt lat="44.74616500" lon="5.88687000"><ele>971.218994</ele><time>2010-06-02T08:16:40Z</time></trkpt>
<trkpt lat="44.74605900" lon="5.88707400"><ele>972.335999</ele><time>2010-06-02T08:16:47Z</time></trkpt>
<trkpt lat="44.74593800" lon="5.88732100"><ele>973.349976</ele><time>2010-06-02T08:16:56Z</time></trkpt>
<trkpt lat="44.74579600" lon="5.88756100"><ele>974.838989</ele><time>2010-06-02T08:17:05Z</time></trkpt>
<trkpt lat="44.74570100" lon="5.88768500"><ele>975.89801</ele><time>2010-06-02T08:17:11Z</time></trkpt>
<trkpt lat="44.74554000" lon="5.88783600"><ele>977.159973</ele><time>2010-06-02T08:17:19Z</time></trkpt>
<trkpt lat="44.74537400" lon="5.88791300"><ele>978.385986</ele><time>2010-06-02T08:17:28Z</time></trkpt>
<trkpt lat="44.74518900" lon="5.88789900"><ele>980.067017</ele><time>2010-06-02T08:17:37Z</time></trkpt>
<trkpt lat="44.74503100" lon="5.88791000"><ele>980.924988</ele><time>2010-06-02T08:17:44Z</time></trkpt>
<trkpt lat="44.74482200" lon="5.88797200"><ele>982.487</ele><time>2010-06-02T08:17:53Z</time></trkpt>
<trkpt lat="44.74468400" lon="5.88801900"><ele>983.732971</ele><time>2010-06-02T08:18:00Z</time></trkpt>
<trkpt lat="44.74455700" lon="5.88813200"><ele>984.843018</ele><time>2010-06-02T08:18:06Z</time></trkpt>
<trkpt lat="44.74442800" lon="5.88836000"><ele>985.695007</ele><time>2010-06-02T08:18:12Z</time></trkpt>
<trkpt lat="44.74437600" lon="5.88845800"><ele>986.835999</ele><time>2010-06-02T08:18:17Z</time></trkpt>
<trkpt lat="44.74431100" lon="5.88864400"><ele>988.802979</ele><time>2010-06-02T08:18:24Z</time></trkpt>
<trkpt lat="44.74425400" lon="5.88885100"><ele>989.814026</ele><time>2010-06-02T08:18:31Z</time></trkpt>
<trkpt lat="44.74420800" lon="5.88918200"><ele>991.091003</ele><time>2010-06-02T08:18:40Z</time></trkpt>
<trkpt lat="44.74416200" lon="5.88954100"><ele>992.195984</ele><time>2010-06-02T08:18:48Z</time></trkpt>
<trkpt lat="44.74407000" lon="5.88978700"><ele>993.505005</ele><time>2010-06-02T08:18:56Z</time></trkpt>
<trkpt lat="44.74392300" lon="5.89003400"><ele>994.794983</ele><time>2010-06-02T08:19:05Z</time></trkpt>
<trkpt lat="44.74382000" lon="5.89021900"><ele>996.007996</ele><time>2010-06-02T08:19:12Z</time></trkpt>
<trkpt lat="44.74371500" lon="5.89034400"><ele>996.674988</ele><time>2010-06-02T08:19:18Z</time></trkpt>
<trkpt lat="44.74357200" lon="5.89043800"><ele>998.234009</ele><time>2010-06-02T08:19:26Z</time></trkpt>
<trkpt lat="44.74343400" lon="5.89051200"><ele>999.346008</ele><time>2010-06-02T08:19:33Z</time></trkpt>
<trkpt lat="44.74321300" lon="5.89066000"><ele>1000.276978</ele><time>2010-06-02T08:19:43Z</time></trkpt>
<trkpt lat="44.74303400" lon="5.89077000"><ele>1001.247986</ele><time>2010-06-02T08:19:51Z</time></trkpt>
<trkpt lat="44.74289900" lon="5.89077700"><ele>1002.210022</ele><time>2010-06-02T08:19:57Z</time></trkpt>
<trkpt lat="44.74280400" lon="5.89063500"><ele>1002.215027</ele><time>2010-06-02T08:20:03Z</time></trkpt>
<trkpt lat="44.74270100" lon="5.89052800"><ele>1003.473999</ele><time>2010-06-02T08:20:08Z</time></trkpt>
<trkpt lat="44.74256700" lon="5.89056700"><ele>1004.630005</ele><time>2010-06-02T08:20:14Z</time></trkpt>
<trkpt lat="44.74234600" lon="5.89076100"><ele>1006.122009</ele><time>2010-06-02T08:20:24Z</time></trkpt>
<trkpt lat="44.74214300" lon="5.89095600"><ele>1007.434021</ele><time>2010-06-02T08:20:33Z</time></trkpt>
<trkpt lat="44.74193900" lon="5.89114100"><ele>1009.127991</ele><time>2010-06-02T08:20:42Z</time></trkpt>
<trkpt lat="44.74177400" lon="5.89126000"><ele>1010.395996</ele><time>2010-06-02T08:20:50Z</time></trkpt>
<trkpt lat="44.74155000" lon="5.89137500"><ele>1011.927002</ele><time>2010-06-02T08:20:59Z</time></trkpt>
<trkpt lat="44.74129000" lon="5.89146900"><ele>1013.487976</ele><time>2010-06-02T08:21:08Z</time></trkpt>
<trkpt lat="44.74100200" lon="5.89153500"><ele>1015.749023</ele><time>2010-06-02T08:21:18Z</time></trkpt>
<trkpt lat="44.74083700" lon="5.89159000"><ele>1016.929993</ele><time>2010-06-02T08:21:24Z</time></trkpt>
<trkpt lat="44.74056700" lon="5.89166600"><ele>1018.5</ele><time>2010-06-02T08:21:34Z</time></trkpt>
<trkpt lat="44.74035800" lon="5.89169900"><ele>1019.325012</ele><time>2010-06-02T08:21:41Z</time></trkpt>
<trkpt lat="44.74008100" lon="5.89175600"><ele>1020.789001</ele><time>2010-06-02T08:21:50Z</time></trkpt>
<trkpt lat="44.73981900" lon="5.89183200"><ele>1022.276978</ele><time>2010-06-02T08:21:59Z</time></trkpt>
<trkpt lat="44.73959600" lon="5.89191600"><ele>1023.263</ele><time>2010-06-02T08:22:07Z</time></trkpt>
<trkpt lat="44.73937400" lon="5.89194000"><ele>1024.234009</ele><time>2010-06-02T08:22:15Z</time></trkpt>
<trkpt lat="44.73911900" lon="5.89193000"><ele>1025.140991</ele><time>2010-06-02T08:22:25Z</time></trkpt>
<trkpt lat="44.73891600" lon="5.89190100"><ele>1026.042969</ele><time>2010-06-02T08:22:33Z</time></trkpt>
<trkpt lat="44.73876500" lon="5.89180200"><ele>1026.873047</ele><time>2010-06-02T08:22:39Z</time></trkpt>
<trkpt lat="44.73859900" lon="5.89164500"><ele>1027.935059</ele><time>2010-06-02T08:22:46Z</time></trkpt>
<trkpt lat="44.73835200" lon="5.89140900"><ele>1029.060059</ele><time>2010-06-02T08:22:56Z</time></trkpt>
<trkpt lat="44.73812800" lon="5.89128600"><ele>1029.755981</ele><time>2010-06-02T08:23:03Z</time></trkpt>
<trkpt lat="44.73786300" lon="5.89125800"><ele>1030.531982</ele><time>2010-06-02T08:23:10Z</time></trkpt>
<trkpt lat="44.73761600" lon="5.89137900"><ele>1031.427979</ele><time>2010-06-02T08:23:17Z</time></trkpt>
<trkpt lat="44.73744600" lon="5.89156500"><ele>1032.016968</ele><time>2010-06-02T08:23:23Z</time></trkpt>
<trkpt lat="44.73728200" lon="5.89188500"><ele>1032.829956</ele><time>2010-06-02T08:23:31Z</time></trkpt>
<trkpt lat="44.73712300" lon="5.89223000"><ele>1033.712036</ele><time>2010-06-02T08:23:39Z</time></trkpt>
<trkpt lat="44.73697500" lon="5.89251700"><ele>1033.746948</ele><time>2010-06-02T08:23:46Z</time></trkpt>
<trkpt lat="44.73682600" lon="5.89283400"><ele>1035.301025</ele><time>2010-06-02T08:23:54Z</time></trkpt>
<trkpt lat="44.73669100" lon="5.89313900"><ele>1036.707031</ele><time>2010-06-02T08:24:01Z</time></trkpt>
<trkpt lat="44.73653100" lon="5.89346200"><ele>1037.515991</ele><time>2010-06-02T08:24:09Z</time></trkpt>
<trkpt lat="44.73640500" lon="5.89378500"><ele>1038.744019</ele><time>2010-06-02T08:24:17Z</time></trkpt>
<trkpt lat="44.73636900" lon="5.89401700"><ele>1039.406006</ele><time>2010-06-02T08:24:22Z</time></trkpt>
<trkpt lat="44.73638100" lon="5.89428900"><ele>1040.30896</ele><time>2010-06-02T08:24:29Z</time></trkpt>
<trkpt lat="44.73637700" lon="5.89461600"><ele>1041.72998</ele><time>2010-06-02T08:24:37Z</time></trkpt>
<trkpt lat="44.73627700" lon="5.89477700"><ele>1042.470947</ele><time>2010-06-02T08:24:43Z</time></trkpt>
<trkpt lat="44.73612900" lon="5.89480800"><ele>1043.277954</ele><time>2010-06-02T08:24:49Z</time></trkpt>
<trkpt lat="44.73594700" lon="5.89470800"><ele>1044.035034</ele><time>2010-06-02T08:24:55Z</time></trkpt>
<trkpt lat="44.73572700" lon="5.89451900"><ele>1045.061035</ele><time>2010-06-02T08:25:03Z</time></trkpt>
<trkpt lat="44.73557300" lon="5.89439100"><ele>1046.342041</ele><time>2010-06-02T08:25:09Z</time></trkpt>
<trkpt lat="44.73538100" lon="5.89438600"><ele>1047.371948</ele><time>2010-06-02T08:25:15Z</time></trkpt>
<trkpt lat="44.73517800" lon="5.89444300"><ele>1048.265991</ele><time>2010-06-02T08:25:22Z</time></trkpt>
<trkpt lat="44.73501400" lon="5.89454400"><ele>1049.151978</ele><time>2010-06-02T08:25:28Z</time></trkpt>
<trkpt lat="44.73477000" lon="5.89470500"><ele>1050.277954</ele><time>2010-06-02T08:25:37Z</time></trkpt>
<trkpt lat="44.73454000" lon="5.89484000"><ele>1051.067017</ele><time>2010-06-02T08:25:45Z</time></trkpt>
<trkpt lat="44.73438000" lon="5.89505200"><ele>1051.802002</ele><time>2010-06-02T08:25:52Z</time></trkpt>
<trkpt lat="44.73429900" lon="5.89530400"><ele>1053.029053</ele><time>2010-06-02T08:25:59Z</time></trkpt>
<trkpt lat="44.73418800" lon="5.89561800"><ele>1054.910034</ele><time>2010-06-02T08:26:08Z</time></trkpt>
<trkpt lat="44.73406300" lon="5.89570200"><ele>1055.812988</ele><time>2010-06-02T08:26:13Z</time></trkpt>
<trkpt lat="44.73382900" lon="5.89572000"><ele>1055.963013</ele><time>2010-06-02T08:26:21Z</time></trkpt>
<trkpt lat="44.73363400" lon="5.89563500"><ele>1056.930054</ele><time>2010-06-02T08:26:28Z</time></trkpt>
<trkpt lat="44.73346600" lon="5.89551500"><ele>1057.937988</ele><time>2010-06-02T08:26:35Z</time></trkpt>
<trkpt lat="44.73332100" lon="5.89543500"><ele>1058.187012</ele><time>2010-06-02T08:26:41Z</time></trkpt>
<trkpt lat="44.73308500" lon="5.89540700"><ele>1058.963989</ele><time>2010-06-02T08:26:50Z</time></trkpt>
<trkpt lat="44.73292000" lon="5.89545800"><ele>1059.560059</ele><time>2010-06-02T08:26:56Z</time></trkpt>
<trkpt lat="44.73275400" lon="5.89563500"><ele>1060.525024</ele><time>2010-06-02T08:27:03Z</time></trkpt>
<trkpt lat="44.73257500" lon="5.89587900"><ele>1061.609009</ele><time>2010-06-02T08:27:11Z</time></trkpt>
<trkpt lat="44.73237100" lon="5.89609900"><ele>1062.223022</ele><time>2010-06-02T08:27:19Z</time></trkpt>
<trkpt lat="44.73216500" lon="5.89624500"><ele>1063.187988</ele><time>2010-06-02T08:27:27Z</time></trkpt>
<trkpt lat="44.73202500" lon="5.89625500"><ele>1064.369995</ele><time>2010-06-02T08:27:32Z</time></trkpt>
<trkpt lat="44.73174200" lon="5.89627200"><ele>1065.203979</ele><time>2010-06-02T08:27:42Z</time></trkpt>
<trkpt lat="44.73145900" lon="5.89630900"><ele>1066.389038</ele><time>2010-06-02T08:27:52Z</time></trkpt>
<trkpt lat="44.73125200" lon="5.89635500"><ele>1067.365967</ele><time>2010-06-02T08:27:59Z</time></trkpt>
<trkpt lat="44.73098600" lon="5.89638500"><ele>1067.86499</ele><time>2010-06-02T08:28:08Z</time></trkpt>
<trkpt lat="44.73082100" lon="5.89643500"><ele>1068.291992</ele><time>2010-06-02T08:28:14Z</time></trkpt>
<trkpt lat="44.73066300" lon="5.89646600"><ele>1068.790039</ele><time>2010-06-02T08:28:21Z</time></trkpt>
<trkpt lat="44.73052300" lon="5.89650600"><ele>1069.472046</ele><time>2010-06-02T08:28:27Z</time></trkpt>
<trkpt lat="44.73036400" lon="5.89662600"><ele>1070.557007</ele><time>2010-06-02T08:28:33Z</time></trkpt>
<trkpt lat="44.73022800" lon="5.89668600"><ele>1071.373047</ele><time>2010-06-02T08:28:38Z</time></trkpt>
<trkpt lat="44.73007500" lon="5.89681400"><ele>1072.198975</ele><time>2010-06-02T08:28:43Z</time></trkpt>
<trkpt lat="44.72986400" lon="5.89691100"><ele>1072.863037</ele><time>2010-06-02T08:28:50Z</time></trkpt>
<trkpt lat="44.72965600" lon="5.89703400"><ele>1074.061035</ele><time>2010-06-02T08:28:57Z</time></trkpt>
<trkpt lat="44.72949900" lon="5.89715700"><ele>1074.709961</ele><time>2010-06-02T08:29:03Z</time></trkpt>
<trkpt lat="44.72936000" lon="5.89724200"><ele>1075.31897</ele><time>2010-06-02T08:29:09Z</time></trkpt>
<trkpt lat="44.72923500" lon="5.89731100"><ele>1075.605957</ele><time>2010-06-02T08:29:14Z</time></trkpt>
<trkpt lat="44.72904000" lon="5.89736100"><ele>1076.206055</ele><time>2010-06-02T08:29:21Z</time></trkpt>
<trkpt lat="44.72881300" lon="5.89729800"><ele>1077.594971</ele><time>2010-06-02T08:29:29Z</time></trkpt>
<trkpt lat="44.72861600" lon="5.89723900"><ele>1078.35498</ele><time>2010-06-02T08:29:36Z</time></trkpt>
<trkpt lat="44.72841300" lon="5.89721600"><ele>1079.504028</ele><time>2010-06-02T08:29:43Z</time></trkpt>
<trkpt lat="44.72824900" lon="5.89731600"><ele>1080.499023</ele><time>2010-06-02T08:29:49Z</time></trkpt>
<trkpt lat="44.72815600" lon="5.89736700"><ele>1081.243042</ele><time>2010-06-02T08:29:54Z</time></trkpt>
<trkpt lat="44.72800900" lon="5.89737400"><ele>1082.435059</ele><time>2010-06-02T08:30:01Z</time></trkpt>
<trkpt lat="44.72786100" lon="5.89737500"><ele>1083.439941</ele><time>2010-06-02T08:30:08Z</time></trkpt>
<trkpt lat="44.72776300" lon="5.89733900"><ele>1084.162964</ele><time>2010-06-02T08:30:13Z</time></trkpt>
<trkpt lat="44.72762100" lon="5.89733400"><ele>1084.93396</ele><time>2010-06-02T08:30:18Z</time></trkpt>
<trkpt lat="44.72739600" lon="5.89738400"><ele>1086.107056</ele><time>2010-06-02T08:30:25Z</time></trkpt>
<trkpt lat="44.72713400" lon="5.89739800"><ele>1087.060059</ele><time>2010-06-02T08:30:33Z</time></trkpt>
<trkpt lat="44.72690200" lon="5.89739700"><ele>1088.113037</ele><time>2010-06-02T08:30:40Z</time></trkpt>
<trkpt lat="44.72674200" lon="5.89736200"><ele>1088.85498</ele><time>2010-06-02T08:30:45Z</time></trkpt>
<trkpt lat="44.72650300" lon="5.89733900"><ele>1090.18103</ele><time>2010-06-02T08:30:53Z</time></trkpt>
<trkpt lat="44.72626400" lon="5.89727200"><ele>1091.636963</ele><time>2010-06-02T08:31:01Z</time></trkpt>
<trkpt lat="44.72606900" lon="5.89713600"><ele>1092.634033</ele><time>2010-06-02T08:31:08Z</time></trkpt>
<trkpt lat="44.72586700" lon="5.89702600"><ele>1093.765015</ele><time>2010-06-02T08:31:15Z</time></trkpt>
<trkpt lat="44.72570300" lon="5.89692500"><ele>1094.458008</ele><time>2010-06-02T08:31:21Z</time></trkpt>
<trkpt lat="44.72555000" lon="5.89682200"><ele>1095.20105</ele><time>2010-06-02T08:31:27Z</time></trkpt>
<trkpt lat="44.72536000" lon="5.89673100"><ele>1096.495972</ele><time>2010-06-02T08:31:35Z</time></trkpt>
<trkpt lat="44.72517300" lon="5.89667400"><ele>1097.125</ele><time>2010-06-02T08:31:42Z</time></trkpt>
<trkpt lat="44.72490100" lon="5.89660400"><ele>1098.020996</ele><time>2010-06-02T08:31:51Z</time></trkpt>
<trkpt lat="44.72465700" lon="5.89652700"><ele>1098.636963</ele><time>2010-06-02T08:31:58Z</time></trkpt>
<trkpt lat="44.72441600" lon="5.89639300"><ele>1099.807983</ele><time>2010-06-02T08:32:05Z</time></trkpt>
<trkpt lat="44.72403300" lon="5.89615100"><ele>1100.435059</ele><time>2010-06-02T08:32:16Z</time></trkpt>
<trkpt lat="44.72371400" lon="5.89594200"><ele>1101.651978</ele><time>2010-06-02T08:32:25Z</time></trkpt>
<trkpt lat="44.72338500" lon="5.89576300"><ele>1102.723999</ele><time>2010-06-02T08:32:34Z</time></trkpt>
<trkpt lat="44.72311700" lon="5.89554800"><ele>1103.58606</ele><time>2010-06-02T08:32:42Z</time></trkpt>
<trkpt lat="44.72290800" lon="5.89527500"><ele>1104.620972</ele><time>2010-06-02T08:32:49Z</time></trkpt>
<trkpt lat="44.72273300" lon="5.89490400"><ele>1105.894043</ele><time>2010-06-02T08:32:57Z</time></trkpt>
<trkpt lat="44.72244200" lon="5.89443200"><ele>1107.110962</ele><time>2010-06-02T08:33:08Z</time></trkpt>
<trkpt lat="44.72242000" lon="5.89438300"><ele>1107.291016</ele><time>2010-06-02T08:33:09Z</time></trkpt>
<trkpt lat="44.72225200" lon="5.89394500"><ele>1108.10498</ele><time>2010-06-02T08:33:17Z</time></trkpt>
<trkpt lat="44.72201400" lon="5.89352700"><ele>1107.68396</ele><time>2010-06-02T08:33:25Z</time></trkpt>
<trkpt lat="44.72191500" lon="5.89337500"><ele>1107.938965</ele><time>2010-06-02T08:33:28Z</time></trkpt>
<trkpt lat="44.72160000" lon="5.89307000"><ele>1109.057007</ele><time>2010-06-02T08:33:36Z</time></trkpt>
<trkpt lat="44.72116400" lon="5.89265500"><ele>1108.937012</ele><time>2010-06-02T08:33:47Z</time></trkpt>
<trkpt lat="44.72085700" lon="5.89235200"><ele>1109.503052</ele><time>2010-06-02T08:33:54Z</time></trkpt>
<trkpt lat="44.72050300" lon="5.89193400"><ele>1111.116943</ele><time>2010-06-02T08:34:03Z</time></trkpt>
<trkpt lat="44.72022900" lon="5.89157000"><ele>1111.870972</ele><time>2010-06-02T08:34:11Z</time></trkpt>
<trkpt lat="44.71999000" lon="5.89123100"><ele>1113.104004</ele><time>2010-06-02T08:34:19Z</time></trkpt>
<trkpt lat="44.71985800" lon="5.89097600"><ele>1114.323975</ele><time>2010-06-02T08:34:25Z</time></trkpt>
<trkpt lat="44.71971900" lon="5.89071300"><ele>1115.366943</ele><time>2010-06-02T08:34:32Z</time></trkpt>
<trkpt lat="44.71955000" lon="5.89042300"><ele>1116.623047</ele><time>2010-06-02T08:34:40Z</time></trkpt>
<trkpt lat="44.71938700" lon="5.89014300"><ele>1117.980957</ele><time>2010-06-02T08:34:48Z</time></trkpt>
<trkpt lat="44.71923900" lon="5.88988500"><ele>1118.343994</ele><time>2010-06-02T08:34:55Z</time></trkpt>
<trkpt lat="44.71908400" lon="5.88963100"><ele>1119.25</ele><time>2010-06-02T08:35:02Z</time></trkpt>
<trkpt lat="44.71891700" lon="5.88924800"><ele>1120.588989</ele><time>2010-06-02T08:35:12Z</time></trkpt>
<trkpt lat="44.71879300" lon="5.88890800"><ele>1121.587036</ele><time>2010-06-02T08:35:21Z</time></trkpt>
<trkpt lat="44.71869100" lon="5.88869200"><ele>1122.418945</ele><time>2010-06-02T08:35:28Z</time></trkpt>
<trkpt lat="44.71860200" lon="5.88844000"><ele>1123.864014</ele><time>2010-06-02T08:35:36Z</time></trkpt>
<trkpt lat="44.71853000" lon="5.88828100"><ele>1124.38501</ele><time>2010-06-02T08:35:41Z</time></trkpt>
<trkpt lat="44.71839800" lon="5.88821300"><ele>1124.988037</ele><time>2010-06-02T08:35:46Z</time></trkpt>
<trkpt lat="44.71823200" lon="5.88827000"><ele>1125.545044</ele><time>2010-06-02T08:35:52Z</time></trkpt>
<trkpt lat="44.71808200" lon="5.88833200"><ele>1126.19397</ele><time>2010-06-02T08:35:58Z</time></trkpt>
<trkpt lat="44.71794800" lon="5.88831800"><ele>1126.781006</ele><time>2010-06-02T08:36:04Z</time></trkpt>
<trkpt lat="44.71780500" lon="5.88818700"><ele>1127.733032</ele><time>2010-06-02T08:36:11Z</time></trkpt>
<trkpt lat="44.71769100" lon="5.88803400"><ele>1128.536987</ele><time>2010-06-02T08:36:17Z</time></trkpt>
<trkpt lat="44.71760700" lon="5.88790800"><ele>1129.41394</ele><time>2010-06-02T08:36:22Z</time></trkpt>
<trkpt lat="44.71746700" lon="5.88776100"><ele>1130.472046</ele><time>2010-06-02T08:36:29Z</time></trkpt>
<trkpt lat="44.71730700" lon="5.88767200"><ele>1131.484009</ele><time>2010-06-02T08:36:36Z</time></trkpt>
<trkpt lat="44.71712400" lon="5.88756600"><ele>1132.969971</ele><time>2010-06-02T08:36:44Z</time></trkpt>
<trkpt lat="44.71699700" lon="5.88740000"><ele>1133.625977</ele><time>2010-06-02T08:36:51Z</time></trkpt>
<trkpt lat="44.71683100" lon="5.88730700"><ele>1134.458984</ele><time>2010-06-02T08:36:58Z</time></trkpt>
<trkpt lat="44.71662600" lon="5.88726700"><ele>1135.135986</ele><time>2010-06-02T08:37:06Z</time></trkpt>
<trkpt lat="44.71642800" lon="5.88725000"><ele>1135.909058</ele><time>2010-06-02T08:37:14Z</time></trkpt>
<trkpt lat="44.71626400" lon="5.88727000"><ele>1136.864014</ele><time>2010-06-02T08:37:21Z</time></trkpt>
<trkpt lat="44.71610400" lon="5.88730500"><ele>1137.979004</ele><time>2010-06-02T08:37:28Z</time></trkpt>
<trkpt lat="44.71592400" lon="5.88733600"><ele>1138.834961</ele><time>2010-06-02T08:37:35Z</time></trkpt>
<trkpt lat="44.71569300" lon="5.88733700"><ele>1140.291992</ele><time>2010-06-02T08:37:44Z</time></trkpt>
<trkpt lat="44.71553500" lon="5.88726400"><ele>1141.409058</ele><time>2010-06-02T08:37:51Z</time></trkpt>
<trkpt lat="44.71537900" lon="5.88715500"><ele>1142.437988</ele><time>2010-06-02T08:37:58Z</time></trkpt>
<trkpt lat="44.71523000" lon="5.88697800"><ele>1143.498047</ele><time>2010-06-02T08:38:06Z</time></trkpt>
<trkpt lat="44.71511600" lon="5.88683700"><ele>1144.020996</ele><time>2010-06-02T08:38:12Z</time></trkpt>
<trkpt lat="44.71498600" lon="5.88671300"><ele>1144.642944</ele><time>2010-06-02T08:38:18Z</time></trkpt>
<trkpt lat="44.71483800" lon="5.88664900"><ele>1145.274048</ele><time>2010-06-02T08:38:24Z</time></trkpt>
<trkpt lat="44.71461200" lon="5.88662100"><ele>1147.051025</ele><time>2010-06-02T08:38:33Z</time></trkpt>
<trkpt lat="44.71443200" lon="5.88657300"><ele>1148.452026</ele><time>2010-06-02T08:38:41Z</time></trkpt>
<trkpt lat="44.71428100" lon="5.88647400"><ele>1149.508057</ele><time>2010-06-02T08:38:48Z</time></trkpt>
<trkpt lat="44.71407400" lon="5.88626700"><ele>1151.130981</ele><time>2010-06-02T08:38:58Z</time></trkpt>
<trkpt lat="44.71391000" lon="5.88609400"><ele>1152.484985</ele><time>2010-06-02T08:39:07Z</time></trkpt>
<trkpt lat="44.71377500" lon="5.88595300"><ele>1153.624023</ele><time>2010-06-02T08:39:14Z</time></trkpt>
<trkpt lat="44.71364600" lon="5.88586400"><ele>1154.542969</ele><time>2010-06-02T08:39:21Z</time></trkpt>
<trkpt lat="44.71358300" lon="5.88599400"><ele>1155.04895</ele><time>2010-06-02T08:39:26Z</time></trkpt>
<trkpt lat="44.71360200" lon="5.88608600"><ele>1155.327026</ele><time>2010-06-02T08:39:29Z</time></trkpt>
<trkpt lat="44.71371700" lon="5.88634200"><ele>1156.68396</ele><time>2010-06-02T08:39:38Z</time></trkpt>
<trkpt lat="44.71378800" lon="5.88649000"><ele>1158.125</ele><time>2010-06-02T08:39:44Z</time></trkpt>
<trkpt lat="44.71387600" lon="5.88665200"><ele>1159.562988</ele><time>2010-06-02T08:39:51Z</time></trkpt>
<trkpt lat="44.71397300" lon="5.88686200"><ele>1160.918945</ele><time>2010-06-02T08:39:59Z</time></trkpt>
<trkpt lat="44.71405000" lon="5.88708100"><ele>1162.171021</ele><time>2010-06-02T08:40:07Z</time></trkpt>
<trkpt lat="44.71408200" lon="5.88723000"><ele>1163.020996</ele><time>2010-06-02T08:40:12Z</time></trkpt>
<trkpt lat="44.71415400" lon="5.88744300"><ele>1164.595947</ele><time>2010-06-02T08:40:20Z</time></trkpt>
<trkpt lat="44.71420600" lon="5.88760000"><ele>1165.487061</ele><time>2010-06-02T08:40:26Z</time></trkpt>
<trkpt lat="44.71427100" lon="5.88777700"><ele>1166.265015</ele><time>2010-06-02T08:40:33Z</time></trkpt>
<trkpt lat="44.71432400" lon="5.88793800"><ele>1167.472046</ele><time>2010-06-02T08:40:39Z</time></trkpt>
<trkpt lat="44.71443600" lon="5.88821500"><ele>1168.605957</ele><time>2010-06-02T08:40:49Z</time></trkpt>
<trkpt lat="44.71445600" lon="5.88842700"><ele>1168.727051</ele><time>2010-06-02T08:40:56Z</time></trkpt>
<trkpt lat="44.71447700" lon="5.88858400"><ele>1169.384033</ele><time>2010-06-02T08:41:02Z</time></trkpt>
<trkpt lat="44.71447800" lon="5.88871800"><ele>1170.010986</ele><time>2010-06-02T08:41:07Z</time></trkpt>
<trkpt lat="44.71448000" lon="5.88889400"><ele>1171.387939</ele><time>2010-06-02T08:41:14Z</time></trkpt>
<trkpt lat="44.71447600" lon="5.88901700"><ele>1172.218018</ele><time>2010-06-02T08:41:19Z</time></trkpt>
<trkpt lat="44.71446800" lon="5.88916800"><ele>1173.238037</ele><time>2010-06-02T08:41:25Z</time></trkpt>
<trkpt lat="44.71441500" lon="5.88931300"><ele>1174.20105</ele><time>2010-06-02T08:41:31Z</time></trkpt>
<trkpt lat="44.71434700" lon="5.88949200"><ele>1175.246948</ele><time>2010-06-02T08:41:37Z</time></trkpt>
<trkpt lat="44.71423800" lon="5.88968100"><ele>1176.392944</ele><time>2010-06-02T08:41:45Z</time></trkpt>
<trkpt lat="44.71412300" lon="5.88987800"><ele>1177.379028</ele><time>2010-06-02T08:41:53Z</time></trkpt>
<trkpt lat="44.71405000" lon="5.89007400"><ele>1178.131958</ele><time>2010-06-02T08:42:00Z</time></trkpt>
<trkpt lat="44.71395900" lon="5.89029800"><ele>1179.660034</ele><time>2010-06-02T08:42:09Z</time></trkpt>
<trkpt lat="44.71393400" lon="5.89036500"><ele>1180.124023</ele><time>2010-06-02T08:42:12Z</time></trkpt>
<trkpt lat="44.71386300" lon="5.89048600"><ele>1181.344971</ele><time>2010-06-02T08:42:18Z</time></trkpt>
<trkpt lat="44.71374200" lon="5.89059100"><ele>1182.814941</ele><time>2010-06-02T08:42:26Z</time></trkpt>
<trkpt lat="44.71361300" lon="5.89060400"><ele>1184.157959</ele><time>2010-06-02T08:42:33Z</time></trkpt>
<trkpt lat="44.71339900" lon="5.89058100"><ele>1184.979004</ele><time>2010-06-02T08:42:43Z</time></trkpt>
<trkpt lat="44.71317600" lon="5.89061900"><ele>1186.02002</ele><time>2010-06-02T08:42:53Z</time></trkpt>
<trkpt lat="44.71305600" lon="5.89066900"><ele>1186.983032</ele><time>2010-06-02T08:42:59Z</time></trkpt>
<trkpt lat="44.71290800" lon="5.89072500"><ele>1188.81897</ele><time>2010-06-02T08:43:07Z</time></trkpt>
<trkpt lat="44.71279400" lon="5.89077300"><ele>1189.469971</ele><time>2010-06-02T08:43:13Z</time></trkpt>
<trkpt lat="44.71266700" lon="5.89088200"><ele>1190.906982</ele><time>2010-06-02T08:43:20Z</time></trkpt>
<trkpt lat="44.71263500" lon="5.89092000"><ele>1191.145996</ele><time>2010-06-02T08:43:22Z</time></trkpt>
<trkpt lat="44.71253000" lon="5.89104600"><ele>1192.340942</ele><time>2010-06-02T08:43:29Z</time></trkpt>
<trkpt lat="44.71239900" lon="5.89111500"><ele>1193.612061</ele><time>2010-06-02T08:43:36Z</time></trkpt>
<trkpt lat="44.71220600" lon="5.89109300"><ele>1195.364014</ele><time>2010-06-02T08:43:45Z</time></trkpt>
<trkpt lat="44.71203600" lon="5.89112100"><ele>1196.28894</ele><time>2010-06-02T08:43:53Z</time></trkpt>
<trkpt lat="44.71185000" lon="5.89118200"><ele>1198.584961</ele><time>2010-06-02T08:44:02Z</time></trkpt>
<trkpt lat="44.71167900" lon="5.89119600"><ele>1199.713013</ele><time>2010-06-02T08:44:10Z</time></trkpt>
<trkpt lat="44.71151500" lon="5.89123100"><ele>1201.442017</ele><time>2010-06-02T08:44:18Z</time></trkpt>
<trkpt lat="44.71133200" lon="5.89134500"><ele>1202.764038</ele><time>2010-06-02T08:44:27Z</time></trkpt>
<trkpt lat="44.71116400" lon="5.89142800"><ele>1203.646973</ele><time>2010-06-02T08:44:35Z</time></trkpt>
<trkpt lat="44.71108500" lon="5.89151300"><ele>1204.494995</ele><time>2010-06-02T08:44:40Z</time></trkpt>
<trkpt lat="44.71102400" lon="5.89153800"><ele>1205.276001</ele><time>2010-06-02T08:44:45Z</time></trkpt>
<trkpt lat="44.71102500" lon="5.89153700"><ele>1205.381958</ele><time>2010-06-02T08:44:46Z</time></trkpt>
<trkpt lat="44.71099900" lon="5.89157400"><ele>1205.255005</ele><time>2010-06-02T08:47:13Z</time></trkpt>
<trkpt lat="44.71099900" lon="5.89157200"><ele>1205.290039</ele><time>2010-06-02T08:47:14Z</time></trkpt>
<trkpt lat="44.71099900" lon="5.89151000"><ele>1205.150024</ele><time>2010-06-02T08:48:58Z</time></trkpt>
<trkpt lat="44.71099400" lon="5.89151000"><ele>1205.159058</ele><time>2010-06-02T08:48:59Z</time></trkpt>
<trkpt lat="44.71099100" lon="5.89151200"><ele>1204.915039</ele><time>2010-06-02T08:49:00Z</time></trkpt>
<trkpt lat="44.71082400" lon="5.89148100"><ele>1205.698975</ele><time>2010-06-02T08:49:23Z</time></trkpt>
<trkpt lat="44.71068400" lon="5.89144900"><ele>1207.376953</ele><time>2010-06-02T08:49:30Z</time></trkpt>
<trkpt lat="44.71050500" lon="5.89138900"><ele>1208.694946</ele><time>2010-06-02T08:49:39Z</time></trkpt>
<trkpt lat="44.71035400" lon="5.89133000"><ele>1210.588989</ele><time>2010-06-02T08:49:47Z</time></trkpt>
<trkpt lat="44.71022400" lon="5.89130100"><ele>1211.807983</ele><time>2010-06-02T08:49:54Z</time></trkpt>
<trkpt lat="44.71004300" lon="5.89130200"><ele>1213.19104</ele><time>2010-06-02T08:50:03Z</time></trkpt>
<trkpt lat="44.70985600" lon="5.89128300"><ele>1215.036987</ele><time>2010-06-02T08:50:12Z</time></trkpt>
<trkpt lat="44.70968700" lon="5.89125500"><ele>1215.85498</ele><time>2010-06-02T08:50:19Z</time></trkpt>
<trkpt lat="44.70947000" lon="5.89119900"><ele>1217.203003</ele><time>2010-06-02T08:50:28Z</time></trkpt>
<trkpt lat="44.70924000" lon="5.89115000"><ele>1218.807007</ele><time>2010-06-02T08:50:38Z</time></trkpt>
<trkpt lat="44.70906600" lon="5.89110000"><ele>1220.170044</ele><time>2010-06-02T08:50:46Z</time></trkpt>
<trkpt lat="44.70886000" lon="5.89104400"><ele>1222.244995</ele><time>2010-06-02T08:50:55Z</time></trkpt>
<trkpt lat="44.70864900" lon="5.89096500"><ele>1224.354004</ele><time>2010-06-02T08:51:04Z</time></trkpt>
<trkpt lat="44.70849600" lon="5.89082700"><ele>1225.348999</ele><time>2010-06-02T08:51:11Z</time></trkpt>
<trkpt lat="44.70832400" lon="5.89060200"><ele>1226.999023</ele><time>2010-06-02T08:51:20Z</time></trkpt>
<trkpt lat="44.70819500" lon="5.89039100"><ele>1228.151978</ele><time>2010-06-02T08:51:28Z</time></trkpt>
<trkpt lat="44.70804100" lon="5.89020200"><ele>1229.562012</ele><time>2010-06-02T08:51:36Z</time></trkpt>
<trkpt lat="44.70790700" lon="5.89004900"><ele>1230.551025</ele><time>2010-06-02T08:51:43Z</time></trkpt>
<trkpt lat="44.70776300" lon="5.88992800"><ele>1231.302979</ele><time>2010-06-02T08:51:50Z</time></trkpt>
<trkpt lat="44.70755300" lon="5.88977300"><ele>1232.831055</ele><time>2010-06-02T08:52:00Z</time></trkpt>
<trkpt lat="44.70737200" lon="5.88970600"><ele>1234.43103</ele><time>2010-06-02T08:52:08Z</time></trkpt>
<trkpt lat="44.70716500" lon="5.88965800"><ele>1236.249023</ele><time>2010-06-02T08:52:17Z</time></trkpt>
<trkpt lat="44.70698600" lon="5.88955600"><ele>1237.912964</ele><time>2010-06-02T08:52:25Z</time></trkpt>
<trkpt lat="44.70687100" lon="5.88940600"><ele>1238.807983</ele><time>2010-06-02T08:52:31Z</time></trkpt>
<trkpt lat="44.70671400" lon="5.88920800"><ele>1239.975952</ele><time>2010-06-02T08:52:39Z</time></trkpt>
<trkpt lat="44.70651600" lon="5.88896500"><ele>1241.196045</ele><time>2010-06-02T08:52:49Z</time></trkpt>
<trkpt lat="44.70643000" lon="5.88867400"><ele>1241.873047</ele><time>2010-06-02T08:52:57Z</time></trkpt>
<trkpt lat="44.70636300" lon="5.88832600"><ele>1242.261963</ele><time>2010-06-02T08:53:05Z</time></trkpt>
<trkpt lat="44.70628300" lon="5.88809300"><ele>1242.310059</ele><time>2010-06-02T08:53:10Z</time></trkpt>
<trkpt lat="44.70619600" lon="5.88796700"><ele>1242.331055</ele><time>2010-06-02T08:53:13Z</time></trkpt>
<trkpt lat="44.70594700" lon="5.88778000"><ele>1242.583008</ele><time>2010-06-02T08:53:20Z</time></trkpt>
<trkpt lat="44.70577100" lon="5.88770200"><ele>1242.625</ele><time>2010-06-02T08:53:25Z</time></trkpt>
<trkpt lat="44.70568500" lon="5.88755700"><ele>1242.387939</ele><time>2010-06-02T08:53:29Z</time></trkpt>
<trkpt lat="44.70564800" lon="5.88745200"><ele>1242.272949</ele><time>2010-06-02T08:53:31Z</time></trkpt>
<trkpt lat="44.70561600" lon="5.88733100"><ele>1242.499023</ele><time>2010-06-02T08:53:33Z</time></trkpt>
<trkpt lat="44.70548500" lon="5.88704500"><ele>1242.859985</ele><time>2010-06-02T08:53:38Z</time></trkpt>
<trkpt lat="44.70522500" lon="5.88676900"><ele>1243.136963</ele><time>2010-06-02T08:53:44Z</time></trkpt>
<trkpt lat="44.70508500" lon="5.88651200"><ele>1243.453979</ele><time>2010-06-02T08:53:48Z</time></trkpt>
<trkpt lat="44.70486100" lon="5.88603200"><ele>1243.31897</ele><time>2010-06-02T08:53:55Z</time></trkpt>
<trkpt lat="44.70477700" lon="5.88592200"><ele>1243.385986</ele><time>2010-06-02T08:53:57Z</time></trkpt>
<trkpt lat="44.70462500" lon="5.88556600"><ele>1243.718994</ele><time>2010-06-02T08:54:02Z</time></trkpt>
<trkpt lat="44.70445700" lon="5.88509400"><ele>1243.593994</ele><time>2010-06-02T08:54:08Z</time></trkpt>
<trkpt lat="44.70411600" lon="5.88466900"><ele>1243.938965</ele><time>2010-06-02T08:54:15Z</time></trkpt>
<trkpt lat="44.70372300" lon="5.88434800"><ele>1244.185059</ele><time>2010-06-02T08:54:22Z</time></trkpt>
<trkpt lat="44.70324900" lon="5.88413000"><ele>1244.744995</ele><time>2010-06-02T08:54:30Z</time></trkpt>
<trkpt lat="44.70286500" lon="5.88394700"><ele>1245.746948</ele><time>2010-06-02T08:54:37Z</time></trkpt>
<trkpt lat="44.70233900" lon="5.88367500"><ele>1246.069946</ele><time>2010-06-02T08:54:47Z</time></trkpt>
<trkpt lat="44.70194200" lon="5.88355100"><ele>1247.392944</ele><time>2010-06-02T08:54:55Z</time></trkpt>
<trkpt lat="44.70151400" lon="5.88345400"><ele>1248.564941</ele><time>2010-06-02T08:55:04Z</time></trkpt>
<trkpt lat="44.70114400" lon="5.88335600"><ele>1249.60498</ele><time>2010-06-02T08:55:13Z</time></trkpt>
<trkpt lat="44.70075000" lon="5.88320400"><ele>1250.251953</ele><time>2010-06-02T08:55:22Z</time></trkpt>
<trkpt lat="44.70044100" lon="5.88306800"><ele>1250.741943</ele><time>2010-06-02T08:55:29Z</time></trkpt>
<trkpt lat="44.70014600" lon="5.88284500"><ele>1250.995972</ele><time>2010-06-02T08:55:36Z</time></trkpt>
<trkpt lat="44.69983200" lon="5.88261600"><ele>1251.245972</ele><time>2010-06-02T08:55:43Z</time></trkpt>
<trkpt lat="44.69942200" lon="5.88237100"><ele>1251.965942</ele><time>2010-06-02T08:55:52Z</time></trkpt>
<trkpt lat="44.69898600" lon="5.88211400"><ele>1252.449951</ele><time>2010-06-02T08:56:01Z</time></trkpt>
<trkpt lat="44.69845700" lon="5.88172200"><ele>1253.516968</ele><time>2010-06-02T08:56:12Z</time></trkpt>
<trkpt lat="44.69805900" lon="5.88141000"><ele>1254.185059</ele><time>2010-06-02T08:56:20Z</time></trkpt>
<trkpt lat="44.69757400" lon="5.88115600"><ele>1255.244995</ele><time>2010-06-02T08:56:29Z</time></trkpt>
<trkpt lat="44.69702200" lon="5.88101400"><ele>1255.963989</ele><time>2010-06-02T08:56:39Z</time></trkpt>
<trkpt lat="44.69696900" lon="5.88099900"><ele>1256.045044</ele><time>2010-06-02T08:56:40Z</time></trkpt>
<trkpt lat="44.69647800" lon="5.88091600"><ele>1257.04895</ele><time>2010-06-02T08:56:50Z</time></trkpt>
<trkpt lat="44.69608100" lon="5.88092100"><ele>1257.06897</ele><time>2010-06-02T08:56:58Z</time></trkpt>
<trkpt lat="44.69566900" lon="5.88093300"><ele>1258.615967</ele><time>2010-06-02T08:57:07Z</time></trkpt>
<trkpt lat="44.69546200" lon="5.88093100"><ele>1259.645996</ele><time>2010-06-02T08:57:13Z</time></trkpt>
<trkpt lat="44.69516300" lon="5.88090800"><ele>1260.119019</ele><time>2010-06-02T08:57:22Z</time></trkpt>
<trkpt lat="44.69493600" lon="5.88092300"><ele>1260.915039</ele><time>2010-06-02T08:57:29Z</time></trkpt>
<trkpt lat="44.69488700" lon="5.88108800"><ele>1261.161987</ele><time>2010-06-02T08:57:33Z</time></trkpt>
<trkpt lat="44.69495200" lon="5.88132800"><ele>1261.272949</ele><time>2010-06-02T08:57:38Z</time></trkpt>
<trkpt lat="44.69514300" lon="5.88173900"><ele>1262.142944</ele><time>2010-06-02T08:57:48Z</time></trkpt>
<trkpt lat="44.69527100" lon="5.88201600"><ele>1262.709961</ele><time>2010-06-02T08:57:55Z</time></trkpt>
<trkpt lat="44.69542700" lon="5.88214000"><ele>1263.642944</ele><time>2010-06-02T08:58:01Z</time></trkpt>
<trkpt lat="44.69557600" lon="5.88220600"><ele>1264.329956</ele><time>2010-06-02T08:58:06Z</time></trkpt>
<trkpt lat="44.69555900" lon="5.88236000"><ele>1264.786011</ele><time>2010-06-02T08:58:11Z</time></trkpt>
<trkpt lat="44.69548500" lon="5.88236800"><ele>1265.250977</ele><time>2010-06-02T08:58:14Z</time></trkpt>
<trkpt lat="44.69529400" lon="5.88229500"><ele>1266.078003</ele><time>2010-06-02T08:58:22Z</time></trkpt>
<trkpt lat="44.69506700" lon="5.88230200"><ele>1267.234985</ele><time>2010-06-02T08:58:31Z</time></trkpt>
<trkpt lat="44.69490100" lon="5.88229100"><ele>1268.916016</ele><time>2010-06-02T08:58:38Z</time></trkpt>
<trkpt lat="44.69475900" lon="5.88225500"><ele>1269.629028</ele><time>2010-06-02T08:58:44Z</time></trkpt>
<trkpt lat="44.69454200" lon="5.88216100"><ele>1271.024048</ele><time>2010-06-02T08:58:53Z</time></trkpt>
<trkpt lat="44.69433900" lon="5.88204400"><ele>1273.19104</ele><time>2010-06-02T08:59:01Z</time></trkpt>
<trkpt lat="44.69413200" lon="5.88184500"><ele>1274.266968</ele><time>2010-06-02T08:59:10Z</time></trkpt>
<trkpt lat="44.69390900" lon="5.88170900"><ele>1274.912964</ele><time>2010-06-02T08:59:18Z</time></trkpt>
<trkpt lat="44.69364700" lon="5.88156100"><ele>1275.567993</ele><time>2010-06-02T08:59:27Z</time></trkpt>
<trkpt lat="44.69342200" lon="5.88141600"><ele>1275.614014</ele><time>2010-06-02T08:59:34Z</time></trkpt>
<trkpt lat="44.69335000" lon="5.88136400"><ele>1275.630981</ele><time>2010-06-02T08:59:36Z</time></trkpt>
<trkpt lat="44.69305600" lon="5.88112000"><ele>1275.78894</ele><time>2010-06-02T08:59:44Z</time></trkpt>
<trkpt lat="44.69273100" lon="5.88085200"><ele>1275.522949</ele><time>2010-06-02T08:59:52Z</time></trkpt>
<trkpt lat="44.69242300" lon="5.88051400"><ele>1275.465942</ele><time>2010-06-02T08:59:59Z</time></trkpt>
<trkpt lat="44.69209400" lon="5.88012200"><ele>1275.28894</ele><time>2010-06-02T09:00:06Z</time></trkpt>
<trkpt lat="44.69170600" lon="5.87970400"><ele>1275.704956</ele><time>2010-06-02T09:00:13Z</time></trkpt>
<trkpt lat="44.69117500" lon="5.87920200"><ele>1276.509033</ele><time>2010-06-02T09:00:22Z</time></trkpt>
<trkpt lat="44.69085800" lon="5.87897000"><ele>1277.703003</ele><time>2010-06-02T09:00:28Z</time></trkpt>
<trkpt lat="44.69057200" lon="5.87875200"><ele>1279.110962</ele><time>2010-06-02T09:00:35Z</time></trkpt>
<trkpt lat="44.69035900" lon="5.87858600"><ele>1280.141968</ele><time>2010-06-02T09:00:42Z</time></trkpt>
<trkpt lat="44.69017000" lon="5.87842000"><ele>1281.689941</ele><time>2010-06-02T09:00:49Z</time></trkpt>
<trkpt lat="44.68994900" lon="5.87824600"><ele>1282.968018</ele><time>2010-06-02T09:00:57Z</time></trkpt>
<trkpt lat="44.68978100" lon="5.87809900"><ele>1283.801025</ele><time>2010-06-02T09:01:03Z</time></trkpt>
<trkpt lat="44.68953100" lon="5.87790800"><ele>1285.265015</ele><time>2010-06-02T09:01:12Z</time></trkpt>
<trkpt lat="44.68930400" lon="5.87773600"><ele>1286.621948</ele><time>2010-06-02T09:01:21Z</time></trkpt>
<trkpt lat="44.68907200" lon="5.87760200"><ele>1287.881958</ele><time>2010-06-02T09:01:30Z</time></trkpt>
<trkpt lat="44.68887300" lon="5.87750500"><ele>1289.130005</ele><time>2010-06-02T09:01:37Z</time></trkpt>
<trkpt lat="44.68864200" lon="5.87745400"><ele>1290.098999</ele><time>2010-06-02T09:01:45Z</time></trkpt>
<trkpt lat="44.68845100" lon="5.87740900"><ele>1291.348022</ele><time>2010-06-02T09:01:52Z</time></trkpt>
<trkpt lat="44.68827800" lon="5.87732600"><ele>1292.666016</ele><time>2010-06-02T09:01:59Z</time></trkpt>
<trkpt lat="44.68806000" lon="5.87719300"><ele>1294.083984</ele><time>2010-06-02T09:02:08Z</time></trkpt>
<trkpt lat="44.68785700" lon="5.87700700"><ele>1295.624023</ele><time>2010-06-02T09:02:17Z</time></trkpt>
<trkpt lat="44.68766900" lon="5.87684000"><ele>1295.973022</ele><time>2010-06-02T09:02:24Z</time></trkpt>
<trkpt lat="44.68750600" lon="5.87666500"><ele>1295.770996</ele><time>2010-06-02T09:02:29Z</time></trkpt>
<trkpt lat="44.68731000" lon="5.87649100"><ele>1295.661011</ele><time>2010-06-02T09:02:34Z</time></trkpt>
<trkpt lat="44.68707500" lon="5.87633500"><ele>1295.588989</ele><time>2010-06-02T09:02:39Z</time></trkpt>
<trkpt lat="44.68697700" lon="5.87627000"><ele>1295.745972</ele><time>2010-06-02T09:02:41Z</time></trkpt>
<trkpt lat="44.68652600" lon="5.87602300"><ele>1296.619019</ele><time>2010-06-02T09:02:50Z</time></trkpt>
<trkpt lat="44.68638200" lon="5.87593500"><ele>1296.883057</ele><time>2010-06-02T09:02:53Z</time></trkpt>
<trkpt lat="44.68628400" lon="5.87587900"><ele>1297.030029</ele><time>2010-06-02T09:02:55Z</time></trkpt>
<trkpt lat="44.68602800" lon="5.87561600"><ele>1297.583008</ele><time>2010-06-02T09:03:01Z</time></trkpt>
<trkpt lat="44.68575700" lon="5.87533000"><ele>1298.863037</ele><time>2010-06-02T09:03:08Z</time></trkpt>
<trkpt lat="44.68568400" lon="5.87526400"><ele>1299.139038</ele><time>2010-06-02T09:03:10Z</time></trkpt>
<trkpt lat="44.68537100" lon="5.87509000"><ele>1300.050049</ele><time>2010-06-02T09:03:18Z</time></trkpt>
<trkpt lat="44.68502700" lon="5.87492400"><ele>1301.213989</ele><time>2010-06-02T09:03:27Z</time></trkpt>
<trkpt lat="44.68498700" lon="5.87491000"><ele>1301.338989</ele><time>2010-06-02T09:03:28Z</time></trkpt>
<trkpt lat="44.68464400" lon="5.87473600"><ele>1302.56604</ele><time>2010-06-02T09:03:37Z</time></trkpt>
<trkpt lat="44.68433200" lon="5.87459100"><ele>1303.842041</ele><time>2010-06-02T09:03:46Z</time></trkpt>
<trkpt lat="44.68407900" lon="5.87446800"><ele>1305.531006</ele><time>2010-06-02T09:03:55Z</time></trkpt>
<trkpt lat="44.68385600" lon="5.87436600"><ele>1306.607056</ele><time>2010-06-02T09:04:03Z</time></trkpt>
<trkpt lat="44.68364700" lon="5.87420800"><ele>1307.302979</ele><time>2010-06-02T09:04:11Z</time></trkpt>
<trkpt lat="44.68343100" lon="5.87402800"><ele>1308.838989</ele><time>2010-06-02T09:04:20Z</time></trkpt>
<trkpt lat="44.68328200" lon="5.87394600"><ele>1310.197998</ele><time>2010-06-02T09:04:27Z</time></trkpt>
<trkpt lat="44.68304900" lon="5.87388700"><ele>1311.359985</ele><time>2010-06-02T09:04:36Z</time></trkpt>
<trkpt lat="44.68279500" lon="5.87377600"><ele>1311.649048</ele><time>2010-06-02T09:04:45Z</time></trkpt>
<trkpt lat="44.68261000" lon="5.87357700"><ele>1312.567017</ele><time>2010-06-02T09:04:52Z</time></trkpt>
<trkpt lat="44.68243200" lon="5.87327300"><ele>1313.637939</ele><time>2010-06-02T09:05:00Z</time></trkpt>
<trkpt lat="44.68225300" lon="5.87302000"><ele>1313.704956</ele><time>2010-06-02T09:05:07Z</time></trkpt>
<trkpt lat="44.68204900" lon="5.87285800"><ele>1315.027954</ele><time>2010-06-02T09:05:14Z</time></trkpt>
<trkpt lat="44.68183300" lon="5.87271300"><ele>1315.993042</ele><time>2010-06-02T09:05:21Z</time></trkpt>
<trkpt lat="44.68160900" lon="5.87257700"><ele>1317.088989</ele><time>2010-06-02T09:05:28Z</time></trkpt>
<trkpt lat="44.68137200" lon="5.87242100"><ele>1318.229004</ele><time>2010-06-02T09:05:36Z</time></trkpt>
<trkpt lat="44.68116300" lon="5.87228800"><ele>1319.531006</ele><time>2010-06-02T09:05:44Z</time></trkpt>
<trkpt lat="44.68100800" lon="5.87215100"><ele>1320.359009</ele><time>2010-06-02T09:05:51Z</time></trkpt>
<trkpt lat="44.68082200" lon="5.87199900"><ele>1321.494019</ele><time>2010-06-02T09:05:59Z</time></trkpt>
<trkpt lat="44.68062800" lon="5.87182000"><ele>1323.300049</ele><time>2010-06-02T09:06:08Z</time></trkpt>
<trkpt lat="44.68044900" lon="5.87167300"><ele>1324.595947</ele><time>2010-06-02T09:06:16Z</time></trkpt>
<trkpt lat="44.68027500" lon="5.87154400"><ele>1326.145996</ele><time>2010-06-02T09:06:24Z</time></trkpt>
<trkpt lat="44.68013200" lon="5.87142000"><ele>1327.139038</ele><time>2010-06-02T09:06:31Z</time></trkpt>
<trkpt lat="44.67991700" lon="5.87124600"><ele>1328.689941</ele><time>2010-06-02T09:06:41Z</time></trkpt>
<trkpt lat="44.67971400" lon="5.87108800"><ele>1330.073975</ele><time>2010-06-02T09:06:50Z</time></trkpt>
<trkpt lat="44.67961900" lon="5.87096900"><ele>1331.074951</ele><time>2010-06-02T09:06:56Z</time></trkpt>
<trkpt lat="44.67951400" lon="5.87082800"><ele>1332.666992</ele><time>2010-06-02T09:07:03Z</time></trkpt>
<trkpt lat="44.67941100" lon="5.87066700"><ele>1333.409058</ele><time>2010-06-02T09:07:10Z</time></trkpt>
<trkpt lat="44.67933200" lon="5.87055300"><ele>1334.187012</ele><time>2010-06-02T09:07:15Z</time></trkpt>
<trkpt lat="44.67923600" lon="5.87038000"><ele>1335.234985</ele><time>2010-06-02T09:07:22Z</time></trkpt>
<trkpt lat="44.67914200" lon="5.87030800"><ele>1335.881958</ele><time>2010-06-02T09:07:27Z</time></trkpt>
<trkpt lat="44.67900700" lon="5.87033500"><ele>1336.918945</ele><time>2010-06-02T09:07:33Z</time></trkpt>
<trkpt lat="44.67883300" lon="5.87051500"><ele>1338.062988</ele><time>2010-06-02T09:07:43Z</time></trkpt>
<trkpt lat="44.67879500" lon="5.87055800"><ele>1338.203003</ele><time>2010-06-02T09:07:46Z</time></trkpt>
<trkpt lat="44.67873300" lon="5.87051800"><ele>1338.311035</ele><time>2010-06-02T09:07:52Z</time></trkpt>
<trkpt lat="44.67872900" lon="5.87051500"><ele>1338.051025</ele><time>2010-06-02T09:07:55Z</time></trkpt>
<trkpt lat="44.67872200" lon="5.87049700"><ele>1338.141968</ele><time>2010-06-02T09:08:03Z</time></trkpt>
<trkpt lat="44.67869800" lon="5.87054900"><ele>1337.363037</ele><time>2010-06-02T09:10:49Z</time></trkpt>
<trkpt lat="44.67869600" lon="5.87054900"><ele>1337.459961</ele><time>2010-06-02T09:10:50Z</time></trkpt>
<trkpt lat="44.67863900" lon="5.87053800"><ele>1336.775024</ele><time>2010-06-02T09:11:06Z</time></trkpt>
<trkpt lat="44.67855700" lon="5.87044400"><ele>1337.293945</ele><time>2010-06-02T09:11:11Z</time></trkpt>
<trkpt lat="44.67840300" lon="5.87028400"><ele>1337.71106</ele><time>2010-06-02T09:11:18Z</time></trkpt>
<trkpt lat="44.67822700" lon="5.87014900"><ele>1338.616943</ele><time>2010-06-02T09:11:25Z</time></trkpt>
<trkpt lat="44.67799500" lon="5.86994000"><ele>1340.667969</ele><time>2010-06-02T09:11:34Z</time></trkpt>
<trkpt lat="44.67785000" lon="5.86981200"><ele>1341.753052</ele><time>2010-06-02T09:11:40Z</time></trkpt>
<trkpt lat="44.67772500" lon="5.86967100"><ele>1343.171021</ele><time>2010-06-02T09:11:46Z</time></trkpt>
<trkpt lat="44.67758200" lon="5.86952400"><ele>1344.360962</ele><time>2010-06-02T09:11:53Z</time></trkpt>
<trkpt lat="44.67743000" lon="5.86934600"><ele>1345.426025</ele><time>2010-06-02T09:12:01Z</time></trkpt>
<trkpt lat="44.67725900" lon="5.86907500"><ele>1347.125</ele><time>2010-06-02T09:12:11Z</time></trkpt>
<trkpt lat="44.67715800" lon="5.86888100"><ele>1348.578979</ele><time>2010-06-02T09:12:18Z</time></trkpt>
<trkpt lat="44.67704800" lon="5.86863600"><ele>1349.910034</ele><time>2010-06-02T09:12:26Z</time></trkpt>
<trkpt lat="44.67695900" lon="5.86842400"><ele>1351.57605</ele><time>2010-06-02T09:12:33Z</time></trkpt>
<trkpt lat="44.67684600" lon="5.86816900"><ele>1352.947998</ele><time>2010-06-02T09:12:42Z</time></trkpt>
<trkpt lat="44.67673700" lon="5.86793600"><ele>1354.052979</ele><time>2010-06-02T09:12:50Z</time></trkpt>
<trkpt lat="44.67666100" lon="5.86773700"><ele>1355.170044</ele><time>2010-06-02T09:12:56Z</time></trkpt>
<trkpt lat="44.67651900" lon="5.86746400"><ele>1356.541016</ele><time>2010-06-02T09:13:05Z</time></trkpt>
<trkpt lat="44.67637700" lon="5.86727700"><ele>1357.69397</ele><time>2010-06-02T09:13:13Z</time></trkpt>
<trkpt lat="44.67621000" lon="5.86718500"><ele>1359.266968</ele><time>2010-06-02T09:13:21Z</time></trkpt>
<trkpt lat="44.67603100" lon="5.86720900"><ele>1360.776978</ele><time>2010-06-02T09:13:29Z</time></trkpt>
<trkpt lat="44.67581700" lon="5.86730400"><ele>1362.010986</ele><time>2010-06-02T09:13:39Z</time></trkpt>
<trkpt lat="44.67567100" lon="5.86736100"><ele>1362.762939</ele><time>2010-06-02T09:13:45Z</time></trkpt>
<trkpt lat="44.67543000" lon="5.86746800"><ele>1365.04895</ele><time>2010-06-02T09:13:55Z</time></trkpt>
<trkpt lat="44.67519900" lon="5.86753500"><ele>1366.140991</ele><time>2010-06-02T09:14:04Z</time></trkpt>
<trkpt lat="44.67487300" lon="5.86758100"><ele>1367.758057</ele><time>2010-06-02T09:14:16Z</time></trkpt>
<trkpt lat="44.67456000" lon="5.86758800"><ele>1369.95105</ele><time>2010-06-02T09:14:28Z</time></trkpt>
<trkpt lat="44.67422200" lon="5.86754400"><ele>1371.88501</ele><time>2010-06-02T09:14:41Z</time></trkpt>
<trkpt lat="44.67403700" lon="5.86749400"><ele>1373.261963</ele><time>2010-06-02T09:14:48Z</time></trkpt>
<trkpt lat="44.67388600" lon="5.86740400"><ele>1374.85498</ele><time>2010-06-02T09:14:54Z</time></trkpt>
<trkpt lat="44.67360000" lon="5.86725300"><ele>1376.526978</ele><time>2010-06-02T09:15:05Z</time></trkpt>
<trkpt lat="44.67331500" lon="5.86712600"><ele>1378.479004</ele><time>2010-06-02T09:15:16Z</time></trkpt>
<trkpt lat="44.67309800" lon="5.86706400"><ele>1380.031982</ele><time>2010-06-02T09:15:25Z</time></trkpt>
<trkpt lat="44.67279800" lon="5.86701500"><ele>1381.80603</ele><time>2010-06-02T09:15:37Z</time></trkpt>
<trkpt lat="44.67252000" lon="5.86695100"><ele>1383.427002</ele><time>2010-06-02T09:15:48Z</time></trkpt>
<trkpt lat="44.67221200" lon="5.86682500"><ele>1385.557007</ele><time>2010-06-02T09:16:00Z</time></trkpt>
<trkpt lat="44.67198700" lon="5.86670300"><ele>1387.077026</ele><time>2010-06-02T09:16:09Z</time></trkpt>
<trkpt lat="44.67174700" lon="5.86656400"><ele>1388.561035</ele><time>2010-06-02T09:16:19Z</time></trkpt>
<trkpt lat="44.67148700" lon="5.86634500"><ele>1391.047974</ele><time>2010-06-02T09:16:31Z</time></trkpt>
<trkpt lat="44.67137000" lon="5.86617100"><ele>1392.56604</ele><time>2010-06-02T09:16:39Z</time></trkpt>
<trkpt lat="44.67129500" lon="5.86596400"><ele>1393.964966</ele><time>2010-06-02T09:16:47Z</time></trkpt>
<trkpt lat="44.67121900" lon="5.86575500"><ele>1395.729004</ele><time>2010-06-02T09:16:55Z</time></trkpt>
<trkpt lat="44.67110600" lon="5.86554400"><ele>1397.332031</ele><time>2010-06-02T09:17:04Z</time></trkpt>
<trkpt lat="44.67093200" lon="5.86536900"><ele>1399.319946</ele><time>2010-06-02T09:17:14Z</time></trkpt>
<trkpt lat="44.67077100" lon="5.86528500"><ele>1400.792969</ele><time>2010-06-02T09:17:23Z</time></trkpt>
<trkpt lat="44.67059900" lon="5.86522000"><ele>1402.553955</ele><time>2010-06-02T09:17:32Z</time></trkpt>
<trkpt lat="44.67045700" lon="5.86513800"><ele>1403.652954</ele><time>2010-06-02T09:17:40Z</time></trkpt>
<trkpt lat="44.67032600" lon="5.86500800"><ele>1404.140015</ele><time>2010-06-02T09:17:48Z</time></trkpt>
<trkpt lat="44.67017300" lon="5.86478300"><ele>1405.917969</ele><time>2010-06-02T09:17:59Z</time></trkpt>
<trkpt lat="44.67004900" lon="5.86459700"><ele>1407.134033</ele><time>2010-06-02T09:18:08Z</time></trkpt>
<trkpt lat="44.66992500" lon="5.86443800"><ele>1408.243042</ele><time>2010-06-02T09:18:16Z</time></trkpt>
<trkpt lat="44.66969900" lon="5.86425700"><ele>1410.029053</ele><time>2010-06-02T09:18:28Z</time></trkpt>
<trkpt lat="44.66949000" lon="5.86417500"><ele>1411.137939</ele><time>2010-06-02T09:18:38Z</time></trkpt>
<trkpt lat="44.66934000" lon="5.86415300"><ele>1412.166016</ele><time>2010-06-02T09:18:45Z</time></trkpt>
<trkpt lat="44.66917300" lon="5.86415200"><ele>1413.473999</ele><time>2010-06-02T09:18:53Z</time></trkpt>
<trkpt lat="44.66896800" lon="5.86410100"><ele>1414.878052</ele><time>2010-06-02T09:19:03Z</time></trkpt>
<trkpt lat="44.66878100" lon="5.86402200"><ele>1416.39502</ele><time>2010-06-02T09:19:13Z</time></trkpt>
<trkpt lat="44.66862300" lon="5.86391200"><ele>1418.390015</ele><time>2010-06-02T09:19:22Z</time></trkpt>
<trkpt lat="44.66847900" lon="5.86376200"><ele>1419.947021</ele><time>2010-06-02T09:19:31Z</time></trkpt>
<trkpt lat="44.66832000" lon="5.86354300"><ele>1422.168945</ele><time>2010-06-02T09:19:42Z</time></trkpt>
<trkpt lat="44.66821200" lon="5.86331400"><ele>1423.932007</ele><time>2010-06-02T09:19:52Z</time></trkpt>
<trkpt lat="44.66811600" lon="5.86308500"><ele>1424.880005</ele><time>2010-06-02T09:20:02Z</time></trkpt>
<trkpt lat="44.66807500" lon="5.86296800"><ele>1425.715942</ele><time>2010-06-02T09:20:07Z</time></trkpt>
<trkpt lat="44.66799700" lon="5.86276300"><ele>1427.109985</ele><time>2010-06-02T09:20:16Z</time></trkpt>
<trkpt lat="44.66791600" lon="5.86254300"><ele>1428.363037</ele><time>2010-06-02T09:20:25Z</time></trkpt>
<trkpt lat="44.66783100" lon="5.86231200"><ele>1429.519043</ele><time>2010-06-02T09:20:34Z</time></trkpt>
<trkpt lat="44.66780300" lon="5.86209300"><ele>1432.296021</ele><time>2010-06-02T09:20:42Z</time></trkpt>
<trkpt lat="44.66780900" lon="5.86203600"><ele>1432.998047</ele><time>2010-06-02T09:20:44Z</time></trkpt>
<trkpt lat="44.66785200" lon="5.86186400"><ele>1433.31604</ele><time>2010-06-02T09:20:51Z</time></trkpt>
<trkpt lat="44.66792600" lon="5.86174900"><ele>1433.837036</ele><time>2010-06-02T09:20:57Z</time></trkpt>
<trkpt lat="44.66805200" lon="5.86161300"><ele>1434.459961</ele><time>2010-06-02T09:21:05Z</time></trkpt>
<trkpt lat="44.66814800" lon="5.86147900"><ele>1435.490967</ele><time>2010-06-02T09:21:12Z</time></trkpt>
<trkpt lat="44.66821100" lon="5.86130000"><ele>1436.704956</ele><time>2010-06-02T09:21:19Z</time></trkpt>
<trkpt lat="44.66822500" lon="5.86106300"><ele>1438.412964</ele><time>2010-06-02T09:21:27Z</time></trkpt>
<trkpt lat="44.66823100" lon="5.86083500"><ele>1439.686035</ele><time>2010-06-02T09:21:35Z</time></trkpt>
<trkpt lat="44.66828300" lon="5.86067100"><ele>1440.661011</ele><time>2010-06-02T09:21:42Z</time></trkpt>
<trkpt lat="44.66838500" lon="5.86050700"><ele>1441.639038</ele><time>2010-06-02T09:21:50Z</time></trkpt>
<trkpt lat="44.66843600" lon="5.86032400"><ele>1442.293945</ele><time>2010-06-02T09:21:57Z</time></trkpt>
<trkpt lat="44.66845400" lon="5.86011600"><ele>1442.599976</ele><time>2010-06-02T09:22:04Z</time></trkpt>
<trkpt lat="44.66840000" lon="5.85990300"><ele>1443.230957</ele><time>2010-06-02T09:22:11Z</time></trkpt>
<trkpt lat="44.66828200" lon="5.85967200"><ele>1443.956055</ele><time>2010-06-02T09:22:19Z</time></trkpt>
<trkpt lat="44.66815600" lon="5.85939700"><ele>1444.599976</ele><time>2010-06-02T09:22:27Z</time></trkpt>
<trkpt lat="44.66799500" lon="5.85907300"><ele>1445.457031</ele><time>2010-06-02T09:22:36Z</time></trkpt>
<trkpt lat="44.66781700" lon="5.85870300"><ele>1445.416992</ele><time>2010-06-02T09:22:45Z</time></trkpt>
<trkpt lat="44.66765000" lon="5.85835000"><ele>1446.819946</ele><time>2010-06-02T09:22:53Z</time></trkpt>
<trkpt lat="44.66750800" lon="5.85811500"><ele>1447.904053</ele><time>2010-06-02T09:23:00Z</time></trkpt>
<trkpt lat="44.66733500" lon="5.85797200"><ele>1448.541016</ele><time>2010-06-02T09:23:07Z</time></trkpt>
<trkpt lat="44.66713200" lon="5.85791000"><ele>1448.579956</ele><time>2010-06-02T09:23:14Z</time></trkpt>
<trkpt lat="44.66694600" lon="5.85785500"><ele>1448.970947</ele><time>2010-06-02T09:23:21Z</time></trkpt>
<trkpt lat="44.66677400" lon="5.85780700"><ele>1449.406006</ele><time>2010-06-02T09:23:27Z</time></trkpt>
<trkpt lat="44.66664600" lon="5.85776100"><ele>1449.348022</ele><time>2010-06-02T09:23:32Z</time></trkpt>
<trkpt lat="44.66654400" lon="5.85773700"><ele>1448.887939</ele><time>2010-06-02T09:23:36Z</time></trkpt>
<trkpt lat="44.66650500" lon="5.85784400"><ele>1448.922974</ele><time>2010-06-02T09:23:40Z</time></trkpt>
<trkpt lat="44.66653000" lon="5.85787000"><ele>1449.21106</ele><time>2010-06-02T09:23:42Z</time></trkpt>
<trkpt lat="44.66659100" lon="5.85785100"><ele>1449.185059</ele><time>2010-06-02T09:23:46Z</time></trkpt>
<trkpt lat="44.66656100" lon="5.85776500"><ele>1449.390015</ele><time>2010-06-02T09:23:49Z</time></trkpt>
<trkpt lat="44.66654000" lon="5.85774200"><ele>1449.301025</ele><time>2010-06-02T09:23:50Z</time></trkpt>
<trkpt lat="44.66637900" lon="5.85760700"><ele>1448.802002</ele><time>2010-06-02T09:23:56Z</time></trkpt>
<trkpt lat="44.66622700" lon="5.85733700"><ele>1449.543945</ele><time>2010-06-02T09:24:04Z</time></trkpt>
<trkpt lat="44.66616900" lon="5.85714300"><ele>1449.58606</ele><time>2010-06-02T09:24:10Z</time></trkpt>
<trkpt lat="44.66613000" lon="5.85694700"><ele>1449.625977</ele><time>2010-06-02T09:24:15Z</time></trkpt>
<trkpt lat="44.66611800" lon="5.85667400"><ele>1449.974976</ele><time>2010-06-02T09:24:21Z</time></trkpt>
<trkpt lat="44.66608900" lon="5.85634200"><ele>1449.651978</ele><time>2010-06-02T09:24:28Z</time></trkpt>
<trkpt lat="44.66604100" lon="5.85598900"><ele>1450.519043</ele><time>2010-06-02T09:24:36Z</time></trkpt>
<trkpt lat="44.66592300" lon="5.85577400"><ele>1450.881958</ele><time>2010-06-02T09:24:43Z</time></trkpt>
<trkpt lat="44.66581900" lon="5.85565700"><ele>1451.297974</ele><time>2010-06-02T09:24:50Z</time></trkpt>
<trkpt lat="44.66581600" lon="5.85565400"><ele>1451.519043</ele><time>2010-06-02T09:24:51Z</time></trkpt>
<trkpt lat="44.66573900" lon="5.85564600"><ele>1451.593994</ele><time>2010-06-02T09:26:39Z</time></trkpt>
<trkpt lat="44.66549200" lon="5.85547700"><ele>1451.328003</ele><time>2010-06-02T09:26:48Z</time></trkpt>
<trkpt lat="44.66525600" lon="5.85531900"><ele>1450.73999</ele><time>2010-06-02T09:26:54Z</time></trkpt>
<trkpt lat="44.66498600" lon="5.85513400"><ele>1449.647949</ele><time>2010-06-02T09:26:59Z</time></trkpt>
<trkpt lat="44.66462000" lon="5.85488000"><ele>1447.781006</ele><time>2010-06-02T09:27:04Z</time></trkpt>
<trkpt lat="44.66445300" lon="5.85476500"><ele>1447.040039</ele><time>2010-06-02T09:27:06Z</time></trkpt>
<trkpt lat="44.66411100" lon="5.85453200"><ele>1445.984985</ele><time>2010-06-02T09:27:10Z</time></trkpt>
<trkpt lat="44.66394000" lon="5.85442000"><ele>1445.671021</ele><time>2010-06-02T09:27:12Z</time></trkpt>
<trkpt lat="44.66357300" lon="5.85432700"><ele>1444.984009</ele><time>2010-06-02T09:27:16Z</time></trkpt>
<trkpt lat="44.66295400" lon="5.85437400"><ele>1441.813965</ele><time>2010-06-02T09:27:22Z</time></trkpt>
<trkpt lat="44.66233700" lon="5.85440900"><ele>1438.311035</ele><time>2010-06-02T09:27:27Z</time></trkpt>
<trkpt lat="44.66150000" lon="5.85442100"><ele>1434.452026</ele><time>2010-06-02T09:27:33Z</time></trkpt>
<trkpt lat="44.66066300" lon="5.85440400"><ele>1428.812012</ele><time>2010-06-02T09:27:39Z</time></trkpt>
<trkpt lat="44.66013100" lon="5.85458000"><ele>1425.689941</ele><time>2010-06-02T09:27:43Z</time></trkpt>
<trkpt lat="44.65962400" lon="5.85487400"><ele>1422.436035</ele><time>2010-06-02T09:27:47Z</time></trkpt>
<trkpt lat="44.65910000" lon="5.85500900"><ele>1418.468994</ele><time>2010-06-02T09:27:51Z</time></trkpt>
<trkpt lat="44.65896100" lon="5.85500800"><ele>1417.864014</ele><time>2010-06-02T09:27:52Z</time></trkpt>
<trkpt lat="44.65823200" lon="5.85486000"><ele>1412.593994</ele><time>2010-06-02T09:27:57Z</time></trkpt>
<trkpt lat="44.65730700" lon="5.85469800"><ele>1407.319946</ele><time>2010-06-02T09:28:03Z</time></trkpt>
<trkpt lat="44.65669400" lon="5.85476000"><ele>1402.310059</ele><time>2010-06-02T09:28:07Z</time></trkpt>
<trkpt lat="44.65631800" lon="5.85497600"><ele>1397.875</ele><time>2010-06-02T09:28:11Z</time></trkpt>
<trkpt lat="44.65620600" lon="5.85508900"><ele>1395.567993</ele><time>2010-06-02T09:28:14Z</time></trkpt>
<trkpt lat="44.65619500" lon="5.85510200"><ele>1395.302002</ele><time>2010-06-02T09:28:15Z</time></trkpt>
<trkpt lat="44.65619300" lon="5.85510500"><ele>1394.728027</ele><time>2010-06-02T09:28:17Z</time></trkpt>
<trkpt lat="44.65616700" lon="5.85519100"><ele>1394.953979</ele><time>2010-06-02T09:28:39Z</time></trkpt>
<trkpt lat="44.65607700" lon="5.85532600"><ele>1393.728027</ele><time>2010-06-02T09:28:42Z</time></trkpt>
<trkpt lat="44.65585600" lon="5.85562300"><ele>1391.952026</ele><time>2010-06-02T09:28:46Z</time></trkpt>
<trkpt lat="44.65570800" lon="5.85581000"><ele>1390.651001</ele><time>2010-06-02T09:28:48Z</time></trkpt>
<trkpt lat="44.65529500" lon="5.85610200"><ele>1387.68103</ele><time>2010-06-02T09:28:52Z</time></trkpt>
<trkpt lat="44.65503500" lon="5.85616700"><ele>1385.234009</ele><time>2010-06-02T09:28:54Z</time></trkpt>
<trkpt lat="44.65430900" lon="5.85625700"><ele>1379.873047</ele><time>2010-06-02T09:28:59Z</time></trkpt>
<trkpt lat="44.65357100" lon="5.85642100"><ele>1376.197021</ele><time>2010-06-02T09:29:04Z</time></trkpt>
<trkpt lat="44.65342800" lon="5.85643800"><ele>1375.942017</ele><time>2010-06-02T09:29:05Z</time></trkpt>
<trkpt lat="44.65288000" lon="5.85639500"><ele>1374.94397</ele><time>2010-06-02T09:29:09Z</time></trkpt>
<trkpt lat="44.65238200" lon="5.85619200"><ele>1374.374023</ele><time>2010-06-02T09:29:13Z</time></trkpt>
<trkpt lat="44.65184800" lon="5.85580200"><ele>1373.605957</ele><time>2010-06-02T09:29:18Z</time></trkpt>
<trkpt lat="44.65134300" lon="5.85538300"><ele>1373.081055</ele><time>2010-06-02T09:29:23Z</time></trkpt>
<trkpt lat="44.65072000" lon="5.85488500"><ele>1369.967041</ele><time>2010-06-02T09:29:29Z</time></trkpt>
<trkpt lat="44.65038300" lon="5.85462200"><ele>1367.281982</ele><time>2010-06-02T09:29:32Z</time></trkpt>
<trkpt lat="44.65002000" lon="5.85433700"><ele>1362.745972</ele><time>2010-06-02T09:29:35Z</time></trkpt>
<trkpt lat="44.64934600" lon="5.85384400"><ele>1356.770996</ele><time>2010-06-02T09:29:40Z</time></trkpt>
<trkpt lat="44.64872300" lon="5.85359600"><ele>1352.677979</ele><time>2010-06-02T09:29:44Z</time></trkpt>
<trkpt lat="44.64753600" lon="5.85331600"><ele>1343.022949</ele><time>2010-06-02T09:29:51Z</time></trkpt>
<trkpt lat="44.64629900" lon="5.85296300"><ele>1333.864014</ele><time>2010-06-02T09:29:58Z</time></trkpt>
<trkpt lat="44.64492900" lon="5.85244600"><ele>1324.495972</ele><time>2010-06-02T09:30:06Z</time></trkpt>
<trkpt lat="44.64463500" lon="5.85233200"><ele>1321.036011</ele><time>2010-06-02T09:30:08Z</time></trkpt>
<trkpt lat="44.64410600" lon="5.85195000"><ele>1315.708008</ele><time>2010-06-02T09:30:12Z</time></trkpt>
<trkpt lat="44.64369000" lon="5.85168300"><ele>1313.567017</ele><time>2010-06-02T09:30:15Z</time></trkpt>
<trkpt lat="44.64316000" lon="5.85144900"><ele>1306.853027</ele><time>2010-06-02T09:30:19Z</time></trkpt>
<trkpt lat="44.64294500" lon="5.85135000"><ele>1304.442017</ele><time>2010-06-02T09:30:21Z</time></trkpt>
<trkpt lat="44.64259100" lon="5.85099700"><ele>1299.75</ele><time>2010-06-02T09:30:25Z</time></trkpt>
<trkpt lat="44.64252000" lon="5.85087700"><ele>1298.324951</ele><time>2010-06-02T09:30:26Z</time></trkpt>
<trkpt lat="44.64240300" lon="5.85065300"><ele>1296.129028</ele><time>2010-06-02T09:30:28Z</time></trkpt>
<trkpt lat="44.64221400" lon="5.85048000"><ele>1293.437012</ele><time>2010-06-02T09:30:31Z</time></trkpt>
<trkpt lat="44.64208900" lon="5.85052300"><ele>1292.76001</ele><time>2010-06-02T09:30:33Z</time></trkpt>
<trkpt lat="44.64200300" lon="5.85075600"><ele>1291.656006</ele><time>2010-06-02T09:30:36Z</time></trkpt>
<trkpt lat="44.64207400" lon="5.85102000"><ele>1290.865967</ele><time>2010-06-02T09:30:39Z</time></trkpt>
<trkpt lat="44.64231300" lon="5.85129900"><ele>1289.373047</ele><time>2010-06-02T09:30:43Z</time></trkpt>
<trkpt lat="44.64271000" lon="5.85163300"><ele>1286.369019</ele><time>2010-06-02T09:30:48Z</time></trkpt>
<trkpt lat="44.64290800" lon="5.85201800"><ele>1283.624023</ele><time>2010-06-02T09:30:52Z</time></trkpt>
<trkpt lat="44.64283900" lon="5.85227900"><ele>1281.813965</ele><time>2010-06-02T09:30:54Z</time></trkpt>
<trkpt lat="44.64267800" lon="5.85234600"><ele>1280.208008</ele><time>2010-06-02T09:30:56Z</time></trkpt>
<trkpt lat="44.64248600" lon="5.85230600"><ele>1278.828003</ele><time>2010-06-02T09:30:58Z</time></trkpt>
<trkpt lat="44.64181800" lon="5.85208400"><ele>1273.267944</ele><time>2010-06-02T09:31:04Z</time></trkpt>
<trkpt lat="44.64169800" lon="5.85202800"><ele>1272.212036</ele><time>2010-06-02T09:31:05Z</time></trkpt>
<trkpt lat="44.64129000" lon="5.85160300"><ele>1269.06897</ele><time>2010-06-02T09:31:09Z</time></trkpt>
<trkpt lat="44.64121000" lon="5.85145100"><ele>1267.630005</ele><time>2010-06-02T09:31:10Z</time></trkpt>
<trkpt lat="44.64085300" lon="5.85062600"><ele>1261.110962</ele><time>2010-06-02T09:31:15Z</time></trkpt>
<trkpt lat="44.64045600" lon="5.85012400"><ele>1256.797974</ele><time>2010-06-02T09:31:19Z</time></trkpt>
<trkpt lat="44.64032700" lon="5.85004100"><ele>1255.405029</ele><time>2010-06-02T09:31:20Z</time></trkpt>
<trkpt lat="44.63917700" lon="5.84949200"><ele>1244.545044</ele><time>2010-06-02T09:31:28Z</time></trkpt>
<trkpt lat="44.63862400" lon="5.84924400"><ele>1237.921021</ele><time>2010-06-02T09:31:32Z</time></trkpt>
<trkpt lat="44.63810700" lon="5.84926800"><ele>1234.159058</ele><time>2010-06-02T09:31:36Z</time></trkpt>
<trkpt lat="44.63776200" lon="5.84957400"><ele>1231.447021</ele><time>2010-06-02T09:31:39Z</time></trkpt>
<trkpt lat="44.63713600" lon="5.85050500"><ele>1224.625</ele><time>2010-06-02T09:31:45Z</time></trkpt>
<trkpt lat="44.63702100" lon="5.85065100"><ele>1223.022949</ele><time>2010-06-02T09:31:46Z</time></trkpt>
<trkpt lat="44.63646300" lon="5.85104000"><ele>1219.089966</ele><time>2010-06-02T09:31:50Z</time></trkpt>
<trkpt lat="44.63614800" lon="5.85106600"><ele>1216.907959</ele><time>2010-06-02T09:31:52Z</time></trkpt>
<trkpt lat="44.63535700" lon="5.85096000"><ele>1211.187988</ele><time>2010-06-02T09:31:57Z</time></trkpt>
<trkpt lat="44.63521000" lon="5.85090800"><ele>1209.698975</ele><time>2010-06-02T09:31:58Z</time></trkpt>
<trkpt lat="44.63469200" lon="5.85055400"><ele>1203.465942</ele><time>2010-06-02T09:32:02Z</time></trkpt>
<trkpt lat="44.63430500" lon="5.85037500"><ele>1198.848022</ele><time>2010-06-02T09:32:05Z</time></trkpt>
<trkpt lat="44.63402000" lon="5.85041700"><ele>1197.240967</ele><time>2010-06-02T09:32:07Z</time></trkpt>
<trkpt lat="44.63373400" lon="5.85050000"><ele>1194.944946</ele><time>2010-06-02T09:32:09Z</time></trkpt>
<trkpt lat="44.63316600" lon="5.85039500"><ele>1190.98999</ele><time>2010-06-02T09:32:13Z</time></trkpt>
<trkpt lat="44.63255900" lon="5.85031500"><ele>1186.340942</ele><time>2010-06-02T09:32:17Z</time></trkpt>
<trkpt lat="44.63240100" lon="5.85036400"><ele>1185.139038</ele><time>2010-06-02T09:32:18Z</time></trkpt>
<trkpt lat="44.63158400" lon="5.85058500"><ele>1179.463989</ele><time>2010-06-02T09:32:23Z</time></trkpt>
<trkpt lat="44.63058600" lon="5.85065500"><ele>1173.735962</ele><time>2010-06-02T09:32:29Z</time></trkpt>
<trkpt lat="44.63042200" lon="5.85065200"><ele>1173.692993</ele><time>2010-06-02T09:32:30Z</time></trkpt>
<trkpt lat="44.62980200" lon="5.85069700"><ele>1171.581055</ele><time>2010-06-02T09:32:34Z</time></trkpt>
<trkpt lat="44.62907600" lon="5.85092500"><ele>1166.218018</ele><time>2010-06-02T09:32:39Z</time></trkpt>
<trkpt lat="44.62838300" lon="5.85132200"><ele>1161.949951</ele><time>2010-06-02T09:32:44Z</time></trkpt>
<trkpt lat="44.62769300" lon="5.85177100"><ele>1157.543945</ele><time>2010-06-02T09:32:49Z</time></trkpt>
<trkpt lat="44.62721800" lon="5.85196200"><ele>1154.313965</ele><time>2010-06-02T09:32:52Z</time></trkpt>
<trkpt lat="44.62658600" lon="5.85201200"><ele>1151.196045</ele><time>2010-06-02T09:32:56Z</time></trkpt>
<trkpt lat="44.62628300" lon="5.85205900"><ele>1149.728027</ele><time>2010-06-02T09:32:58Z</time></trkpt>
<trkpt lat="44.62556700" lon="5.85244500"><ele>1146.015991</ele><time>2010-06-02T09:33:03Z</time></trkpt>
<trkpt lat="44.62472800" lon="5.85287400"><ele>1142.886963</ele><time>2010-06-02T09:33:09Z</time></trkpt>
<trkpt lat="44.62402600" lon="5.85310100"><ele>1140.25</ele><time>2010-06-02T09:33:14Z</time></trkpt>
<trkpt lat="44.62349000" lon="5.85337000"><ele>1138.197021</ele><time>2010-06-02T09:33:18Z</time></trkpt>
<trkpt lat="44.62335800" lon="5.85345500"><ele>1137.926025</ele><time>2010-06-02T09:33:19Z</time></trkpt>
<trkpt lat="44.62267600" lon="5.85383200"><ele>1135.250977</ele><time>2010-06-02T09:33:24Z</time></trkpt>
<trkpt lat="44.62199400" lon="5.85416800"><ele>1131.36499</ele><time>2010-06-02T09:33:29Z</time></trkpt>
<trkpt lat="44.62158600" lon="5.85436800"><ele>1129.27002</ele><time>2010-06-02T09:33:32Z</time></trkpt>
<trkpt lat="44.62145200" lon="5.85443300"><ele>1128.999023</ele><time>2010-06-02T09:33:33Z</time></trkpt>
<trkpt lat="44.62094100" lon="5.85463500"><ele>1126.362061</ele><time>2010-06-02T09:33:37Z</time></trkpt>
<trkpt lat="44.62017900" lon="5.85491500"><ele>1125.003052</ele><time>2010-06-02T09:33:43Z</time></trkpt>
<trkpt lat="44.61967400" lon="5.85512500"><ele>1122.588013</ele><time>2010-06-02T09:33:47Z</time></trkpt>
<trkpt lat="44.61905800" lon="5.85537000"><ele>1119.58606</ele><time>2010-06-02T09:33:52Z</time></trkpt>
<trkpt lat="44.61857200" lon="5.85555500"><ele>1118.343994</ele><time>2010-06-02T09:33:56Z</time></trkpt>
<trkpt lat="44.61808100" lon="5.85575600"><ele>1115.86499</ele><time>2010-06-02T09:34:00Z</time></trkpt>
<trkpt lat="44.61796100" lon="5.85580700"><ele>1115.561035</ele><time>2010-06-02T09:34:01Z</time></trkpt>
<trkpt lat="44.61772500" lon="5.85592900"><ele>1114.64502</ele><time>2010-06-02T09:34:03Z</time></trkpt>
<trkpt lat="44.61714500" lon="5.85623900"><ele>1111.761963</ele><time>2010-06-02T09:34:08Z</time></trkpt>
<trkpt lat="44.61647100" lon="5.85653000"><ele>1110.344971</ele><time>2010-06-02T09:34:14Z</time></trkpt>
<trkpt lat="44.61604100" lon="5.85661900"><ele>1109.970947</ele><time>2010-06-02T09:34:18Z</time></trkpt>
<trkpt lat="44.61544800" lon="5.85673300"><ele>1109.571045</ele><time>2010-06-02T09:34:24Z</time></trkpt>
<trkpt lat="44.61491800" lon="5.85673900"><ele>1109.093994</ele><time>2010-06-02T09:34:30Z</time></trkpt>
<trkpt lat="44.61454500" lon="5.85667200"><ele>1109.458008</ele><time>2010-06-02T09:34:35Z</time></trkpt>
<trkpt lat="44.61435300" lon="5.85665200"><ele>1109.44397</ele><time>2010-06-02T09:34:38Z</time></trkpt>
<trkpt lat="44.61380700" lon="5.85679800"><ele>1108.387939</ele><time>2010-06-02T09:34:47Z</time></trkpt>
<trkpt lat="44.61369500" lon="5.85687900"><ele>1107.750977</ele><time>2010-06-02T09:34:49Z</time></trkpt>
<trkpt lat="44.61338300" lon="5.85731000"><ele>1105.635986</ele><time>2010-06-02T09:34:55Z</time></trkpt>
<trkpt lat="44.61322500" lon="5.85754900"><ele>1105.194946</ele><time>2010-06-02T09:34:58Z</time></trkpt>
<trkpt lat="44.61288800" lon="5.85780100"><ele>1104.303955</ele><time>2010-06-02T09:35:03Z</time></trkpt>
<trkpt lat="44.61249500" lon="5.85797200"><ele>1103.390015</ele><time>2010-06-02T09:35:08Z</time></trkpt>
<trkpt lat="44.61199500" lon="5.85814300"><ele>1101.975952</ele><time>2010-06-02T09:35:14Z</time></trkpt>
<trkpt lat="44.61130800" lon="5.85840100"><ele>1099.379028</ele><time>2010-06-02T09:35:22Z</time></trkpt>
<trkpt lat="44.61094300" lon="5.85849100"><ele>1098.787964</ele><time>2010-06-02T09:35:26Z</time></trkpt>
<trkpt lat="44.61057100" lon="5.85841500"><ele>1097.609985</ele><time>2010-06-02T09:35:30Z</time></trkpt>
<trkpt lat="44.61032600" lon="5.85819500"><ele>1096.230957</ele><time>2010-06-02T09:35:33Z</time></trkpt>
<trkpt lat="44.60807400" lon="5.85734800"><ele>1080.204956</ele><time>2010-06-02T09:36:01Z</time></trkpt>
<trkpt lat="44.60744300" lon="5.85756700"><ele>1078.682983</ele><time>2010-06-02T09:36:07Z</time></trkpt>
<trkpt lat="44.60713700" lon="5.85755000"><ele>1077.071045</ele><time>2010-06-02T09:36:10Z</time></trkpt>
<trkpt lat="44.60693300" lon="5.85749700"><ele>1074.55896</ele><time>2010-06-02T09:36:12Z</time></trkpt>
<trkpt lat="44.60649500" lon="5.85755800"><ele>1069.28894</ele><time>2010-06-02T09:36:16Z</time></trkpt>
<trkpt lat="44.60566400" lon="5.85790800"><ele>1063.005981</ele><time>2010-06-02T09:36:23Z</time></trkpt>
<trkpt lat="44.60513200" lon="5.85795400"><ele>1059.067017</ele><time>2010-06-02T09:36:27Z</time></trkpt>
<trkpt lat="44.60431100" lon="5.85793000"><ele>1054.980957</ele><time>2010-06-02T09:36:33Z</time></trkpt>
<trkpt lat="44.60330900" lon="5.85794000"><ele>1048.305054</ele><time>2010-06-02T09:36:40Z</time></trkpt>
<trkpt lat="44.60218700" lon="5.85795200"><ele>1040.281006</ele><time>2010-06-02T09:36:47Z</time></trkpt>
<trkpt lat="44.60052000" lon="5.85794600"><ele>1031.944946</ele><time>2010-06-02T09:36:57Z</time></trkpt>
<trkpt lat="44.59959300" lon="5.85793100"><ele>1028.235962</ele><time>2010-06-02T09:37:03Z</time></trkpt>
<trkpt lat="44.59916500" lon="5.85793900"><ele>1026.604004</ele><time>2010-06-02T09:37:06Z</time></trkpt>
<trkpt lat="44.59839700" lon="5.85797200"><ele>1024.510986</ele><time>2010-06-02T09:37:12Z</time></trkpt>
<trkpt lat="44.59761600" lon="5.85799300"><ele>1019.471985</ele><time>2010-06-02T09:37:19Z</time></trkpt>
<trkpt lat="44.59710400" lon="5.85800600"><ele>1016.814026</ele><time>2010-06-02T09:37:24Z</time></trkpt>
<trkpt lat="44.59660900" lon="5.85803300"><ele>1014.580994</ele><time>2010-06-02T09:37:29Z</time></trkpt>
<trkpt lat="44.59582700" lon="5.85805800"><ele>1011.583008</ele><time>2010-06-02T09:37:37Z</time></trkpt>
<trkpt lat="44.59517100" lon="5.85803900"><ele>1010.111023</ele><time>2010-06-02T09:37:44Z</time></trkpt>
<trkpt lat="44.59475300" lon="5.85787200"><ele>1008.192993</ele><time>2010-06-02T09:37:49Z</time></trkpt>
<trkpt lat="44.59432300" lon="5.85751900"><ele>1006.88501</ele><time>2010-06-02T09:37:55Z</time></trkpt>
<trkpt lat="44.59377400" lon="5.85680700"><ele>1003.715027</ele><time>2010-06-02T09:38:04Z</time></trkpt>
<trkpt lat="44.59354200" lon="5.85648500"><ele>1001.91803</ele><time>2010-06-02T09:38:08Z</time></trkpt>
<trkpt lat="44.59342300" lon="5.85632500"><ele>1001.130005</ele><time>2010-06-02T09:38:10Z</time></trkpt>
<trkpt lat="44.59299100" lon="5.85575800"><ele>998.275024</ele><time>2010-06-02T09:38:17Z</time></trkpt>
<trkpt lat="44.59285200" lon="5.85561500"><ele>997.60498</ele><time>2010-06-02T09:38:19Z</time></trkpt>
<trkpt lat="44.59245900" lon="5.85533400"><ele>996.98999</ele><time>2010-06-02T09:38:24Z</time></trkpt>
<trkpt lat="44.59200600" lon="5.85520500"><ele>995.747009</ele><time>2010-06-02T09:38:29Z</time></trkpt>
<trkpt lat="44.59150700" lon="5.85523700"><ele>994.729004</ele><time>2010-06-02T09:38:34Z</time></trkpt>
<trkpt lat="44.59077600" lon="5.85537700"><ele>993.299011</ele><time>2010-06-02T09:38:41Z</time></trkpt>
<trkpt lat="44.58989100" lon="5.85555300"><ele>989.945984</ele><time>2010-06-02T09:38:49Z</time></trkpt>
<trkpt lat="44.58953900" lon="5.85562200"><ele>989.424988</ele><time>2010-06-02T09:38:52Z</time></trkpt>
<trkpt lat="44.58918900" lon="5.85569200"><ele>988.267029</ele><time>2010-06-02T09:38:55Z</time></trkpt>
<trkpt lat="44.58907400" lon="5.85571600"><ele>988.11499</ele><time>2010-06-02T09:38:56Z</time></trkpt>
<trkpt lat="44.58806500" lon="5.85592600"><ele>985.372009</ele><time>2010-06-02T09:39:05Z</time></trkpt>
<trkpt lat="44.58753700" lon="5.85600200"><ele>983.838013</ele><time>2010-06-02T09:39:10Z</time></trkpt>
<trkpt lat="44.58693300" lon="5.85601800"><ele>982.914978</ele><time>2010-06-02T09:39:16Z</time></trkpt>
<trkpt lat="44.58655300" lon="5.85597200"><ele>981.653015</ele><time>2010-06-02T09:39:20Z</time></trkpt>
<trkpt lat="44.58587300" lon="5.85585100"><ele>978.169983</ele><time>2010-06-02T09:39:27Z</time></trkpt>
<trkpt lat="44.58533400" lon="5.85574600"><ele>975.601013</ele><time>2010-06-02T09:39:32Z</time></trkpt>
<trkpt lat="44.58478200" lon="5.85564200"><ele>973.393005</ele><time>2010-06-02T09:39:37Z</time></trkpt>
<trkpt lat="44.58369200" lon="5.85544000"><ele>969.580994</ele><time>2010-06-02T09:39:47Z</time></trkpt>
<trkpt lat="44.58303800" lon="5.85532100"><ele>968.122009</ele><time>2010-06-02T09:39:53Z</time></trkpt>
<trkpt lat="44.58260000" lon="5.85524200"><ele>966.304016</ele><time>2010-06-02T09:39:57Z</time></trkpt>
<trkpt lat="44.58248900" lon="5.85522300"><ele>966.026001</ele><time>2010-06-02T09:39:58Z</time></trkpt>
<trkpt lat="44.58164900" lon="5.85507000"><ele>962.638977</ele><time>2010-06-02T09:40:06Z</time></trkpt>
<trkpt lat="44.58078400" lon="5.85490800"><ele>958.892029</ele><time>2010-06-02T09:40:15Z</time></trkpt>
<trkpt lat="44.58069000" lon="5.85489000"><ele>958.692017</ele><time>2010-06-02T09:40:16Z</time></trkpt>
<trkpt lat="44.58031800" lon="5.85481700"><ele>958.221985</ele><time>2010-06-02T09:40:20Z</time></trkpt>
<trkpt lat="44.57987500" lon="5.85467400"><ele>955.017029</ele><time>2010-06-02T09:40:25Z</time></trkpt>
<trkpt lat="44.57947300" lon="5.85443700"><ele>953.268982</ele><time>2010-06-02T09:40:30Z</time></trkpt>
<trkpt lat="44.57925100" lon="5.85426900"><ele>951.888977</ele><time>2010-06-02T09:40:33Z</time></trkpt>
<trkpt lat="44.57879900" lon="5.85401700"><ele>949.445007</ele><time>2010-06-02T09:40:39Z</time></trkpt>
<trkpt lat="44.57845800" lon="5.85398100"><ele>948.973999</ele><time>2010-06-02T09:40:43Z</time></trkpt>
<trkpt lat="44.57809500" lon="5.85407600"><ele>948.356995</ele><time>2010-06-02T09:40:47Z</time></trkpt>
<trkpt lat="44.57754000" lon="5.85441000"><ele>947.028015</ele><time>2010-06-02T09:40:53Z</time></trkpt>
<trkpt lat="44.57685800" lon="5.85489100"><ele>945.932983</ele><time>2010-06-02T09:41:00Z</time></trkpt>
<trkpt lat="44.57623400" lon="5.85545400"><ele>945.296997</ele><time>2010-06-02T09:41:07Z</time></trkpt>
<trkpt lat="44.57617000" lon="5.85552000"><ele>944.755981</ele><time>2010-06-02T09:41:08Z</time></trkpt>
<trkpt lat="44.57594800" lon="5.85556000"><ele>945.177979</ele><time>2010-06-02T09:41:12Z</time></trkpt>
<trkpt lat="44.57587400" lon="5.85547700"><ele>945.875977</ele><time>2010-06-02T09:41:14Z</time></trkpt>
<trkpt lat="44.57567400" lon="5.85515000"><ele>946.41803</ele><time>2010-06-02T09:41:21Z</time></trkpt>
<trkpt lat="44.57541900" lon="5.85506600"><ele>944.492981</ele><time>2010-06-02T09:41:26Z</time></trkpt>
<trkpt lat="44.57535700" lon="5.85508800"><ele>944.223022</ele><time>2010-06-02T09:41:27Z</time></trkpt>
<trkpt lat="44.57486600" lon="5.85532300"><ele>941.643982</ele><time>2010-06-02T09:41:34Z</time></trkpt>
<trkpt lat="44.57454500" lon="5.85542000"><ele>939.697998</ele><time>2010-06-02T09:41:38Z</time></trkpt>
<trkpt lat="44.57388600" lon="5.85563000"><ele>938.218994</ele><time>2010-06-02T09:41:46Z</time></trkpt>
<trkpt lat="44.57347700" lon="5.85576300"><ele>936.539978</ele><time>2010-06-02T09:41:51Z</time></trkpt>
<trkpt lat="44.57339900" lon="5.85580000"><ele>936.276001</ele><time>2010-06-02T09:41:52Z</time></trkpt>
<trkpt lat="44.57317900" lon="5.85593800"><ele>934.969971</ele><time>2010-06-02T09:41:55Z</time></trkpt>
<trkpt lat="44.57277600" lon="5.85627700"><ele>934.903015</ele><time>2010-06-02T09:42:01Z</time></trkpt>
<trkpt lat="44.57246400" lon="5.85660000"><ele>934.067993</ele><time>2010-06-02T09:42:07Z</time></trkpt>
<trkpt lat="44.57220900" lon="5.85679500"><ele>934.377991</ele><time>2010-06-02T09:42:12Z</time></trkpt>
<trkpt lat="44.57210300" lon="5.85685400"><ele>934.590027</ele><time>2010-06-02T09:42:14Z</time></trkpt>
<trkpt lat="44.57169400" lon="5.85702200"><ele>933.848999</ele><time>2010-06-02T09:42:22Z</time></trkpt>
<trkpt lat="44.57145000" lon="5.85701500"><ele>933.036011</ele><time>2010-06-02T09:42:26Z</time></trkpt>
<trkpt lat="44.57094100" lon="5.85692600"><ele>931.22998</ele><time>2010-06-02T09:42:33Z</time></trkpt>
<trkpt lat="44.57039800" lon="5.85696800"><ele>929.237</ele><time>2010-06-02T09:42:40Z</time></trkpt>
<trkpt lat="44.57031700" lon="5.85697600"><ele>928.888</ele><time>2010-06-02T09:42:41Z</time></trkpt>
<trkpt lat="44.56950500" lon="5.85705500"><ele>927.151978</ele><time>2010-06-02T09:42:51Z</time></trkpt>
<trkpt lat="44.56909800" lon="5.85709500"><ele>925.598022</ele><time>2010-06-02T09:42:56Z</time></trkpt>
<trkpt lat="44.56847800" lon="5.85715200"><ele>925.094971</ele><time>2010-06-02T09:43:04Z</time></trkpt>
<trkpt lat="44.56791800" lon="5.85719700"><ele>924.314026</ele><time>2010-06-02T09:43:12Z</time></trkpt>
<trkpt lat="44.56747700" lon="5.85726400"><ele>924.06897</ele><time>2010-06-02T09:43:19Z</time></trkpt>
<trkpt lat="44.56725900" lon="5.85733200"><ele>924.005005</ele><time>2010-06-02T09:43:23Z</time></trkpt>
<trkpt lat="44.56689100" lon="5.85760300"><ele>922.624023</ele><time>2010-06-02T09:43:30Z</time></trkpt>
<trkpt lat="44.56657100" lon="5.85786000"><ele>921.177979</ele><time>2010-06-02T09:43:35Z</time></trkpt>
<trkpt lat="44.56627800" lon="5.85790500"><ele>920.320984</ele><time>2010-06-02T09:43:39Z</time></trkpt>
<trkpt lat="44.56620400" lon="5.85787200"><ele>920.002014</ele><time>2010-06-02T09:43:40Z</time></trkpt>
<trkpt lat="44.56561200" lon="5.85761700"><ele>918.432007</ele><time>2010-06-02T09:43:48Z</time></trkpt>
<trkpt lat="44.56505000" lon="5.85746800"><ele>915.263</ele><time>2010-06-02T09:43:55Z</time></trkpt>
<trkpt lat="44.56487300" lon="5.85743200"><ele>914.380005</ele><time>2010-06-02T09:43:57Z</time></trkpt>
<trkpt lat="44.56432300" lon="5.85741800"><ele>912.440979</ele><time>2010-06-02T09:44:03Z</time></trkpt>
<trkpt lat="44.56387700" lon="5.85733800"><ele>911.822998</ele><time>2010-06-02T09:44:08Z</time></trkpt>
<trkpt lat="44.56339100" lon="5.85720600"><ele>910.341003</ele><time>2010-06-02T09:44:14Z</time></trkpt>
<trkpt lat="44.56293500" lon="5.85720100"><ele>908.163025</ele><time>2010-06-02T09:44:20Z</time></trkpt>
<trkpt lat="44.56236100" lon="5.85735400"><ele>905.934021</ele><time>2010-06-02T09:44:27Z</time></trkpt>
<trkpt lat="44.56162700" lon="5.85756900"><ele>903.320984</ele><time>2010-06-02T09:44:36Z</time></trkpt>
<trkpt lat="44.56126000" lon="5.85764000"><ele>902.395996</ele><time>2010-06-02T09:44:41Z</time></trkpt>
<trkpt lat="44.56111600" lon="5.85763600"><ele>901.718994</ele><time>2010-06-02T09:44:43Z</time></trkpt>
<trkpt lat="44.56031900" lon="5.85752600"><ele>899.237976</ele><time>2010-06-02T09:44:54Z</time></trkpt>
<trkpt lat="44.55960300" lon="5.85741800"><ele>896.656982</ele><time>2010-06-02T09:45:04Z</time></trkpt>
<trkpt lat="44.55911100" lon="5.85735200"><ele>894.879028</ele><time>2010-06-02T09:45:11Z</time></trkpt>
<trkpt lat="44.55844900" lon="5.85725400"><ele>893.289978</ele><time>2010-06-02T09:45:20Z</time></trkpt>
<trkpt lat="44.55774100" lon="5.85715800"><ele>892.137024</ele><time>2010-06-02T09:45:29Z</time></trkpt>
<trkpt lat="44.55718700" lon="5.85708100"><ele>889.820007</ele><time>2010-06-02T09:45:36Z</time></trkpt>
<trkpt lat="44.55642400" lon="5.85698100"><ele>887.211975</ele><time>2010-06-02T09:45:46Z</time></trkpt>
<trkpt lat="44.55564400" lon="5.85687400"><ele>884.797974</ele><time>2010-06-02T09:45:56Z</time></trkpt>
<trkpt lat="44.55491200" lon="5.85677000"><ele>882.492981</ele><time>2010-06-02T09:46:05Z</time></trkpt>
<trkpt lat="44.55405400" lon="5.85665300"><ele>881.02002</ele><time>2010-06-02T09:46:15Z</time></trkpt>
<trkpt lat="44.55347800" lon="5.85657600"><ele>879.664001</ele><time>2010-06-02T09:46:22Z</time></trkpt>
<trkpt lat="44.55332500" lon="5.85654800"><ele>878.955017</ele><time>2010-06-02T09:46:24Z</time></trkpt>
<trkpt lat="44.55265900" lon="5.85645300"><ele>877.026978</ele><time>2010-06-02T09:46:33Z</time></trkpt>
<trkpt lat="44.55192400" lon="5.85634100"><ele>876.302979</ele><time>2010-06-02T09:46:43Z</time></trkpt>
<trkpt lat="44.55139600" lon="5.85633300"><ele>874.802002</ele><time>2010-06-02T09:46:50Z</time></trkpt>
<trkpt lat="44.55093600" lon="5.85623500"><ele>873.445007</ele><time>2010-06-02T09:46:56Z</time></trkpt>
<trkpt lat="44.55041900" lon="5.85593200"><ele>871.223022</ele><time>2010-06-02T09:47:03Z</time></trkpt>
<trkpt lat="44.54981600" lon="5.85559300"><ele>870.385986</ele><time>2010-06-02T09:47:11Z</time></trkpt>
<trkpt lat="44.54940800" lon="5.85543000"><ele>869.393005</ele><time>2010-06-02T09:47:16Z</time></trkpt>
<trkpt lat="44.54911400" lon="5.85533100"><ele>868.031982</ele><time>2010-06-02T09:47:20Z</time></trkpt>
<trkpt lat="44.54867000" lon="5.85529200"><ele>866.724976</ele><time>2010-06-02T09:47:27Z</time></trkpt>
<trkpt lat="44.54832900" lon="5.85530300"><ele>865.515991</ele><time>2010-06-02T09:47:33Z</time></trkpt>
<trkpt lat="44.54817400" lon="5.85530700"><ele>864.991028</ele><time>2010-06-02T09:47:37Z</time></trkpt>
<trkpt lat="44.54814800" lon="5.85530100"><ele>864.823975</ele><time>2010-06-02T09:47:38Z</time></trkpt>
<trkpt lat="44.54809100" lon="5.85524500"><ele>864.237976</ele><time>2010-06-02T09:47:44Z</time></trkpt>
<trkpt lat="44.54815100" lon="5.85531700"><ele>864.838989</ele><time>2010-06-02T09:48:46Z</time></trkpt>
<trkpt lat="44.54816400" lon="5.85533700"><ele>864.851013</ele><time>2010-06-02T09:48:48Z</time></trkpt>
<trkpt lat="44.54817000" lon="5.85534700"><ele>864.859985</ele><time>2010-06-02T09:48:49Z</time></trkpt>
<trkpt lat="44.54819000" lon="5.85542500"><ele>864.903992</ele><time>2010-06-02T09:48:56Z</time></trkpt>
<trkpt lat="44.54819400" lon="5.85544100"><ele>864.794983</ele><time>2010-06-02T09:48:59Z</time></trkpt>
<trkpt lat="44.54817300" lon="5.85541700"><ele>864.934021</ele><time>2010-06-02T09:54:28Z</time></trkpt>
<trkpt lat="44.54817400" lon="5.85541700"><ele>864.906982</ele><time>2010-06-02T09:54:29Z</time></trkpt>
<trkpt lat="44.54803100" lon="5.85528400"><ele>864.487</ele><time>2010-06-02T09:54:45Z</time></trkpt>
<trkpt lat="44.54790800" lon="5.85505900"><ele>864.133972</ele><time>2010-06-02T09:54:49Z</time></trkpt>
<trkpt lat="44.54777400" lon="5.85479100"><ele>864.349976</ele><time>2010-06-02T09:54:53Z</time></trkpt>
<trkpt lat="44.54749000" lon="5.85427600"><ele>864.062012</ele><time>2010-06-02T09:55:01Z</time></trkpt>
<trkpt lat="44.54746100" lon="5.85423300"><ele>863.804016</ele><time>2010-06-02T09:55:02Z</time></trkpt>
<trkpt lat="44.54741600" lon="5.85415900"><ele>863.427979</ele><time>2010-06-02T09:55:04Z</time></trkpt>
<trkpt lat="44.54739100" lon="5.85413300"><ele>863.267029</ele><time>2010-06-02T09:55:05Z</time></trkpt>
<trkpt lat="44.54731000" lon="5.85413800"><ele>862.802979</ele><time>2010-06-02T09:55:08Z</time></trkpt>
<trkpt lat="44.54728400" lon="5.85415500"><ele>862.716003</ele><time>2010-06-02T09:55:09Z</time></trkpt>
<trkpt lat="44.54713900" lon="5.85420700"><ele>862.530029</ele><time>2010-06-02T09:55:14Z</time></trkpt>
<trkpt lat="44.54710500" lon="5.85419700"><ele>862.705017</ele><time>2010-06-02T09:55:15Z</time></trkpt>
<trkpt lat="44.54699300" lon="5.85415300"><ele>862.291016</ele><time>2010-06-02T09:55:18Z</time></trkpt>
<trkpt lat="44.54691600" lon="5.85410000"><ele>862.309998</ele><time>2010-06-02T09:55:20Z</time></trkpt>
<trkpt lat="44.54676800" lon="5.85395900"><ele>862.403015</ele><time>2010-06-02T09:55:24Z</time></trkpt>
<trkpt lat="44.54652800" lon="5.85361200"><ele>861.458984</ele><time>2010-06-02T09:55:31Z</time></trkpt>
<trkpt lat="44.54629400" lon="5.85318300"><ele>860.692017</ele><time>2010-06-02T09:55:38Z</time></trkpt>
<trkpt lat="44.54599100" lon="5.85263900"><ele>859.728027</ele><time>2010-06-02T09:55:47Z</time></trkpt>
<trkpt lat="44.54568600" lon="5.85219000"><ele>858.007019</ele><time>2010-06-02T09:55:55Z</time></trkpt>
<trkpt lat="44.54533200" lon="5.85192800"><ele>857.526978</ele><time>2010-06-02T09:56:02Z</time></trkpt>
<trkpt lat="44.54485700" lon="5.85170700"><ele>855.45697</ele><time>2010-06-02T09:56:11Z</time></trkpt>
<trkpt lat="44.54440400" lon="5.85155600"><ele>854.258972</ele><time>2010-06-02T09:56:19Z</time></trkpt>
<trkpt lat="44.54416800" lon="5.85147900"><ele>853.526978</ele><time>2010-06-02T09:56:23Z</time></trkpt>
<trkpt lat="44.54360400" lon="5.85141000"><ele>852.255005</ele><time>2010-06-02T09:56:32Z</time></trkpt>
<trkpt lat="44.54321300" lon="5.85129900"><ele>851.79303</ele><time>2010-06-02T09:56:38Z</time></trkpt>
<trkpt lat="44.54284000" lon="5.85121600"><ele>849.388977</ele><time>2010-06-02T09:56:44Z</time></trkpt>
<trkpt lat="44.54263400" lon="5.85104500"><ele>849.036011</ele><time>2010-06-02T09:56:49Z</time></trkpt>
<trkpt lat="44.54256600" lon="5.85083300"><ele>847.843018</ele><time>2010-06-02T09:56:53Z</time></trkpt>
<trkpt lat="44.54233800" lon="5.85044000"><ele>846.94397</ele><time>2010-06-02T09:57:01Z</time></trkpt>
<trkpt lat="44.54203300" lon="5.85001600"><ele>846.655029</ele><time>2010-06-02T09:57:09Z</time></trkpt>
<trkpt lat="44.54176800" lon="5.84975600"><ele>846.38501</ele><time>2010-06-02T09:57:15Z</time></trkpt>
<trkpt lat="44.54166400" lon="5.84970300"><ele>846.164001</ele><time>2010-06-02T09:57:17Z</time></trkpt>
<trkpt lat="44.54122300" lon="5.84962400"><ele>844.869019</ele><time>2010-06-02T09:57:24Z</time></trkpt>
<trkpt lat="44.54060900" lon="5.84954300"><ele>844.333008</ele><time>2010-06-02T09:57:33Z</time></trkpt>
<trkpt lat="44.54028300" lon="5.84952200"><ele>845.067993</ele><time>2010-06-02T09:57:38Z</time></trkpt>
<trkpt lat="44.53995000" lon="5.84964900"><ele>843.315979</ele><time>2010-06-02T09:57:44Z</time></trkpt>
<trkpt lat="44.53969400" lon="5.84986600"><ele>843.495972</ele><time>2010-06-02T09:57:50Z</time></trkpt>
<trkpt lat="44.53936200" lon="5.85021300"><ele>843.950012</ele><time>2010-06-02T09:57:59Z</time></trkpt>
<trkpt lat="44.53905400" lon="5.85060600"><ele>843.38501</ele><time>2010-06-02T09:58:07Z</time></trkpt>
<trkpt lat="44.53867900" lon="5.85108100"><ele>842.893005</ele><time>2010-06-02T09:58:16Z</time></trkpt>
<trkpt lat="44.53840500" lon="5.85143100"><ele>843.474976</ele><time>2010-06-02T09:58:23Z</time></trkpt>
<trkpt lat="44.53811900" lon="5.85179900"><ele>844.570007</ele><time>2010-06-02T09:58:31Z</time></trkpt>
<trkpt lat="44.53789400" lon="5.85208600"><ele>845.094971</ele><time>2010-06-02T09:58:38Z</time></trkpt>
<trkpt lat="44.53767600" lon="5.85235900"><ele>845.106995</ele><time>2010-06-02T09:58:45Z</time></trkpt>
<trkpt lat="44.53738500" lon="5.85272100"><ele>846.083984</ele><time>2010-06-02T09:58:54Z</time></trkpt>
<trkpt lat="44.53704300" lon="5.85315100"><ele>847.005005</ele><time>2010-06-02T09:59:05Z</time></trkpt>
<trkpt lat="44.53678000" lon="5.85347500"><ele>847.36499</ele><time>2010-06-02T09:59:13Z</time></trkpt>
<trkpt lat="44.53650600" lon="5.85375300"><ele>848.26001</ele><time>2010-06-02T09:59:21Z</time></trkpt>
<trkpt lat="44.53627000" lon="5.85392300"><ele>848.892029</ele><time>2010-06-02T09:59:27Z</time></trkpt>
<trkpt lat="44.53594100" lon="5.85406800"><ele>849.155029</ele><time>2010-06-02T09:59:35Z</time></trkpt>
<trkpt lat="44.53551300" lon="5.85426300"><ele>849.869019</ele><time>2010-06-02T09:59:45Z</time></trkpt>
<trkpt lat="44.53522900" lon="5.85441600"><ele>850.606018</ele><time>2010-06-02T09:59:52Z</time></trkpt>
<trkpt lat="44.53492400" lon="5.85469400"><ele>850.796021</ele><time>2010-06-02T10:00:00Z</time></trkpt>
<trkpt lat="44.53454400" lon="5.85508800"><ele>852.012024</ele><time>2010-06-02T10:00:10Z</time></trkpt>
<trkpt lat="44.53425200" lon="5.85539000"><ele>852.900024</ele><time>2010-06-02T10:00:18Z</time></trkpt>
<trkpt lat="44.53418400" lon="5.85546700"><ele>853.088013</ele><time>2010-06-02T10:00:20Z</time></trkpt>
<trkpt lat="44.53391600" lon="5.85574100"><ele>854.46698</ele><time>2010-06-02T10:00:28Z</time></trkpt>
<trkpt lat="44.53376500" lon="5.85579400"><ele>854.880005</ele><time>2010-06-02T10:00:32Z</time></trkpt>
<trkpt lat="44.53346100" lon="5.85580400"><ele>854.5</ele><time>2010-06-02T10:00:40Z</time></trkpt>
<trkpt lat="44.53343100" lon="5.85583500"><ele>854.640015</ele><time>2010-06-02T10:00:41Z</time></trkpt>
<trkpt lat="44.53333000" lon="5.85610900"><ele>855.036011</ele><time>2010-06-02T10:00:46Z</time></trkpt>
<trkpt lat="44.53322700" lon="5.85678300"><ele>855.268982</ele><time>2010-06-02T10:00:55Z</time></trkpt>
<trkpt lat="44.53310600" lon="5.85734200"><ele>855.523987</ele><time>2010-06-02T10:01:02Z</time></trkpt>
<trkpt lat="44.53297700" lon="5.85795800"><ele>856.715027</ele><time>2010-06-02T10:01:10Z</time></trkpt>
<trkpt lat="44.53288100" lon="5.85846400"><ele>857.213989</ele><time>2010-06-02T10:01:17Z</time></trkpt>
<trkpt lat="44.53274200" lon="5.85906700"><ele>858.601013</ele><time>2010-06-02T10:01:26Z</time></trkpt>
<trkpt lat="44.53261800" lon="5.85961600"><ele>858.870972</ele><time>2010-06-02T10:01:35Z</time></trkpt>
<trkpt lat="44.53250100" lon="5.86016700"><ele>858.83197</ele><time>2010-06-02T10:01:44Z</time></trkpt>
<trkpt lat="44.53241500" lon="5.86080600"><ele>859.935974</ele><time>2010-06-02T10:01:54Z</time></trkpt>
<trkpt lat="44.53240600" lon="5.86139100"><ele>861.663025</ele><time>2010-06-02T10:02:03Z</time></trkpt>
<trkpt lat="44.53241100" lon="5.86194500"><ele>862.703003</ele><time>2010-06-02T10:02:12Z</time></trkpt>
<trkpt lat="44.53242400" lon="5.86235000"><ele>863.323975</ele><time>2010-06-02T10:02:19Z</time></trkpt>
<trkpt lat="44.53242900" lon="5.86275000"><ele>864.169006</ele><time>2010-06-02T10:02:26Z</time></trkpt>
<trkpt lat="44.53243200" lon="5.86330000"><ele>864.900024</ele><time>2010-06-02T10:02:35Z</time></trkpt>
<trkpt lat="44.53243800" lon="5.86379800"><ele>865.528015</ele><time>2010-06-02T10:02:43Z</time></trkpt>
<trkpt lat="44.53244500" lon="5.86429100"><ele>866.289978</ele><time>2010-06-02T10:02:51Z</time></trkpt>
<trkpt lat="44.53250400" lon="5.86471700"><ele>866.835022</ele><time>2010-06-02T10:02:58Z</time></trkpt>
<trkpt lat="44.53268300" lon="5.86541400"><ele>867.533997</ele><time>2010-06-02T10:03:10Z</time></trkpt>
<trkpt lat="44.53271500" lon="5.86552700"><ele>867.879028</ele><time>2010-06-02T10:03:12Z</time></trkpt>
<trkpt lat="44.53282200" lon="5.86608600"><ele>868.35199</ele><time>2010-06-02T10:03:22Z</time></trkpt>
<trkpt lat="44.53282500" lon="5.86614600"><ele>868.38501</ele><time>2010-06-02T10:03:23Z</time></trkpt>
<trkpt lat="44.53280300" lon="5.86687200"><ele>869.192993</ele><time>2010-06-02T10:03:35Z</time></trkpt>
<trkpt lat="44.53280200" lon="5.86693200"><ele>869.236023</ele><time>2010-06-02T10:03:36Z</time></trkpt>
<trkpt lat="44.53276000" lon="5.86746200"><ele>870.442993</ele><time>2010-06-02T10:03:45Z</time></trkpt>
<trkpt lat="44.53269500" lon="5.86803000"><ele>871.637024</ele><time>2010-06-02T10:03:55Z</time></trkpt>
<trkpt lat="44.53259700" lon="5.86847900"><ele>872.226013</ele><time>2010-06-02T10:04:03Z</time></trkpt>
<trkpt lat="44.53254400" lon="5.86864000"><ele>872.465027</ele><time>2010-06-02T10:04:06Z</time></trkpt>
<trkpt lat="44.53251500" lon="5.86875000"><ele>872.617981</ele><time>2010-06-02T10:04:08Z</time></trkpt>
<trkpt lat="44.53235200" lon="5.86925200"><ele>873.51001</ele><time>2010-06-02T10:04:17Z</time></trkpt>
<trkpt lat="44.53215600" lon="5.86986600"><ele>873.973999</ele><time>2010-06-02T10:04:27Z</time></trkpt>
<trkpt lat="44.53196700" lon="5.87045900"><ele>874.88501</ele><time>2010-06-02T10:04:37Z</time></trkpt>
<trkpt lat="44.53178400" lon="5.87102900"><ele>875.5</ele><time>2010-06-02T10:04:47Z</time></trkpt>
<trkpt lat="44.53163400" lon="5.87149800"><ele>876.156982</ele><time>2010-06-02T10:04:55Z</time></trkpt>
<trkpt lat="44.53147700" lon="5.87201800"><ele>877.145996</ele><time>2010-06-02T10:05:04Z</time></trkpt>
<trkpt lat="44.53132500" lon="5.87249900"><ele>878.10199</ele><time>2010-06-02T10:05:12Z</time></trkpt>
<trkpt lat="44.53113100" lon="5.87308900"><ele>879.195007</ele><time>2010-06-02T10:05:22Z</time></trkpt>
<trkpt lat="44.53096600" lon="5.87362000"><ele>880.674988</ele><time>2010-06-02T10:05:31Z</time></trkpt>
<trkpt lat="44.53077700" lon="5.87412500"><ele>881.296021</ele><time>2010-06-02T10:05:40Z</time></trkpt>
<trkpt lat="44.53075400" lon="5.87418200"><ele>881.302979</ele><time>2010-06-02T10:05:41Z</time></trkpt>
<trkpt lat="44.53055200" lon="5.87463400"><ele>882.481018</ele><time>2010-06-02T10:05:49Z</time></trkpt>
<trkpt lat="44.53035700" lon="5.87504200"><ele>883.69397</ele><time>2010-06-02T10:05:57Z</time></trkpt>
<trkpt lat="44.53019500" lon="5.87540900"><ele>885.130981</ele><time>2010-06-02T10:06:05Z</time></trkpt>
<trkpt lat="44.53006500" lon="5.87565500"><ele>885.768982</ele><time>2010-06-02T10:06:11Z</time></trkpt>
<trkpt lat="44.52992000" lon="5.87593600"><ele>886.65802</ele><time>2010-06-02T10:06:18Z</time></trkpt>
<trkpt lat="44.52975900" lon="5.87633000"><ele>887.825989</ele><time>2010-06-02T10:06:27Z</time></trkpt>
<trkpt lat="44.52955100" lon="5.87669900"><ele>889.033997</ele><time>2010-06-02T10:06:36Z</time></trkpt>
<trkpt lat="44.52939400" lon="5.87682400"><ele>890.036011</ele><time>2010-06-02T10:06:41Z</time></trkpt>
<trkpt lat="44.52909900" lon="5.87689500"><ele>890.815002</ele><time>2010-06-02T10:06:49Z</time></trkpt>
<trkpt lat="44.52881600" lon="5.87697100"><ele>891.312012</ele><time>2010-06-02T10:06:57Z</time></trkpt>
<trkpt lat="44.52861600" lon="5.87723400"><ele>891.323975</ele><time>2010-06-02T10:07:04Z</time></trkpt>
<trkpt lat="44.52837700" lon="5.87762700"><ele>891.450012</ele><time>2010-06-02T10:07:14Z</time></trkpt>
<trkpt lat="44.52818700" lon="5.87786500"><ele>892.026978</ele><time>2010-06-02T10:07:21Z</time></trkpt>
<trkpt lat="44.52799000" lon="5.87799300"><ele>892.283997</ele><time>2010-06-02T10:07:27Z</time></trkpt>
<trkpt lat="44.52769100" lon="5.87816300"><ele>893.085999</ele><time>2010-06-02T10:07:35Z</time></trkpt>
<trkpt lat="44.52752700" lon="5.87826400"><ele>893.401001</ele><time>2010-06-02T10:07:39Z</time></trkpt>
<trkpt lat="44.52705800" lon="5.87845900"><ele>893.987</ele><time>2010-06-02T10:07:50Z</time></trkpt>
<trkpt lat="44.52679400" lon="5.87852900"><ele>894.760986</ele><time>2010-06-02T10:07:56Z</time></trkpt>
<trkpt lat="44.52661800" lon="5.87860300"><ele>894.882996</ele><time>2010-06-02T10:08:00Z</time></trkpt>
<trkpt lat="44.52641100" lon="5.87874100"><ele>895.310974</ele><time>2010-06-02T10:08:05Z</time></trkpt>
<trkpt lat="44.52633200" lon="5.87880700"><ele>895.466003</ele><time>2010-06-02T10:08:07Z</time></trkpt>
<trkpt lat="44.52594100" lon="5.87910300"><ele>895.59198</ele><time>2010-06-02T10:08:17Z</time></trkpt>
<trkpt lat="44.52559500" lon="5.87933700"><ele>897.247986</ele><time>2010-06-02T10:08:26Z</time></trkpt>
<trkpt lat="44.52530600" lon="5.87951600"><ele>897.554993</ele><time>2010-06-02T10:08:34Z</time></trkpt>
<trkpt lat="44.52498900" lon="5.87976800"><ele>899.049011</ele><time>2010-06-02T10:08:43Z</time></trkpt>
<trkpt lat="44.52492000" lon="5.87983700"><ele>898.380005</ele><time>2010-06-02T10:08:45Z</time></trkpt>
<trkpt lat="44.52461800" lon="5.88024200"><ele>898.30603</ele><time>2010-06-02T10:08:54Z</time></trkpt>
<trkpt lat="44.52432700" lon="5.88056600"><ele>899.596985</ele><time>2010-06-02T10:09:02Z</time></trkpt>
<trkpt lat="44.52399700" lon="5.88075500"><ele>900.754028</ele><time>2010-06-02T10:09:11Z</time></trkpt>
<trkpt lat="44.52374700" lon="5.88088400"><ele>901.336975</ele><time>2010-06-02T10:09:18Z</time></trkpt>
<trkpt lat="44.52345400" lon="5.88107200"><ele>901.879028</ele><time>2010-06-02T10:09:26Z</time></trkpt>
<trkpt lat="44.52300300" lon="5.88129300"><ele>903.265991</ele><time>2010-06-02T10:09:38Z</time></trkpt>
<trkpt lat="44.52266400" lon="5.88147000"><ele>904.135986</ele><time>2010-06-02T10:09:47Z</time></trkpt>
<trkpt lat="44.52251800" lon="5.88155300"><ele>904.385986</ele><time>2010-06-02T10:09:51Z</time></trkpt>
<trkpt lat="44.52225800" lon="5.88171500"><ele>904.79303</ele><time>2010-06-02T10:09:58Z</time></trkpt>
<trkpt lat="44.52198100" lon="5.88188500"><ele>905.859009</ele><time>2010-06-02T10:10:05Z</time></trkpt>
<trkpt lat="44.52164500" lon="5.88209600"><ele>906.843018</ele><time>2010-06-02T10:10:14Z</time></trkpt>
<trkpt lat="44.52142100" lon="5.88220200"><ele>907.086975</ele><time>2010-06-02T10:10:21Z</time></trkpt>
<trkpt lat="44.52129200" lon="5.88229000"><ele>907.031982</ele><time>2010-06-02T10:10:26Z</time></trkpt>
<trkpt lat="44.52109600" lon="5.88241300"><ele>907.40802</ele><time>2010-06-02T10:10:34Z</time></trkpt>
<trkpt lat="44.52107500" lon="5.88242200"><ele>907.705017</ele><time>2010-06-02T10:10:38Z</time></trkpt>
<trkpt lat="44.52099800" lon="5.88246200"><ele>907.281006</ele><time>2010-06-02T10:13:40Z</time></trkpt>
<trkpt lat="44.52097900" lon="5.88247200"><ele>907.364014</ele><time>2010-06-02T10:13:41Z</time></trkpt>
<trkpt lat="44.52081500" lon="5.88254800"><ele>908.187988</ele><time>2010-06-02T10:13:48Z</time></trkpt>
<trkpt lat="44.52064800" lon="5.88260600"><ele>907.953979</ele><time>2010-06-02T10:13:53Z</time></trkpt>
<trkpt lat="44.52031900" lon="5.88268500"><ele>908.765015</ele><time>2010-06-02T10:14:02Z</time></trkpt>
<trkpt lat="44.51998600" lon="5.88277700"><ele>909.22699</ele><time>2010-06-02T10:14:11Z</time></trkpt>
<trkpt lat="44.51994700" lon="5.88278900"><ele>909.218018</ele><time>2010-06-02T10:14:12Z</time></trkpt>
<trkpt lat="44.51948600" lon="5.88294700"><ele>910.242981</ele><time>2010-06-02T10:14:23Z</time></trkpt>
<trkpt lat="44.51914200" lon="5.88299400"><ele>911.357971</ele><time>2010-06-02T10:14:31Z</time></trkpt>
<trkpt lat="44.51875400" lon="5.88298600"><ele>911.250977</ele><time>2010-06-02T10:14:40Z</time></trkpt>
<trkpt lat="44.51851600" lon="5.88290500"><ele>912.382019</ele><time>2010-06-02T10:14:46Z</time></trkpt>
<trkpt lat="44.51833100" lon="5.88276000"><ele>914.166016</ele><time>2010-06-02T10:14:52Z</time></trkpt>
<trkpt lat="44.51806500" lon="5.88249500"><ele>915.507996</ele><time>2010-06-02T10:15:01Z</time></trkpt>
<trkpt lat="44.51782600" lon="5.88227400"><ele>917.085022</ele><time>2010-06-02T10:15:09Z</time></trkpt>
<trkpt lat="44.51756800" lon="5.88202800"><ele>917.721985</ele><time>2010-06-02T10:15:18Z</time></trkpt>
<trkpt lat="44.51734000" lon="5.88190000"><ele>917.296021</ele><time>2010-06-02T10:15:25Z</time></trkpt>
<trkpt lat="44.51705900" lon="5.88178600"><ele>918.911987</ele><time>2010-06-02T10:15:33Z</time></trkpt>
<trkpt lat="44.51685100" lon="5.88158700"><ele>919.963989</ele><time>2010-06-02T10:15:40Z</time></trkpt>
<trkpt lat="44.51666400" lon="5.88144100"><ele>920.687012</ele><time>2010-06-02T10:15:46Z</time></trkpt>
<trkpt lat="44.51647000" lon="5.88147800"><ele>921.338013</ele><time>2010-06-02T10:15:51Z</time></trkpt>
<trkpt lat="44.51614500" lon="5.88147300"><ele>921.744995</ele><time>2010-06-02T10:15:59Z</time></trkpt>
<trkpt lat="44.51575400" lon="5.88146800"><ele>922.744019</ele><time>2010-06-02T10:16:09Z</time></trkpt>
<trkpt lat="44.51541200" lon="5.88152500"><ele>923.093994</ele><time>2010-06-02T10:16:18Z</time></trkpt>
<trkpt lat="44.51517800" lon="5.88153200"><ele>923.28302</ele><time>2010-06-02T10:16:24Z</time></trkpt>
<trkpt lat="44.51494900" lon="5.88147200"><ele>923.651978</ele><time>2010-06-02T10:16:30Z</time></trkpt>
<trkpt lat="44.51465700" lon="5.88132600"><ele>924.663025</ele><time>2010-06-02T10:16:38Z</time></trkpt>
<trkpt lat="44.51430000" lon="5.88109400"><ele>925.237</ele><time>2010-06-02T10:16:48Z</time></trkpt>
<trkpt lat="44.51400200" lon="5.88096100"><ele>925.099976</ele><time>2010-06-02T10:16:56Z</time></trkpt>
<trkpt lat="44.51376900" lon="5.88089200"><ele>925.512024</ele><time>2010-06-02T10:17:02Z</time></trkpt>
<trkpt lat="44.51351200" lon="5.88072100"><ele>926.028015</ele><time>2010-06-02T10:17:09Z</time></trkpt>
<trkpt lat="44.51322500" lon="5.88043900"><ele>927.158997</ele><time>2010-06-02T10:17:18Z</time></trkpt>
<trkpt lat="44.51295100" lon="5.88011100"><ele>927.333984</ele><time>2010-06-02T10:17:26Z</time></trkpt>
<trkpt lat="44.51258100" lon="5.87961700"><ele>927.752014</ele><time>2010-06-02T10:17:37Z</time></trkpt>
<trkpt lat="44.51228200" lon="5.87925900"><ele>928.130981</ele><time>2010-06-02T10:17:46Z</time></trkpt>
<trkpt lat="44.51192800" lon="5.87889000"><ele>928.309998</ele><time>2010-06-02T10:17:56Z</time></trkpt>
<trkpt lat="44.51170800" lon="5.87867400"><ele>928.192993</ele><time>2010-06-02T10:18:02Z</time></trkpt>
<trkpt lat="44.51149400" lon="5.87863200"><ele>928.054993</ele><time>2010-06-02T10:18:07Z</time></trkpt>
<trkpt lat="44.51141800" lon="5.87869000"><ele>928.047974</ele><time>2010-06-02T10:18:09Z</time></trkpt>
<trkpt lat="44.51102600" lon="5.87902500"><ele>928.479004</ele><time>2010-06-02T10:18:19Z</time></trkpt>
<trkpt lat="44.51093300" lon="5.87909300"><ele>928.440002</ele><time>2010-06-02T10:18:21Z</time></trkpt>
<trkpt lat="44.51057800" lon="5.87939100"><ele>928.083984</ele><time>2010-06-02T10:18:28Z</time></trkpt>
<trkpt lat="44.51013700" lon="5.87975900"><ele>928.252014</ele><time>2010-06-02T10:18:36Z</time></trkpt>
<trkpt lat="44.50966000" lon="5.88014600"><ele>928.687012</ele><time>2010-06-02T10:18:45Z</time></trkpt>
<trkpt lat="44.50927600" lon="5.88046300"><ele>929.632019</ele><time>2010-06-02T10:18:53Z</time></trkpt>
<trkpt lat="44.50873300" lon="5.88091800"><ele>931.054016</ele><time>2010-06-02T10:19:05Z</time></trkpt>
<trkpt lat="44.50838100" lon="5.88120400"><ele>931.994995</ele><time>2010-06-02T10:19:13Z</time></trkpt>
<trkpt lat="44.50792700" lon="5.88157400"><ele>932.89801</ele><time>2010-06-02T10:19:24Z</time></trkpt>
<trkpt lat="44.50762900" lon="5.88181700"><ele>933.817993</ele><time>2010-06-02T10:19:32Z</time></trkpt>
<trkpt lat="44.50738500" lon="5.88202100"><ele>934.080994</ele><time>2010-06-02T10:19:39Z</time></trkpt>
<trkpt lat="44.50709800" lon="5.88224800"><ele>934.93103</ele><time>2010-06-02T10:19:47Z</time></trkpt>
<trkpt lat="44.50682200" lon="5.88248700"><ele>935.405029</ele><time>2010-06-02T10:19:55Z</time></trkpt>
<trkpt lat="44.50655100" lon="5.88272000"><ele>935.828979</ele><time>2010-06-02T10:20:03Z</time></trkpt>
<trkpt lat="44.50625600" lon="5.88299800"><ele>937.317993</ele><time>2010-06-02T10:20:12Z</time></trkpt>
<trkpt lat="44.50603900" lon="5.88321100"><ele>938.073975</ele><time>2010-06-02T10:20:19Z</time></trkpt>
<trkpt lat="44.50582400" lon="5.88335800"><ele>939.450012</ele><time>2010-06-02T10:20:26Z</time></trkpt>
<trkpt lat="44.50563400" lon="5.88355700"><ele>940.432007</ele><time>2010-06-02T10:20:33Z</time></trkpt>
<trkpt lat="44.50561500" lon="5.88380200"><ele>940.541016</ele><time>2010-06-02T10:20:38Z</time></trkpt>
<trkpt lat="44.50570100" lon="5.88414000"><ele>940.775024</ele><time>2010-06-02T10:20:45Z</time></trkpt>
<trkpt lat="44.50579600" lon="5.88451600"><ele>941.132996</ele><time>2010-06-02T10:20:52Z</time></trkpt>
<trkpt lat="44.50581500" lon="5.88484400"><ele>941.473999</ele><time>2010-06-02T10:20:58Z</time></trkpt>
<trkpt lat="44.50573600" lon="5.88512600"><ele>942.260986</ele><time>2010-06-02T10:21:04Z</time></trkpt>
<trkpt lat="44.50553600" lon="5.88546600"><ele>943.685974</ele><time>2010-06-02T10:21:13Z</time></trkpt>
<trkpt lat="44.50538400" lon="5.88556100"><ele>944.572998</ele><time>2010-06-02T10:21:18Z</time></trkpt>
<trkpt lat="44.50520900" lon="5.88554100"><ele>945.393982</ele><time>2010-06-02T10:21:23Z</time></trkpt>
<trkpt lat="44.50510000" lon="5.88555600"><ele>946.109985</ele><time>2010-06-02T10:21:26Z</time></trkpt>
<trkpt lat="44.50498400" lon="5.88575500"><ele>946.728027</ele><time>2010-06-02T10:21:31Z</time></trkpt>
<trkpt lat="44.50493800" lon="5.88596500"><ele>946.963989</ele><time>2010-06-02T10:21:35Z</time></trkpt>
<trkpt lat="44.50476600" lon="5.88635000"><ele>947.616028</ele><time>2010-06-02T10:21:43Z</time></trkpt>
<trkpt lat="44.50453200" lon="5.88670400"><ele>948.684021</ele><time>2010-06-02T10:21:52Z</time></trkpt>
<trkpt lat="44.50434000" lon="5.88692400"><ele>949.632996</ele><time>2010-06-02T10:21:59Z</time></trkpt>
<trkpt lat="44.50408600" lon="5.88711600"><ele>950.653015</ele><time>2010-06-02T10:22:07Z</time></trkpt>
<trkpt lat="44.50379600" lon="5.88735400"><ele>951.515015</ele><time>2010-06-02T10:22:16Z</time></trkpt>
<trkpt lat="44.50356800" lon="5.88752600"><ele>952.278015</ele><time>2010-06-02T10:22:23Z</time></trkpt>
<trkpt lat="44.50334800" lon="5.88770500"><ele>952.885986</ele><time>2010-06-02T10:22:30Z</time></trkpt>
<trkpt lat="44.50313100" lon="5.88787000"><ele>953.682007</ele><time>2010-06-02T10:22:37Z</time></trkpt>
<trkpt lat="44.50286100" lon="5.88810200"><ele>954.625</ele><time>2010-06-02T10:22:46Z</time></trkpt>
<trkpt lat="44.50266000" lon="5.88841400"><ele>955.052979</ele><time>2010-06-02T10:22:54Z</time></trkpt>
<trkpt lat="44.50246700" lon="5.88865100"><ele>955.77002</ele><time>2010-06-02T10:23:01Z</time></trkpt>
<trkpt lat="44.50222400" lon="5.88886400"><ele>956.807983</ele><time>2010-06-02T10:23:09Z</time></trkpt>
<trkpt lat="44.50197300" lon="5.88908700"><ele>957.788025</ele><time>2010-06-02T10:23:17Z</time></trkpt>
<trkpt lat="44.50179300" lon="5.88923100"><ele>958.585999</ele><time>2010-06-02T10:23:23Z</time></trkpt>
<trkpt lat="44.50164200" lon="5.88948600"><ele>958.744995</ele><time>2010-06-02T10:23:29Z</time></trkpt>
<trkpt lat="44.50142800" lon="5.88988900"><ele>960.044983</ele><time>2010-06-02T10:23:38Z</time></trkpt>
<trkpt lat="44.50126800" lon="5.89024300"><ele>960.927002</ele><time>2010-06-02T10:23:46Z</time></trkpt>
<trkpt lat="44.50120600" lon="5.89052500"><ele>961.734985</ele><time>2010-06-02T10:23:52Z</time></trkpt>
<trkpt lat="44.50120600" lon="5.89092700"><ele>962.591003</ele><time>2010-06-02T10:24:00Z</time></trkpt>
<trkpt lat="44.50117700" lon="5.89139100"><ele>963.960999</ele><time>2010-06-02T10:24:09Z</time></trkpt>
<trkpt lat="44.50108100" lon="5.89171900"><ele>965.239014</ele><time>2010-06-02T10:24:16Z</time></trkpt>
<trkpt lat="44.50098500" lon="5.89214400"><ele>965.898987</ele><time>2010-06-02T10:24:25Z</time></trkpt>
<trkpt lat="44.50094000" lon="5.89260800"><ele>965.913025</ele><time>2010-06-02T10:24:34Z</time></trkpt>
<trkpt lat="44.50085800" lon="5.89299100"><ele>966.77301</ele><time>2010-06-02T10:24:42Z</time></trkpt>
<trkpt lat="44.50072500" lon="5.89326200"><ele>967.270996</ele><time>2010-06-02T10:24:48Z</time></trkpt>
<trkpt lat="44.50047400" lon="5.89352200"><ele>967.827026</ele><time>2010-06-02T10:24:56Z</time></trkpt>
<trkpt lat="44.50022100" lon="5.89377700"><ele>968.317993</ele><time>2010-06-02T10:25:04Z</time></trkpt>
<trkpt lat="44.50000200" lon="5.89399900"><ele>968.997009</ele><time>2010-06-02T10:25:11Z</time></trkpt>
<trkpt lat="44.49970700" lon="5.89435800"><ele>969.315979</ele><time>2010-06-02T10:25:21Z</time></trkpt>
<trkpt lat="44.49952900" lon="5.89470700"><ele>971.130981</ele><time>2010-06-02T10:25:29Z</time></trkpt>
<trkpt lat="44.49929100" lon="5.89507900"><ele>972.137024</ele><time>2010-06-02T10:25:39Z</time></trkpt>
<trkpt lat="44.49919600" lon="5.89535900"><ele>972.557983</ele><time>2010-06-02T10:25:45Z</time></trkpt>
<trkpt lat="44.49908000" lon="5.89563500"><ele>972.776001</ele><time>2010-06-02T10:25:51Z</time></trkpt>
<trkpt lat="44.49890300" lon="5.89583200"><ele>973.552979</ele><time>2010-06-02T10:25:57Z</time></trkpt>
<trkpt lat="44.49868800" lon="5.89593000"><ele>974.262024</ele><time>2010-06-02T10:26:03Z</time></trkpt>
<trkpt lat="44.49847900" lon="5.89603900"><ele>974.922974</ele><time>2010-06-02T10:26:09Z</time></trkpt>
<trkpt lat="44.49830100" lon="5.89609700"><ele>975.247009</ele><time>2010-06-02T10:26:14Z</time></trkpt>
<trkpt lat="44.49799700" lon="5.89620700"><ele>976.06897</ele><time>2010-06-02T10:26:22Z</time></trkpt>
<trkpt lat="44.49778200" lon="5.89617300"><ele>976.901978</ele><time>2010-06-02T10:26:28Z</time></trkpt>
<trkpt lat="44.49751200" lon="5.89603300"><ele>978.012024</ele><time>2010-06-02T10:26:36Z</time></trkpt>
<trkpt lat="44.49733500" lon="5.89582600"><ele>978.716003</ele><time>2010-06-02T10:26:42Z</time></trkpt>
<trkpt lat="44.49725500" lon="5.89558800"><ele>979.229004</ele><time>2010-06-02T10:26:47Z</time></trkpt>
<trkpt lat="44.49708400" lon="5.89540600"><ele>979.742981</ele><time>2010-06-02T10:26:54Z</time></trkpt>
<trkpt lat="44.49702500" lon="5.89544100"><ele>979.715027</ele><time>2010-06-02T10:26:56Z</time></trkpt>
<trkpt lat="44.49684400" lon="5.89555700"><ele>981.096985</ele><time>2010-06-02T10:27:03Z</time></trkpt>
<trkpt lat="44.49666600" lon="5.89559400"><ele>982.620972</ele><time>2010-06-02T10:27:10Z</time></trkpt>
<trkpt lat="44.49641500" lon="5.89570600"><ele>984.208984</ele><time>2010-06-02T10:27:19Z</time></trkpt>
<trkpt lat="44.49629000" lon="5.89585900"><ele>985.413025</ele><time>2010-06-02T10:27:25Z</time></trkpt>
<trkpt lat="44.49613900" lon="5.89605900"><ele>986.534973</ele><time>2010-06-02T10:27:33Z</time></trkpt>
<trkpt lat="44.49595300" lon="5.89623100"><ele>987.971985</ele><time>2010-06-02T10:27:41Z</time></trkpt>
<trkpt lat="44.49579600" lon="5.89633200"><ele>989.124023</ele><time>2010-06-02T10:27:48Z</time></trkpt>
<trkpt lat="44.49566800" lon="5.89644500"><ele>990.507996</ele><time>2010-06-02T10:27:55Z</time></trkpt>
<trkpt lat="44.49558600" lon="5.89654300"><ele>991.445984</ele><time>2010-06-02T10:28:00Z</time></trkpt>
<trkpt lat="44.49541800" lon="5.89668800"><ele>992.901001</ele><time>2010-06-02T10:28:08Z</time></trkpt>
<trkpt lat="44.49523800" lon="5.89681300"><ele>994.408997</ele><time>2010-06-02T10:28:16Z</time></trkpt>
<trkpt lat="44.49506200" lon="5.89695600"><ele>996.127991</ele><time>2010-06-02T10:28:26Z</time></trkpt>
<trkpt lat="44.49495700" lon="5.89712400"><ele>997.250977</ele><time>2010-06-02T10:28:34Z</time></trkpt>
<trkpt lat="44.49486600" lon="5.89725300"><ele>998.258972</ele><time>2010-06-02T10:28:40Z</time></trkpt>
<trkpt lat="44.49471600" lon="5.89740600"><ele>999.466003</ele><time>2010-06-02T10:28:48Z</time></trkpt>
<trkpt lat="44.49458300" lon="5.89754100"><ele>1001.049011</ele><time>2010-06-02T10:28:56Z</time></trkpt>
<trkpt lat="44.49439600" lon="5.89767100"><ele>1003.002014</ele><time>2010-06-02T10:29:05Z</time></trkpt>
<trkpt lat="44.49428300" lon="5.89768000"><ele>1003.903015</ele><time>2010-06-02T10:29:11Z</time></trkpt>
<trkpt lat="44.49416600" lon="5.89767300"><ele>1004.833008</ele><time>2010-06-02T10:29:17Z</time></trkpt>
<trkpt lat="44.49395000" lon="5.89770800"><ele>1006.390015</ele><time>2010-06-02T10:29:26Z</time></trkpt>
<trkpt lat="44.49379700" lon="5.89769000"><ele>1007.44397</ele><time>2010-06-02T10:29:33Z</time></trkpt>
<trkpt lat="44.49363100" lon="5.89767500"><ele>1008.846008</ele><time>2010-06-02T10:29:41Z</time></trkpt>
<trkpt lat="44.49344700" lon="5.89754800"><ele>1009.820007</ele><time>2010-06-02T10:29:49Z</time></trkpt>
<trkpt lat="44.49331400" lon="5.89739600"><ele>1011.273987</ele><time>2010-06-02T10:29:56Z</time></trkpt>
<trkpt lat="44.49317300" lon="5.89723600"><ele>1013.21698</ele><time>2010-06-02T10:30:04Z</time></trkpt>
<trkpt lat="44.49304800" lon="5.89705100"><ele>1014.724976</ele><time>2010-06-02T10:30:12Z</time></trkpt>
<trkpt lat="44.49295800" lon="5.89682700"><ele>1016.572021</ele><time>2010-06-02T10:30:20Z</time></trkpt>
<trkpt lat="44.49289500" lon="5.89667400"><ele>1017.796997</ele><time>2010-06-02T10:30:26Z</time></trkpt>
<trkpt lat="44.49276200" lon="5.89648100"><ele>1018.913025</ele><time>2010-06-02T10:30:35Z</time></trkpt>
<trkpt lat="44.49263500" lon="5.89636400"><ele>1019.195984</ele><time>2010-06-02T10:30:42Z</time></trkpt>
<trkpt lat="44.49250700" lon="5.89628700"><ele>1018.914001</ele><time>2010-06-02T10:30:49Z</time></trkpt>
<trkpt lat="44.49237800" lon="5.89617000"><ele>1019.659973</ele><time>2010-06-02T10:30:56Z</time></trkpt>
<trkpt lat="44.49224700" lon="5.89602100"><ele>1020.617981</ele><time>2010-06-02T10:31:04Z</time></trkpt>
<trkpt lat="44.49215700" lon="5.89584000"><ele>1022.741028</ele><time>2010-06-02T10:31:12Z</time></trkpt>
<trkpt lat="44.49214200" lon="5.89563100"><ele>1023.927979</ele><time>2010-06-02T10:31:20Z</time></trkpt>
<trkpt lat="44.49216200" lon="5.89546900"><ele>1025.020996</ele><time>2010-06-02T10:31:27Z</time></trkpt>
<trkpt lat="44.49216800" lon="5.89545100"><ele>1025.188965</ele><time>2010-06-02T10:31:30Z</time></trkpt>
<trkpt lat="44.49217000" lon="5.89540000"><ele>1024.969971</ele><time>2010-06-02T10:31:39Z</time></trkpt>
<trkpt lat="44.49217300" lon="5.89539400"><ele>1025.130005</ele><time>2010-06-02T10:31:40Z</time></trkpt>
<trkpt lat="44.49223400" lon="5.89533700"><ele>1026.094971</ele><time>2010-06-02T10:31:53Z</time></trkpt>
<trkpt lat="44.49230700" lon="5.89536300"><ele>1027.505005</ele><time>2010-06-02T10:37:09Z</time></trkpt>
<trkpt lat="44.49230200" lon="5.89536900"><ele>1027.529053</ele><time>2010-06-02T10:37:10Z</time></trkpt>
<trkpt lat="44.49228100" lon="5.89538100"><ele>1027.520996</ele><time>2010-06-02T10:37:13Z</time></trkpt>
<trkpt lat="44.49226800" lon="5.89537800"><ele>1027.67395</ele><time>2010-06-02T10:37:14Z</time></trkpt>
<trkpt lat="44.49223600" lon="5.89537200"><ele>1027.597046</ele><time>2010-06-02T10:37:18Z</time></trkpt>
<trkpt lat="44.49212800" lon="5.89533100"><ele>1027.729004</ele><time>2010-06-02T10:37:45Z</time></trkpt>
<trkpt lat="44.49208000" lon="5.89529200"><ele>1028.546021</ele><time>2010-06-02T10:37:49Z</time></trkpt>
<trkpt lat="44.49201700" lon="5.89528500"><ele>1029.807983</ele><time>2010-06-02T10:37:55Z</time></trkpt>
<trkpt lat="44.49192700" lon="5.89522200"><ele>1030.98999</ele><time>2010-06-02T10:38:01Z</time></trkpt>
<trkpt lat="44.49174600" lon="5.89504500"><ele>1032.748047</ele><time>2010-06-02T10:38:10Z</time></trkpt>
<trkpt lat="44.49160900" lon="5.89495500"><ele>1033.589966</ele><time>2010-06-02T10:38:17Z</time></trkpt>
<trkpt lat="44.49148000" lon="5.89493500"><ele>1034.932007</ele><time>2010-06-02T10:38:24Z</time></trkpt>
<trkpt lat="44.49128700" lon="5.89491200"><ele>1037.015991</ele><time>2010-06-02T10:38:33Z</time></trkpt>
<trkpt lat="44.49111400" lon="5.89473700"><ele>1037.875977</ele><time>2010-06-02T10:38:41Z</time></trkpt>
<trkpt lat="44.49103200" lon="5.89448500"><ele>1038.904053</ele><time>2010-06-02T10:38:49Z</time></trkpt>
<trkpt lat="44.49097100" lon="5.89422200"><ele>1040.661011</ele><time>2010-06-02T10:38:58Z</time></trkpt>
<trkpt lat="44.49091100" lon="5.89400000"><ele>1041.800049</ele><time>2010-06-02T10:39:06Z</time></trkpt>
<trkpt lat="44.49083600" lon="5.89380400"><ele>1043.42395</ele><time>2010-06-02T10:39:15Z</time></trkpt>
<trkpt lat="44.49074300" lon="5.89366200"><ele>1044.744995</ele><time>2010-06-02T10:39:23Z</time></trkpt>
<trkpt lat="44.49057700" lon="5.89359200"><ele>1045.728027</ele><time>2010-06-02T10:39:31Z</time></trkpt>
<trkpt lat="44.49044000" lon="5.89356500"><ele>1046.437988</ele><time>2010-06-02T10:39:37Z</time></trkpt>
<trkpt lat="44.49023600" lon="5.89354100"><ele>1047.713013</ele><time>2010-06-02T10:39:45Z</time></trkpt>
<trkpt lat="44.49009800" lon="5.89352900"><ele>1048.854004</ele><time>2010-06-02T10:39:51Z</time></trkpt>
<trkpt lat="44.48992300" lon="5.89356700"><ele>1050.009033</ele><time>2010-06-02T10:39:59Z</time></trkpt>
<trkpt lat="44.48981400" lon="5.89356500"><ele>1051.011963</ele><time>2010-06-02T10:40:06Z</time></trkpt>
<trkpt lat="44.48971500" lon="5.89345800"><ele>1052.026001</ele><time>2010-06-02T10:40:11Z</time></trkpt>
<trkpt lat="44.48964100" lon="5.89325200"><ele>1053.057007</ele><time>2010-06-02T10:40:18Z</time></trkpt>
<trkpt lat="44.48959100" lon="5.89297400"><ele>1054.567993</ele><time>2010-06-02T10:40:27Z</time></trkpt>
<trkpt lat="44.48955300" lon="5.89274300"><ele>1056.067017</ele><time>2010-06-02T10:40:35Z</time></trkpt>
<trkpt lat="44.48951300" lon="5.89252900"><ele>1057.477051</ele><time>2010-06-02T10:40:43Z</time></trkpt>
<trkpt lat="44.48942200" lon="5.89235700"><ele>1058.314941</ele><time>2010-06-02T10:40:50Z</time></trkpt>
<trkpt lat="44.48926100" lon="5.89210400"><ele>1059.786987</ele><time>2010-06-02T10:41:01Z</time></trkpt>
<trkpt lat="44.48918400" lon="5.89190400"><ele>1061.29895</ele><time>2010-06-02T10:41:09Z</time></trkpt>
<trkpt lat="44.48912900" lon="5.89172200"><ele>1062.654053</ele><time>2010-06-02T10:41:16Z</time></trkpt>
<trkpt lat="44.48913000" lon="5.89152500"><ele>1063.973999</ele><time>2010-06-02T10:41:23Z</time></trkpt>
<trkpt lat="44.48922300" lon="5.89133300"><ele>1065.259033</ele><time>2010-06-02T10:41:31Z</time></trkpt>
<trkpt lat="44.48935700" lon="5.89116600"><ele>1066.503052</ele><time>2010-06-02T10:41:39Z</time></trkpt>
<trkpt lat="44.48943200" lon="5.89096300"><ele>1066.447021</ele><time>2010-06-02T10:41:46Z</time></trkpt>
<trkpt lat="44.48953000" lon="5.89078100"><ele>1068.275024</ele><time>2010-06-02T10:41:53Z</time></trkpt>
<trkpt lat="44.48966700" lon="5.89056100"><ele>1069.636963</ele><time>2010-06-02T10:42:02Z</time></trkpt>
<trkpt lat="44.48969800" lon="5.89040500"><ele>1070.557983</ele><time>2010-06-02T10:42:08Z</time></trkpt>
<trkpt lat="44.48956600" lon="5.89035200"><ele>1071.083984</ele><time>2010-06-02T10:42:14Z</time></trkpt>
<trkpt lat="44.48946300" lon="5.89041100"><ele>1071.374023</ele><time>2010-06-02T10:42:18Z</time></trkpt>
<trkpt lat="44.48930000" lon="5.89052000"><ele>1072.030029</ele><time>2010-06-02T10:42:24Z</time></trkpt>
<trkpt lat="44.48900800" lon="5.89067200"><ele>1073.416992</ele><time>2010-06-02T10:42:34Z</time></trkpt>
<trkpt lat="44.48883900" lon="5.89071500"><ele>1074.541992</ele><time>2010-06-02T10:42:41Z</time></trkpt>
<trkpt lat="44.48873000" lon="5.89061800"><ele>1075.817017</ele><time>2010-06-02T10:42:46Z</time></trkpt>
<trkpt lat="44.48866700" lon="5.89041900"><ele>1076.630981</ele><time>2010-06-02T10:42:52Z</time></trkpt>
<trkpt lat="44.48858700" lon="5.89020700"><ele>1077.616943</ele><time>2010-06-02T10:42:59Z</time></trkpt>
<trkpt lat="44.48845400" lon="5.89004400"><ele>1078.937988</ele><time>2010-06-02T10:43:07Z</time></trkpt>
<trkpt lat="44.48829700" lon="5.89002200"><ele>1080.224976</ele><time>2010-06-02T10:43:14Z</time></trkpt>
<trkpt lat="44.48818100" lon="5.88994700"><ele>1081.369995</ele><time>2010-06-02T10:43:20Z</time></trkpt>
<trkpt lat="44.48811300" lon="5.88991000"><ele>1081.734009</ele><time>2010-06-02T10:43:23Z</time></trkpt>
<trkpt lat="44.48797400" lon="5.88991600"><ele>1082.812988</ele><time>2010-06-02T10:43:30Z</time></trkpt>
<trkpt lat="44.48776800" lon="5.88986400"><ele>1084.458008</ele><time>2010-06-02T10:43:40Z</time></trkpt>
<trkpt lat="44.48765100" lon="5.88975400"><ele>1085.805054</ele><time>2010-06-02T10:43:47Z</time></trkpt>
<trkpt lat="44.48753800" lon="5.88956800"><ele>1087.082031</ele><time>2010-06-02T10:43:55Z</time></trkpt>
<trkpt lat="44.48736900" lon="5.88940500"><ele>1088.442993</ele><time>2010-06-02T10:44:03Z</time></trkpt>
<trkpt lat="44.48721800" lon="5.88929700"><ele>1089.313965</ele><time>2010-06-02T10:44:10Z</time></trkpt>
<trkpt lat="44.48707200" lon="5.88924600"><ele>1090.496948</ele><time>2010-06-02T10:44:17Z</time></trkpt>
<trkpt lat="44.48690000" lon="5.88915500"><ele>1091.838989</ele><time>2010-06-02T10:44:26Z</time></trkpt>
<trkpt lat="44.48674300" lon="5.88912200"><ele>1093.109009</ele><time>2010-06-02T10:44:34Z</time></trkpt>
<trkpt lat="44.48651400" lon="5.88917500"><ele>1094.751953</ele><time>2010-06-02T10:44:45Z</time></trkpt>
<trkpt lat="44.48635300" lon="5.88923100"><ele>1095.991943</ele><time>2010-06-02T10:44:53Z</time></trkpt>
<trkpt lat="44.48619900" lon="5.88927600"><ele>1097.21106</ele><time>2010-06-02T10:45:01Z</time></trkpt>
<trkpt lat="44.48607300" lon="5.88934800"><ele>1098.182007</ele><time>2010-06-02T10:45:08Z</time></trkpt>
<trkpt lat="44.48592600" lon="5.88942100"><ele>1099.612061</ele><time>2010-06-02T10:45:16Z</time></trkpt>
<trkpt lat="44.48581400" lon="5.88936100"><ele>1100.578003</ele><time>2010-06-02T10:45:22Z</time></trkpt>
<trkpt lat="44.48574900" lon="5.88921600"><ele>1101.598999</ele><time>2010-06-02T10:45:28Z</time></trkpt>
<trkpt lat="44.48563900" lon="5.88903100"><ele>1102.822998</ele><time>2010-06-02T10:45:36Z</time></trkpt>
<trkpt lat="44.48554200" lon="5.88887700"><ele>1103.462036</ele><time>2010-06-02T10:45:42Z</time></trkpt>
<trkpt lat="44.48543900" lon="5.88876600"><ele>1104.343018</ele><time>2010-06-02T10:45:49Z</time></trkpt>
<trkpt lat="44.48532800" lon="5.88868400"><ele>1105.312988</ele><time>2010-06-02T10:45:55Z</time></trkpt>
<trkpt lat="44.48522100" lon="5.88861300"><ele>1105.354004</ele><time>2010-06-02T10:46:02Z</time></trkpt>
<trkpt lat="44.48509200" lon="5.88856400"><ele>1105.400024</ele><time>2010-06-02T10:46:08Z</time></trkpt>
<trkpt lat="44.48499900" lon="5.88847500"><ele>1107.886963</ele><time>2010-06-02T10:46:14Z</time></trkpt>
<trkpt lat="44.48496100" lon="5.88844300"><ele>1110.092041</ele><time>2010-06-02T10:46:17Z</time></trkpt>
<trkpt lat="44.48485000" lon="5.88834000"><ele>1110.459961</ele><time>2010-06-02T10:46:24Z</time></trkpt>
<trkpt lat="44.48471700" lon="5.88827200"><ele>1111.853027</ele><time>2010-06-02T10:46:29Z</time></trkpt>
<trkpt lat="44.48458600" lon="5.88811000"><ele>1112.084961</ele><time>2010-06-02T10:46:37Z</time></trkpt>
<trkpt lat="44.48455000" lon="5.88807700"><ele>1112.491943</ele><time>2010-06-02T10:46:39Z</time></trkpt>
<trkpt lat="44.48437700" lon="5.88799100"><ele>1114.708008</ele><time>2010-06-02T10:46:47Z</time></trkpt>
<trkpt lat="44.48420200" lon="5.88801100"><ele>1115.496948</ele><time>2010-06-02T10:46:55Z</time></trkpt>
<trkpt lat="44.48404700" lon="5.88802900"><ele>1116.32605</ele><time>2010-06-02T10:47:02Z</time></trkpt>
<trkpt lat="44.48386500" lon="5.88806100"><ele>1116.832031</ele><time>2010-06-02T10:47:10Z</time></trkpt>
<trkpt lat="44.48368800" lon="5.88811200"><ele>1117.067993</ele><time>2010-06-02T10:47:17Z</time></trkpt>
<trkpt lat="44.48345800" lon="5.88821800"><ele>1118.338013</ele><time>2010-06-02T10:47:26Z</time></trkpt>
<trkpt lat="44.48324300" lon="5.88832800"><ele>1119.234985</ele><time>2010-06-02T10:47:34Z</time></trkpt>
<trkpt lat="44.48303000" lon="5.88834800"><ele>1120.651978</ele><time>2010-06-02T10:47:42Z</time></trkpt>
<trkpt lat="44.48281700" lon="5.88829500"><ele>1121.870972</ele><time>2010-06-02T10:47:50Z</time></trkpt>
<trkpt lat="44.48257900" lon="5.88828900"><ele>1123.984985</ele><time>2010-06-02T10:47:59Z</time></trkpt>
<trkpt lat="44.48231900" lon="5.88832100"><ele>1125.249023</ele><time>2010-06-02T10:48:09Z</time></trkpt>
<trkpt lat="44.48206700" lon="5.88826600"><ele>1127.093994</ele><time>2010-06-02T10:48:19Z</time></trkpt>
<trkpt lat="44.48190800" lon="5.88827300"><ele>1128.100952</ele><time>2010-06-02T10:48:25Z</time></trkpt>
<trkpt lat="44.48170900" lon="5.88831600"><ele>1129.785034</ele><time>2010-06-02T10:48:33Z</time></trkpt>
<trkpt lat="44.48148500" lon="5.88839600"><ele>1131.420044</ele><time>2010-06-02T10:48:42Z</time></trkpt>
<trkpt lat="44.48126400" lon="5.88854700"><ele>1133.293945</ele><time>2010-06-02T10:48:51Z</time></trkpt>
<trkpt lat="44.48103600" lon="5.88863500"><ele>1134.588989</ele><time>2010-06-02T10:48:59Z</time></trkpt>
<trkpt lat="44.48075700" lon="5.88870700"><ele>1136.050049</ele><time>2010-06-02T10:49:08Z</time></trkpt>
<trkpt lat="44.48049200" lon="5.88881200"><ele>1137.043945</ele><time>2010-06-02T10:49:17Z</time></trkpt>
<trkpt lat="44.48023100" lon="5.88891500"><ele>1138.088989</ele><time>2010-06-02T10:49:26Z</time></trkpt>
<trkpt lat="44.47996100" lon="5.88899000"><ele>1138.678955</ele><time>2010-06-02T10:49:35Z</time></trkpt>
<trkpt lat="44.47974500" lon="5.88895800"><ele>1139.758057</ele><time>2010-06-02T10:49:42Z</time></trkpt>
<trkpt lat="44.47954000" lon="5.88878300"><ele>1140.644043</ele><time>2010-06-02T10:49:50Z</time></trkpt>
<trkpt lat="44.47935300" lon="5.88863800"><ele>1141.387939</ele><time>2010-06-02T10:49:57Z</time></trkpt>
<trkpt lat="44.47916500" lon="5.88858500"><ele>1141.915039</ele><time>2010-06-02T10:50:03Z</time></trkpt>
<trkpt lat="44.47885000" lon="5.88854000"><ele>1143.135986</ele><time>2010-06-02T10:50:13Z</time></trkpt>
<trkpt lat="44.47863300" lon="5.88851900"><ele>1143.829956</ele><time>2010-06-02T10:50:20Z</time></trkpt>
<trkpt lat="44.47835000" lon="5.88846600"><ele>1144.984009</ele><time>2010-06-02T10:50:29Z</time></trkpt>
<trkpt lat="44.47819300" lon="5.88833400"><ele>1146.454956</ele><time>2010-06-02T10:50:35Z</time></trkpt>
<trkpt lat="44.47810100" lon="5.88802700"><ele>1147.800049</ele><time>2010-06-02T10:50:43Z</time></trkpt>
<trkpt lat="44.47803000" lon="5.88774700"><ele>1148.081055</ele><time>2010-06-02T10:50:50Z</time></trkpt>
<trkpt lat="44.47792900" lon="5.88750400"><ele>1148.16394</ele><time>2010-06-02T10:50:57Z</time></trkpt>
<trkpt lat="44.47777500" lon="5.88740700"><ele>1148.222046</ele><time>2010-06-02T10:51:03Z</time></trkpt>
<trkpt lat="44.47767400" lon="5.88738900"><ele>1148.307007</ele><time>2010-06-02T10:51:07Z</time></trkpt>
<trkpt lat="44.47758500" lon="5.88740000"><ele>1147.873047</ele><time>2010-06-02T10:51:11Z</time></trkpt>
<trkpt lat="44.47744200" lon="5.88742200"><ele>1147.564941</ele><time>2010-06-02T10:51:18Z</time></trkpt>
<trkpt lat="44.47737800" lon="5.88738400"><ele>1146.272949</ele><time>2010-06-02T10:51:24Z</time></trkpt>
<trkpt lat="44.47737800" lon="5.88738500"><ele>1146.203003</ele><time>2010-06-02T10:51:25Z</time></trkpt>
<trkpt lat="44.47741700" lon="5.88748100"><ele>1145.047974</ele><time>2010-06-02T10:52:09Z</time></trkpt>
<trkpt lat="44.47743300" lon="5.88751300"><ele>1146.593994</ele><time>2010-06-02T10:52:15Z</time></trkpt>
<trkpt lat="44.47733300" lon="5.88764200"><ele>1146.968994</ele><time>2010-06-02T10:52:27Z</time></trkpt>
<trkpt lat="44.47727300" lon="5.88783600"><ele>1147.447998</ele><time>2010-06-02T10:52:33Z</time></trkpt>
<trkpt lat="44.47724900" lon="5.88811100"><ele>1147.22998</ele><time>2010-06-02T10:52:40Z</time></trkpt>
<trkpt lat="44.47730200" lon="5.88830700"><ele>1148.23999</ele><time>2010-06-02T10:52:45Z</time></trkpt>
<trkpt lat="44.47738200" lon="5.88843600"><ele>1149.692017</ele><time>2010-06-02T10:52:49Z</time></trkpt>
<trkpt lat="44.47742600" lon="5.88870100"><ele>1151.225952</ele><time>2010-06-02T10:52:55Z</time></trkpt>
<trkpt lat="44.47740800" lon="5.88912300"><ele>1151.802002</ele><time>2010-06-02T10:53:03Z</time></trkpt>
<trkpt lat="44.47735400" lon="5.88948900"><ele>1152.863037</ele><time>2010-06-02T10:53:10Z</time></trkpt>
<trkpt lat="44.47723100" lon="5.88967100"><ele>1154.104004</ele><time>2010-06-02T10:53:15Z</time></trkpt>
<trkpt lat="44.47707900" lon="5.88968900"><ele>1155.156006</ele><time>2010-06-02T10:53:19Z</time></trkpt>
<trkpt lat="44.47683800" lon="5.88954500"><ele>1157.042969</ele><time>2010-06-02T10:53:26Z</time></trkpt>
<trkpt lat="44.47658600" lon="5.88943300"><ele>1157.795044</ele><time>2010-06-02T10:53:33Z</time></trkpt>
<trkpt lat="44.47634800" lon="5.88922300"><ele>1159.161987</ele><time>2010-06-02T10:53:41Z</time></trkpt>
<trkpt lat="44.47612500" lon="5.88903200"><ele>1159.401001</ele><time>2010-06-02T10:53:48Z</time></trkpt>
<trkpt lat="44.47598200" lon="5.88903100"><ele>1159.467041</ele><time>2010-06-02T10:53:52Z</time></trkpt>
<trkpt lat="44.47575500" lon="5.88923100"><ele>1159.02002</ele><time>2010-06-02T10:53:59Z</time></trkpt>
<trkpt lat="44.47550100" lon="5.88944100"><ele>1159.813965</ele><time>2010-06-02T10:54:07Z</time></trkpt>
<trkpt lat="44.47529300" lon="5.88950700"><ele>1160.713989</ele><time>2010-06-02T10:54:13Z</time></trkpt>
<trkpt lat="44.47515500" lon="5.88936000"><ele>1161.727051</ele><time>2010-06-02T10:54:18Z</time></trkpt>
<trkpt lat="44.47502000" lon="5.88907000"><ele>1161.578979</ele><time>2010-06-02T10:54:25Z</time></trkpt>
<trkpt lat="44.47488800" lon="5.88895100"><ele>1161.921997</ele><time>2010-06-02T10:54:29Z</time></trkpt>
<trkpt lat="44.47462400" lon="5.88884400"><ele>1162.369019</ele><time>2010-06-02T10:54:36Z</time></trkpt>
<trkpt lat="44.47458600" lon="5.88883800"><ele>1162.503052</ele><time>2010-06-02T10:54:37Z</time></trkpt>
<trkpt lat="44.47433000" lon="5.88875700"><ele>1162.732056</ele><time>2010-06-02T10:54:43Z</time></trkpt>
<trkpt lat="44.47410600" lon="5.88865200"><ele>1163.449951</ele><time>2010-06-02T10:54:48Z</time></trkpt>
<trkpt lat="44.47384000" lon="5.88855000"><ele>1164.52002</ele><time>2010-06-02T10:54:55Z</time></trkpt>
<trkpt lat="44.47364100" lon="5.88853200"><ele>1165.831055</ele><time>2010-06-02T10:55:01Z</time></trkpt>
<trkpt lat="44.47341700" lon="5.88849100"><ele>1165.062988</ele><time>2010-06-02T10:55:08Z</time></trkpt>
<trkpt lat="44.47331800" lon="5.88843300"><ele>1163.55603</ele><time>2010-06-02T10:55:13Z</time></trkpt>
<trkpt lat="44.47328200" lon="5.88838000"><ele>1163.032959</ele><time>2010-06-02T10:55:18Z</time></trkpt>
<trkpt lat="44.47329000" lon="5.88835800"><ele>1161.98999</ele><time>2010-06-02T10:56:55Z</time></trkpt>
<trkpt lat="44.47327800" lon="5.88833500"><ele>1161.963013</ele><time>2010-06-02T10:56:56Z</time></trkpt>
<trkpt lat="44.47318700" lon="5.88812600"><ele>1161.790039</ele><time>2010-06-02T10:57:02Z</time></trkpt>
<trkpt lat="44.47317300" lon="5.88807500"><ele>1161.718994</ele><time>2010-06-02T10:57:03Z</time></trkpt>
<trkpt lat="44.47321500" lon="5.88786900"><ele>1161.564941</ele><time>2010-06-02T10:57:07Z</time></trkpt>
<trkpt lat="44.47330300" lon="5.88768800"><ele>1161.129028</ele><time>2010-06-02T10:57:11Z</time></trkpt>
<trkpt lat="44.47324500" lon="5.88754700"><ele>1161.303955</ele><time>2010-06-02T10:57:14Z</time></trkpt>
<trkpt lat="44.47321200" lon="5.88751600"><ele>1161.172974</ele><time>2010-06-02T10:57:15Z</time></trkpt>
<trkpt lat="44.47294400" lon="5.88730800"><ele>1161.13501</ele><time>2010-06-02T10:57:23Z</time></trkpt>
<trkpt lat="44.47280300" lon="5.88721900"><ele>1160.734985</ele><time>2010-06-02T10:57:27Z</time></trkpt>
<trkpt lat="44.47267000" lon="5.88699800"><ele>1160.319946</ele><time>2010-06-02T10:57:32Z</time></trkpt>
<trkpt lat="44.47266100" lon="5.88682500"><ele>1160.194946</ele><time>2010-06-02T10:57:35Z</time></trkpt>
<trkpt lat="44.47276000" lon="5.88633900"><ele>1160.522949</ele><time>2010-06-02T10:57:44Z</time></trkpt>
<trkpt lat="44.47275700" lon="5.88628500"><ele>1160.567993</ele><time>2010-06-02T10:57:45Z</time></trkpt>
<trkpt lat="44.47263200" lon="5.88617700"><ele>1160.456055</ele><time>2010-06-02T10:57:49Z</time></trkpt>
<trkpt lat="44.47250000" lon="5.88621700"><ele>1159.896973</ele><time>2010-06-02T10:57:52Z</time></trkpt>
<trkpt lat="44.47240800" lon="5.88627400"><ele>1159.505981</ele><time>2010-06-02T10:57:54Z</time></trkpt>
<trkpt lat="44.47228100" lon="5.88641200"><ele>1159.525024</ele><time>2010-06-02T10:57:57Z</time></trkpt>
<trkpt lat="44.47213900" lon="5.88664100"><ele>1159.208984</ele><time>2010-06-02T10:58:01Z</time></trkpt>
<trkpt lat="44.47196500" lon="5.88677300"><ele>1158.430054</ele><time>2010-06-02T10:58:05Z</time></trkpt>
<trkpt lat="44.47186800" lon="5.88675200"><ele>1158.185059</ele><time>2010-06-02T10:58:07Z</time></trkpt>
<trkpt lat="44.47182200" lon="5.88672300"><ele>1158.240967</ele><time>2010-06-02T10:58:08Z</time></trkpt>
<trkpt lat="44.47164900" lon="5.88655200"><ele>1157.167969</ele><time>2010-06-02T10:58:12Z</time></trkpt>
<trkpt lat="44.47149200" lon="5.88655700"><ele>1156.86499</ele><time>2010-06-02T10:58:15Z</time></trkpt>
<trkpt lat="44.47144600" lon="5.88659300"><ele>1156.811035</ele><time>2010-06-02T10:58:16Z</time></trkpt>
<trkpt lat="44.47119200" lon="5.88667800"><ele>1156.485962</ele><time>2010-06-02T10:58:21Z</time></trkpt>
<trkpt lat="44.47110500" lon="5.88654200"><ele>1156.843994</ele><time>2010-06-02T10:58:24Z</time></trkpt>
<trkpt lat="44.47111000" lon="5.88648500"><ele>1156.962036</ele><time>2010-06-02T10:58:25Z</time></trkpt>
<trkpt lat="44.47116700" lon="5.88619000"><ele>1155.44104</ele><time>2010-06-02T10:58:30Z</time></trkpt>
<trkpt lat="44.47109200" lon="5.88600400"><ele>1155.564941</ele><time>2010-06-02T10:58:34Z</time></trkpt>
<trkpt lat="44.47104600" lon="5.88599500"><ele>1155.51001</ele><time>2010-06-02T10:58:35Z</time></trkpt>
<trkpt lat="44.47095400" lon="5.88599200"><ele>1155.241943</ele><time>2010-06-02T10:58:37Z</time></trkpt>
<trkpt lat="44.47076600" lon="5.88587200"><ele>1155.235962</ele><time>2010-06-02T10:58:42Z</time></trkpt>
<trkpt lat="44.47072600" lon="5.88564200"><ele>1155.026978</ele><time>2010-06-02T10:58:46Z</time></trkpt>
<trkpt lat="44.47061500" lon="5.88557100"><ele>1154.666016</ele><time>2010-06-02T10:58:49Z</time></trkpt>
<trkpt lat="44.47054100" lon="5.88564100"><ele>1154.58606</ele><time>2010-06-02T10:58:51Z</time></trkpt>
<trkpt lat="44.47029600" lon="5.88593900"><ele>1154.666992</ele><time>2010-06-02T10:58:57Z</time></trkpt>
<trkpt lat="44.47005500" lon="5.88622700"><ele>1153.551025</ele><time>2010-06-02T10:59:03Z</time></trkpt>
<trkpt lat="44.46980600" lon="5.88636700"><ele>1153.019043</ele><time>2010-06-02T10:59:08Z</time></trkpt>
<trkpt lat="44.46954900" lon="5.88634800"><ele>1152.730957</ele><time>2010-06-02T10:59:13Z</time></trkpt>
<trkpt lat="44.46936300" lon="5.88624500"><ele>1152.137939</ele><time>2010-06-02T10:59:17Z</time></trkpt>
<trkpt lat="44.46913800" lon="5.88591800"><ele>1151.791016</ele><time>2010-06-02T10:59:23Z</time></trkpt>
<trkpt lat="44.46901800" lon="5.88564200"><ele>1151.791992</ele><time>2010-06-02T10:59:27Z</time></trkpt>
<trkpt lat="44.46881700" lon="5.88554300"><ele>1152.061035</ele><time>2010-06-02T10:59:31Z</time></trkpt>
<trkpt lat="44.46876300" lon="5.88556400"><ele>1151.958984</ele><time>2010-06-02T10:59:32Z</time></trkpt>
<trkpt lat="44.46865900" lon="5.88560700"><ele>1151.447021</ele><time>2010-06-02T10:59:34Z</time></trkpt>
<trkpt lat="44.46844700" lon="5.88561700"><ele>1150.635986</ele><time>2010-06-02T10:59:38Z</time></trkpt>
<trkpt lat="44.46825700" lon="5.88572900"><ele>1151.095947</ele><time>2010-06-02T10:59:42Z</time></trkpt>
<trkpt lat="44.46812700" lon="5.88576200"><ele>1151.180054</ele><time>2010-06-02T10:59:45Z</time></trkpt>
<trkpt lat="44.46807700" lon="5.88563800"><ele>1151.001953</ele><time>2010-06-02T10:59:47Z</time></trkpt>
<trkpt lat="44.46808500" lon="5.88541500"><ele>1151.819946</ele><time>2010-06-02T10:59:50Z</time></trkpt>
<trkpt lat="44.46810800" lon="5.88510600"><ele>1154.629028</ele><time>2010-06-02T10:59:54Z</time></trkpt>
<trkpt lat="44.46805900" lon="5.88471500"><ele>1155.417969</ele><time>2010-06-02T10:59:59Z</time></trkpt>
<trkpt lat="44.46796000" lon="5.88445300"><ele>1156.677979</ele><time>2010-06-02T11:00:03Z</time></trkpt>
<trkpt lat="44.46785500" lon="5.88430500"><ele>1153.871948</ele><time>2010-06-02T11:00:06Z</time></trkpt>
<trkpt lat="44.46750300" lon="5.88397300"><ele>1150.515015</ele><time>2010-06-02T11:00:14Z</time></trkpt>
<trkpt lat="44.46727800" lon="5.88388400"><ele>1150.812012</ele><time>2010-06-02T11:00:18Z</time></trkpt>
<trkpt lat="44.46699700" lon="5.88360000"><ele>1149.303955</ele><time>2010-06-02T11:00:23Z</time></trkpt>
<trkpt lat="44.46682800" lon="5.88334100"><ele>1147.930054</ele><time>2010-06-02T11:00:26Z</time></trkpt>
<trkpt lat="44.46663400" lon="5.88298000"><ele>1145.995972</ele><time>2010-06-02T11:00:30Z</time></trkpt>
<trkpt lat="44.46647100" lon="5.88278000"><ele>1143.499023</ele><time>2010-06-02T11:00:33Z</time></trkpt>
<trkpt lat="44.46626200" lon="5.88274500"><ele>1142.420044</ele><time>2010-06-02T11:00:36Z</time></trkpt>
<trkpt lat="44.46602300" lon="5.88298600"><ele>1138.092041</ele><time>2010-06-02T11:00:41Z</time></trkpt>
<trkpt lat="44.46588800" lon="5.88348100"><ele>1136.594971</ele><time>2010-06-02T11:00:46Z</time></trkpt>
<trkpt lat="44.46583800" lon="5.88383600"><ele>1135.473999</ele><time>2010-06-02T11:00:49Z</time></trkpt>
<trkpt lat="44.46568800" lon="5.88414300"><ele>1134.892944</ele><time>2010-06-02T11:00:53Z</time></trkpt>
<trkpt lat="44.46548400" lon="5.88414000"><ele>1131.240967</ele><time>2010-06-02T11:00:56Z</time></trkpt>
<trkpt lat="44.46542400" lon="5.88414500"><ele>1130.94104</ele><time>2010-06-02T11:00:57Z</time></trkpt>
<trkpt lat="44.46533400" lon="5.88428800"><ele>1130.821045</ele><time>2010-06-02T11:01:00Z</time></trkpt>
<trkpt lat="44.46536400" lon="5.88442300"><ele>1130.660034</ele><time>2010-06-02T11:01:02Z</time></trkpt>
<trkpt lat="44.46548900" lon="5.88479400"><ele>1127.421021</ele><time>2010-06-02T11:01:07Z</time></trkpt>
<trkpt lat="44.46565100" lon="5.88522300"><ele>1124.812012</ele><time>2010-06-02T11:01:12Z</time></trkpt>
<trkpt lat="44.46568900" lon="5.88540700"><ele>1123.80896</ele><time>2010-06-02T11:01:14Z</time></trkpt>
<trkpt lat="44.46567100" lon="5.88572800"><ele>1121.616943</ele><time>2010-06-02T11:01:18Z</time></trkpt>
<trkpt lat="44.46558300" lon="5.88578800"><ele>1121.011963</ele><time>2010-06-02T11:01:20Z</time></trkpt>
<trkpt lat="44.46552600" lon="5.88577500"><ele>1120.848022</ele><time>2010-06-02T11:01:21Z</time></trkpt>
<trkpt lat="44.46511300" lon="5.88578200"><ele>1118.213989</ele><time>2010-06-02T11:01:27Z</time></trkpt>
<trkpt lat="44.46503600" lon="5.88579700"><ele>1118</ele><time>2010-06-02T11:01:28Z</time></trkpt>
<trkpt lat="44.46488600" lon="5.88582200"><ele>1117.213989</ele><time>2010-06-02T11:01:30Z</time></trkpt>
<trkpt lat="44.46469900" lon="5.88601900"><ele>1114.051025</ele><time>2010-06-02T11:01:34Z</time></trkpt>
<trkpt lat="44.46468100" lon="5.88618800"><ele>1112.362061</ele><time>2010-06-02T11:01:37Z</time></trkpt>
<trkpt lat="44.46469000" lon="5.88625400"><ele>1111.821045</ele><time>2010-06-02T11:01:41Z</time></trkpt>
<trkpt lat="44.46469900" lon="5.88628900"><ele>1112.647949</ele><time>2010-06-02T11:01:49Z</time></trkpt>
<trkpt lat="44.46469700" lon="5.88632100"><ele>1112.612061</ele><time>2010-06-02T11:01:50Z</time></trkpt>
<trkpt lat="44.46467600" lon="5.88656800"><ele>1112.713013</ele><time>2010-06-02T11:01:56Z</time></trkpt>
<trkpt lat="44.46465800" lon="5.88669500"><ele>1112.307007</ele><time>2010-06-02T11:02:01Z</time></trkpt>
<trkpt lat="44.46465900" lon="5.88669000"><ele>1112.286987</ele><time>2010-06-02T11:02:02Z</time></trkpt>
<trkpt lat="44.46466000" lon="5.88671800"><ele>1112.05603</ele><time>2010-06-02T11:02:08Z</time></trkpt>
<trkpt lat="44.46465900" lon="5.88672600"><ele>1112.671997</ele><time>2010-06-02T11:02:10Z</time></trkpt>
<trkpt lat="44.46457400" lon="5.88662700"><ele>1116.180054</ele><time>2010-06-02T11:17:47Z</time></trkpt>
<trkpt lat="44.46443700" lon="5.88680300"><ele>1115.089966</ele><time>2010-06-02T11:17:56Z</time></trkpt>
<trkpt lat="44.46442700" lon="5.88682300"><ele>1114.659058</ele><time>2010-06-02T11:17:59Z</time></trkpt>
<trkpt lat="44.46451700" lon="5.88703100"><ele>1113.046021</ele><time>2010-06-02T11:19:22Z</time></trkpt>
<trkpt lat="44.46456300" lon="5.88728100"><ele>1112.386963</ele><time>2010-06-02T11:19:26Z</time></trkpt>
<trkpt lat="44.46456400" lon="5.88777600"><ele>1110.584961</ele><time>2010-06-02T11:19:32Z</time></trkpt>
<trkpt lat="44.46455300" lon="5.88807200"><ele>1109.921021</ele><time>2010-06-02T11:19:35Z</time></trkpt>
<trkpt lat="44.46448000" lon="5.88839700"><ele>1108.61499</ele><time>2010-06-02T11:19:39Z</time></trkpt>
<trkpt lat="44.46437900" lon="5.88848100"><ele>1107.703979</ele><time>2010-06-02T11:19:41Z</time></trkpt>
<trkpt lat="44.46420300" lon="5.88858300"><ele>1107.005005</ele><time>2010-06-02T11:19:44Z</time></trkpt>
<trkpt lat="44.46395200" lon="5.88868200"><ele>1105.198975</ele><time>2010-06-02T11:19:48Z</time></trkpt>
<trkpt lat="44.46388400" lon="5.88885900"><ele>1103.886963</ele><time>2010-06-02T11:19:51Z</time></trkpt>
<trkpt lat="44.46392200" lon="5.88900100"><ele>1103.168945</ele><time>2010-06-02T11:19:53Z</time></trkpt>
<trkpt lat="44.46404500" lon="5.88935300"><ele>1102.082031</ele><time>2010-06-02T11:19:58Z</time></trkpt>
<trkpt lat="44.46403600" lon="5.88972500"><ele>1100.656982</ele><time>2010-06-02T11:20:02Z</time></trkpt>
<trkpt lat="44.46391200" lon="5.88989700"><ele>1099.390015</ele><time>2010-06-02T11:20:05Z</time></trkpt>
<trkpt lat="44.46365800" lon="5.88993100"><ele>1098.139038</ele><time>2010-06-02T11:20:09Z</time></trkpt>
<trkpt lat="44.46358900" lon="5.88992000"><ele>1097.723022</ele><time>2010-06-02T11:20:10Z</time></trkpt>
<trkpt lat="44.46315500" lon="5.88984700"><ele>1096.114014</ele><time>2010-06-02T11:20:16Z</time></trkpt>
<trkpt lat="44.46297100" lon="5.88973800"><ele>1093.475952</ele><time>2010-06-02T11:20:20Z</time></trkpt>
<trkpt lat="44.46284700" lon="5.88955300"><ele>1090.685059</ele><time>2010-06-02T11:20:24Z</time></trkpt>
<trkpt lat="44.46274900" lon="5.88959500"><ele>1089.764038</ele><time>2010-06-02T11:20:26Z</time></trkpt>
<trkpt lat="44.46252400" lon="5.88977800"><ele>1088.735962</ele><time>2010-06-02T11:20:30Z</time></trkpt>
<trkpt lat="44.46232200" lon="5.89006600"><ele>1086.741943</ele><time>2010-06-02T11:20:34Z</time></trkpt>
<trkpt lat="44.46214000" lon="5.89007400"><ele>1085.555054</ele><time>2010-06-02T11:20:37Z</time></trkpt>
<trkpt lat="44.46205800" lon="5.88993600"><ele>1085.151001</ele><time>2010-06-02T11:20:39Z</time></trkpt>
<trkpt lat="44.46181200" lon="5.88967500"><ele>1081.928955</ele><time>2010-06-02T11:20:44Z</time></trkpt>
<trkpt lat="44.46168600" lon="5.88974900"><ele>1080.389038</ele><time>2010-06-02T11:20:46Z</time></trkpt>
<trkpt lat="44.46155300" lon="5.88985700"><ele>1079.454956</ele><time>2010-06-02T11:20:48Z</time></trkpt>
<trkpt lat="44.46122700" lon="5.89001600"><ele>1077.597046</ele><time>2010-06-02T11:20:52Z</time></trkpt>
<trkpt lat="44.46106900" lon="5.89011700"><ele>1077.343994</ele><time>2010-06-02T11:20:54Z</time></trkpt>
<trkpt lat="44.46083500" lon="5.89020300"><ele>1075.56604</ele><time>2010-06-02T11:20:57Z</time></trkpt>
<trkpt lat="44.46051600" lon="5.89009300"><ele>1075.56604</ele><time>2010-06-02T11:21:01Z</time></trkpt>
<trkpt lat="44.46031700" lon="5.88995800"><ele>1071.524048</ele><time>2010-06-02T11:21:04Z</time></trkpt>
<trkpt lat="44.46025400" lon="5.88995300"><ele>1071.222046</ele><time>2010-06-02T11:21:05Z</time></trkpt>
<trkpt lat="44.46008300" lon="5.89007100"><ele>1069.91394</ele><time>2010-06-02T11:21:08Z</time></trkpt>
<trkpt lat="44.46005100" lon="5.89015100"><ele>1069.665039</ele><time>2010-06-02T11:21:09Z</time></trkpt>
<trkpt lat="44.46004400" lon="5.89043500"><ele>1068.244995</ele><time>2010-06-02T11:21:12Z</time></trkpt>
<trkpt lat="44.46006900" lon="5.89086400"><ele>1066.734985</ele><time>2010-06-02T11:21:16Z</time></trkpt>
<trkpt lat="44.46001200" lon="5.89132400"><ele>1065.025024</ele><time>2010-06-02T11:21:20Z</time></trkpt>
<trkpt lat="44.45977700" lon="5.89219500"><ele>1061.426025</ele><time>2010-06-02T11:21:28Z</time></trkpt>
<trkpt lat="44.45954100" lon="5.89297900"><ele>1057.734009</ele><time>2010-06-02T11:21:34Z</time></trkpt>
<trkpt lat="44.45942900" lon="5.89371100"><ele>1053.885986</ele><time>2010-06-02T11:21:39Z</time></trkpt>
<trkpt lat="44.45920900" lon="5.89461200"><ele>1049.762939</ele><time>2010-06-02T11:21:45Z</time></trkpt>
<trkpt lat="44.45906900" lon="5.89548800"><ele>1045.108032</ele><time>2010-06-02T11:21:51Z</time></trkpt>
<trkpt lat="44.45902100" lon="5.89587100"><ele>1043.11499</ele><time>2010-06-02T11:21:54Z</time></trkpt>
<trkpt lat="44.45884300" lon="5.89627900"><ele>1040.620972</ele><time>2010-06-02T11:21:58Z</time></trkpt>
<trkpt lat="44.45863600" lon="5.89643900"><ele>1039.144043</ele><time>2010-06-02T11:22:01Z</time></trkpt>
<trkpt lat="44.45854900" lon="5.89645500"><ele>1038.493042</ele><time>2010-06-02T11:22:02Z</time></trkpt>
<trkpt lat="44.45826400" lon="5.89646900"><ele>1037.18396</ele><time>2010-06-02T11:22:05Z</time></trkpt>
<trkpt lat="44.45797600" lon="5.89649500"><ele>1035.343018</ele><time>2010-06-02T11:22:08Z</time></trkpt>
<trkpt lat="44.45772700" lon="5.89647600"><ele>1033.115967</ele><time>2010-06-02T11:22:11Z</time></trkpt>
<trkpt lat="44.45753500" lon="5.89654600"><ele>1030.375977</ele><time>2010-06-02T11:22:14Z</time></trkpt>
<trkpt lat="44.45748000" lon="5.89661500"><ele>1029.180054</ele><time>2010-06-02T11:22:15Z</time></trkpt>
<trkpt lat="44.45720200" lon="5.89687500"><ele>1025.619995</ele><time>2010-06-02T11:22:19Z</time></trkpt>
<trkpt lat="44.45704500" lon="5.89713400"><ele>1024.373047</ele><time>2010-06-02T11:22:22Z</time></trkpt>
<trkpt lat="44.45683600" lon="5.89725400"><ele>1022.971008</ele><time>2010-06-02T11:22:25Z</time></trkpt>
<trkpt lat="44.45662900" lon="5.89722100"><ele>1022.812012</ele><time>2010-06-02T11:22:28Z</time></trkpt>
<trkpt lat="44.45652100" lon="5.89730900"><ele>1021.97998</ele><time>2010-06-02T11:22:30Z</time></trkpt>
<trkpt lat="44.45621000" lon="5.89764700"><ele>1018.814026</ele><time>2010-06-02T11:22:35Z</time></trkpt>
<trkpt lat="44.45601300" lon="5.89767700"><ele>1016.81897</ele><time>2010-06-02T11:22:38Z</time></trkpt>
<trkpt lat="44.45584800" lon="5.89756300"><ele>1014.484985</ele><time>2010-06-02T11:22:41Z</time></trkpt>
<trkpt lat="44.45574500" lon="5.89763200"><ele>1012.814026</ele><time>2010-06-02T11:22:43Z</time></trkpt>
<trkpt lat="44.45559500" lon="5.89782700"><ele>1011.682007</ele><time>2010-06-02T11:22:46Z</time></trkpt>
<trkpt lat="44.45544500" lon="5.89789700"><ele>1010.859009</ele><time>2010-06-02T11:22:48Z</time></trkpt>
<trkpt lat="44.45528500" lon="5.89795100"><ele>1010.588013</ele><time>2010-06-02T11:22:50Z</time></trkpt>
<trkpt lat="44.45503900" lon="5.89813800"><ele>1008.89801</ele><time>2010-06-02T11:22:54Z</time></trkpt>
<trkpt lat="44.45499600" lon="5.89830000"><ele>1008.010986</ele><time>2010-06-02T11:22:56Z</time></trkpt>
<trkpt lat="44.45502200" lon="5.89845400"><ele>1007.583008</ele><time>2010-06-02T11:22:58Z</time></trkpt>
<trkpt lat="44.45518200" lon="5.89898800"><ele>1006.958008</ele><time>2010-06-02T11:23:04Z</time></trkpt>
<trkpt lat="44.45520800" lon="5.89922100"><ele>1006.36499</ele><time>2010-06-02T11:23:06Z</time></trkpt>
<trkpt lat="44.45514100" lon="5.89983300"><ele>1004.741028</ele><time>2010-06-02T11:23:11Z</time></trkpt>
<trkpt lat="44.45510800" lon="5.89994800"><ele>1004.099976</ele><time>2010-06-02T11:23:12Z</time></trkpt>
<trkpt lat="44.45503700" lon="5.90017700"><ele>1003.112976</ele><time>2010-06-02T11:23:14Z</time></trkpt>
<trkpt lat="44.45483900" lon="5.90081000"><ele>1000.10498</ele><time>2010-06-02T11:23:20Z</time></trkpt>
<trkpt lat="44.45466800" lon="5.90133400"><ele>997.01001</ele><time>2010-06-02T11:23:25Z</time></trkpt>
<trkpt lat="44.45448200" lon="5.90172800"><ele>994.117004</ele><time>2010-06-02T11:23:29Z</time></trkpt>
<trkpt lat="44.45438500" lon="5.90210500"><ele>991.653015</ele><time>2010-06-02T11:23:33Z</time></trkpt>
<trkpt lat="44.45438300" lon="5.90219500"><ele>991.653015</ele><time>2010-06-02T11:23:34Z</time></trkpt>
<trkpt lat="44.45428500" lon="5.90259100"><ele>989.021973</ele><time>2010-06-02T11:23:39Z</time></trkpt>
<trkpt lat="44.45423100" lon="5.90265500"><ele>989.021973</ele><time>2010-06-02T11:23:40Z</time></trkpt>
<trkpt lat="44.45410300" lon="5.90277300"><ele>987.572021</ele><time>2010-06-02T11:23:42Z</time></trkpt>
<trkpt lat="44.45394800" lon="5.90287000"><ele>986.781982</ele><time>2010-06-02T11:23:44Z</time></trkpt>
<trkpt lat="44.45351300" lon="5.90307300"><ele>985.85199</ele><time>2010-06-02T11:23:49Z</time></trkpt>
<trkpt lat="44.45335900" lon="5.90312000"><ele>983.619019</ele><time>2010-06-02T11:23:51Z</time></trkpt>
<trkpt lat="44.45309800" lon="5.90304900"><ele>982.434021</ele><time>2010-06-02T11:23:55Z</time></trkpt>
<trkpt lat="44.45284200" lon="5.90290000"><ele>979.593994</ele><time>2010-06-02T11:23:59Z</time></trkpt>
<trkpt lat="44.45235900" lon="5.90275700"><ele>976.116028</ele><time>2010-06-02T11:24:06Z</time></trkpt>
<trkpt lat="44.45228300" lon="5.90274700"><ele>975.731018</ele><time>2010-06-02T11:24:07Z</time></trkpt>
<trkpt lat="44.45201700" lon="5.90287000"><ele>974.857971</ele><time>2010-06-02T11:24:11Z</time></trkpt>
<trkpt lat="44.45188300" lon="5.90310800"><ele>973.151001</ele><time>2010-06-02T11:24:14Z</time></trkpt>
<trkpt lat="44.45171100" lon="5.90350200"><ele>971.23999</ele><time>2010-06-02T11:24:18Z</time></trkpt>
<trkpt lat="44.45157100" lon="5.90383300"><ele>969.900024</ele><time>2010-06-02T11:24:21Z</time></trkpt>
<trkpt lat="44.45147400" lon="5.90405800"><ele>969.390991</ele><time>2010-06-02T11:24:23Z</time></trkpt>
<trkpt lat="44.45112200" lon="5.90450100"><ele>967.432007</ele><time>2010-06-02T11:24:28Z</time></trkpt>
<trkpt lat="44.45093200" lon="5.90462000"><ele>965.961975</ele><time>2010-06-02T11:24:30Z</time></trkpt>
<trkpt lat="44.45057400" lon="5.90473300"><ele>962.442017</ele><time>2010-06-02T11:24:34Z</time></trkpt>
<trkpt lat="44.45029600" lon="5.90502200"><ele>959.017029</ele><time>2010-06-02T11:24:38Z</time></trkpt>
<trkpt lat="44.45016100" lon="5.90523200"><ele>958.312988</ele><time>2010-06-02T11:24:40Z</time></trkpt>
<trkpt lat="44.44972700" lon="5.90592700"><ele>954.655029</ele><time>2010-06-02T11:24:46Z</time></trkpt>
<trkpt lat="44.44957700" lon="5.90616100"><ele>953.804993</ele><time>2010-06-02T11:24:48Z</time></trkpt>
<trkpt lat="44.44917700" lon="5.90680400"><ele>953.802979</ele><time>2010-06-02T11:24:54Z</time></trkpt>
<trkpt lat="44.44906000" lon="5.90697900"><ele>954.09198</ele><time>2010-06-02T11:24:56Z</time></trkpt>
<trkpt lat="44.44882000" lon="5.90715400"><ele>953.534973</ele><time>2010-06-02T11:25:00Z</time></trkpt>
<trkpt lat="44.44875300" lon="5.90714500"><ele>953.20697</ele><time>2010-06-02T11:25:01Z</time></trkpt>
<trkpt lat="44.44853300" lon="5.90709500"><ele>952.755005</ele><time>2010-06-02T11:25:04Z</time></trkpt>
<trkpt lat="44.44821800" lon="5.90691500"><ele>951.932983</ele><time>2010-06-02T11:25:08Z</time></trkpt>
<trkpt lat="44.44796700" lon="5.90691500"><ele>947.435974</ele><time>2010-06-02T11:25:12Z</time></trkpt>
<trkpt lat="44.44788900" lon="5.90712100"><ele>947.252991</ele><time>2010-06-02T11:25:15Z</time></trkpt>
<trkpt lat="44.44791700" lon="5.90741400"><ele>947.687988</ele><time>2010-06-02T11:25:19Z</time></trkpt>
<trkpt lat="44.44797300" lon="5.90753400"><ele>947.671021</ele><time>2010-06-02T11:25:21Z</time></trkpt>
<trkpt lat="44.44826300" lon="5.90790400"><ele>946.734009</ele><time>2010-06-02T11:25:28Z</time></trkpt>
<trkpt lat="44.44837700" lon="5.90823600"><ele>946.434021</ele><time>2010-06-02T11:25:32Z</time></trkpt>
<trkpt lat="44.44840000" lon="5.90843700"><ele>946.375</ele><time>2010-06-02T11:25:34Z</time></trkpt>
<trkpt lat="44.44844000" lon="5.90899000"><ele>945.052002</ele><time>2010-06-02T11:25:39Z</time></trkpt>
<trkpt lat="44.44834900" lon="5.90945600"><ele>942.726013</ele><time>2010-06-02T11:25:43Z</time></trkpt>
<trkpt lat="44.44829200" lon="5.90957100"><ele>942.195007</ele><time>2010-06-02T11:25:44Z</time></trkpt>
<trkpt lat="44.44800300" lon="5.91025200"><ele>937.755005</ele><time>2010-06-02T11:25:49Z</time></trkpt>
<trkpt lat="44.44769000" lon="5.91109100"><ele>932.770996</ele><time>2010-06-02T11:25:54Z</time></trkpt>
<trkpt lat="44.44735600" lon="5.91201800"><ele>928.72998</ele><time>2010-06-02T11:25:59Z</time></trkpt>
<trkpt lat="44.44716800" lon="5.91254700"><ele>925.072021</ele><time>2010-06-02T11:26:02Z</time></trkpt>
<trkpt lat="44.44682800" lon="5.91306200"><ele>919.820984</ele><time>2010-06-02T11:26:06Z</time></trkpt>
<trkpt lat="44.44646400" lon="5.91326800"><ele>918.914001</ele><time>2010-06-02T11:26:09Z</time></trkpt>
<trkpt lat="44.44513200" lon="5.91373200"><ele>910.564026</ele><time>2010-06-02T11:26:19Z</time></trkpt>
<trkpt lat="44.44452000" lon="5.91394300"><ele>905.15802</ele><time>2010-06-02T11:26:24Z</time></trkpt>
<trkpt lat="44.44441800" lon="5.91396600"><ele>904.515015</ele><time>2010-06-02T11:26:25Z</time></trkpt>
<trkpt lat="44.44402200" lon="5.91392900"><ele>902.992981</ele><time>2010-06-02T11:26:29Z</time></trkpt>
<trkpt lat="44.44319600" lon="5.91364300"><ele>897.937988</ele><time>2010-06-02T11:26:37Z</time></trkpt>
<trkpt lat="44.44250100" lon="5.91340000"><ele>892.875</ele><time>2010-06-02T11:26:43Z</time></trkpt>
<trkpt lat="44.44238000" lon="5.91335800"><ele>892.570984</ele><time>2010-06-02T11:26:44Z</time></trkpt>
<trkpt lat="44.44164800" lon="5.91318700"><ele>887.958008</ele><time>2010-06-02T11:26:50Z</time></trkpt>
<trkpt lat="44.44129200" lon="5.91312800"><ele>886.47998</ele><time>2010-06-02T11:26:53Z</time></trkpt>
<trkpt lat="44.44087100" lon="5.91314300"><ele>882.434021</ele><time>2010-06-02T11:26:57Z</time></trkpt>
<trkpt lat="44.44063600" lon="5.91337800"><ele>880.463013</ele><time>2010-06-02T11:27:01Z</time></trkpt>
<trkpt lat="44.44055400" lon="5.91356500"><ele>879.786011</ele><time>2010-06-02T11:27:03Z</time></trkpt>
<trkpt lat="44.44023600" lon="5.91399000"><ele>877.559998</ele><time>2010-06-02T11:27:08Z</time></trkpt>
<trkpt lat="44.43999500" lon="5.91424500"><ele>876.111023</ele><time>2010-06-02T11:27:11Z</time></trkpt>
<trkpt lat="44.43965900" lon="5.91486600"><ele>873.638977</ele><time>2010-06-02T11:27:16Z</time></trkpt>
<trkpt lat="44.43926500" lon="5.91571000"><ele>870.445007</ele><time>2010-06-02T11:27:22Z</time></trkpt>
<trkpt lat="44.43918700" lon="5.91585000"><ele>869.684998</ele><time>2010-06-02T11:27:23Z</time></trkpt>
<trkpt lat="44.43890100" lon="5.91620400"><ele>867.77301</ele><time>2010-06-02T11:27:26Z</time></trkpt>
<trkpt lat="44.43832200" lon="5.91674600"><ele>863.599976</ele><time>2010-06-02T11:27:31Z</time></trkpt>
<trkpt lat="44.43785200" lon="5.91716500"><ele>860.377014</ele><time>2010-06-02T11:27:35Z</time></trkpt>
<trkpt lat="44.43744900" lon="5.91739200"><ele>856.35498</ele><time>2010-06-02T11:27:39Z</time></trkpt>
<trkpt lat="44.43737500" lon="5.91741600"><ele>855.497986</ele><time>2010-06-02T11:27:40Z</time></trkpt>
<trkpt lat="44.43719400" lon="5.91736600"><ele>853.859009</ele><time>2010-06-02T11:27:43Z</time></trkpt>
<trkpt lat="44.43714400" lon="5.91720600"><ele>853.614014</ele><time>2010-06-02T11:27:45Z</time></trkpt>
<trkpt lat="44.43706900" lon="5.91689900"><ele>853.085999</ele><time>2010-06-02T11:27:49Z</time></trkpt>
<trkpt lat="44.43696300" lon="5.91683000"><ele>853.366028</ele><time>2010-06-02T11:27:51Z</time></trkpt>
<trkpt lat="44.43681800" lon="5.91695000"><ele>853.057983</ele><time>2010-06-02T11:27:54Z</time></trkpt>
<trkpt lat="44.43670400" lon="5.91713600"><ele>852.34198</ele><time>2010-06-02T11:27:57Z</time></trkpt>
<trkpt lat="44.43651500" lon="5.91763200"><ele>850.297974</ele><time>2010-06-02T11:28:04Z</time></trkpt>
<trkpt lat="44.43637900" lon="5.91779800"><ele>849.679993</ele><time>2010-06-02T11:28:08Z</time></trkpt>
<trkpt lat="44.43623000" lon="5.91781800"><ele>849.312012</ele><time>2010-06-02T11:28:12Z</time></trkpt>
<trkpt lat="44.43604100" lon="5.91793600"><ele>847.070984</ele><time>2010-06-02T11:28:18Z</time></trkpt>
<trkpt lat="44.43586600" lon="5.91795600"><ele>845.737976</ele><time>2010-06-02T11:28:23Z</time></trkpt>
<trkpt lat="44.43568900" lon="5.91788200"><ele>845.325989</ele><time>2010-06-02T11:28:28Z</time></trkpt>
<trkpt lat="44.43541500" lon="5.91772400"><ele>844.88501</ele><time>2010-06-02T11:28:34Z</time></trkpt>
<trkpt lat="44.43520900" lon="5.91793800"><ele>844.88501</ele><time>2010-06-02T11:28:41Z</time></trkpt>
<trkpt lat="44.43506100" lon="5.91864200"><ele>843.921021</ele><time>2010-06-02T11:28:52Z</time></trkpt>
<trkpt lat="44.43484800" lon="5.91869100"><ele>842.604004</ele><time>2010-06-02T11:28:57Z</time></trkpt>
<trkpt lat="44.43480800" lon="5.91871700"><ele>842.604004</ele><time>2010-06-02T11:28:58Z</time></trkpt>
<trkpt lat="44.43473900" lon="5.91878000"><ele>840.822021</ele><time>2010-06-02T11:29:00Z</time></trkpt>
<trkpt lat="44.43452000" lon="5.91915300"><ele>836.429016</ele><time>2010-06-02T11:29:09Z</time></trkpt>
<trkpt lat="44.43445200" lon="5.91933800"><ele>836.429016</ele><time>2010-06-02T11:29:14Z</time></trkpt>
<trkpt lat="44.43443300" lon="5.91935100"><ele>834.234009</ele><time>2010-06-02T11:29:19Z</time></trkpt>
<trkpt lat="44.43436700" lon="5.91953000"><ele>829.669983</ele><time>2010-06-02T11:30:52Z</time></trkpt>
<trkpt lat="44.43420700" lon="5.91957100"><ele>828.913025</ele><time>2010-06-02T11:30:57Z</time></trkpt>
<trkpt lat="44.43391600" lon="5.91970700"><ele>827.778015</ele><time>2010-06-02T11:31:03Z</time></trkpt>
<trkpt lat="44.43385600" lon="5.91973700"><ele>827.401978</ele><time>2010-06-02T11:31:04Z</time></trkpt>
<trkpt lat="44.43358200" lon="5.91970000"><ele>826.267029</ele><time>2010-06-02T11:31:08Z</time></trkpt>
<trkpt lat="44.43349000" lon="5.91955100"><ele>825.822998</ele><time>2010-06-02T11:31:10Z</time></trkpt>
<trkpt lat="44.43328300" lon="5.91939100"><ele>824.773987</ele><time>2010-06-02T11:31:14Z</time></trkpt>
<trkpt lat="44.43312300" lon="5.91953300"><ele>824.052002</ele><time>2010-06-02T11:31:17Z</time></trkpt>
<trkpt lat="44.43283700" lon="5.91995800"><ele>822.671997</ele><time>2010-06-02T11:31:24Z</time></trkpt>
<trkpt lat="44.43254500" lon="5.92043800"><ele>822.940002</ele><time>2010-06-02T11:31:32Z</time></trkpt>
<trkpt lat="44.43223300" lon="5.92094700"><ele>822.434021</ele><time>2010-06-02T11:31:39Z</time></trkpt>
<trkpt lat="44.43196900" lon="5.92129400"><ele>821.702026</ele><time>2010-06-02T11:31:44Z</time></trkpt>
<trkpt lat="44.43166500" lon="5.92153000"><ele>821.924011</ele><time>2010-06-02T11:31:49Z</time></trkpt>
<trkpt lat="44.43153500" lon="5.92157500"><ele>821.997009</ele><time>2010-06-02T11:31:51Z</time></trkpt>
<trkpt lat="44.43126200" lon="5.92154200"><ele>821.903992</ele><time>2010-06-02T11:31:55Z</time></trkpt>
<trkpt lat="44.43106100" lon="5.92144100"><ele>821.203979</ele><time>2010-06-02T11:31:58Z</time></trkpt>
<trkpt lat="44.43092100" lon="5.92138900"><ele>820.466003</ele><time>2010-06-02T11:32:00Z</time></trkpt>
<trkpt lat="44.43055400" lon="5.92139800"><ele>819.664001</ele><time>2010-06-02T11:32:05Z</time></trkpt>
<trkpt lat="44.42995400" lon="5.92151600"><ele>818.700012</ele><time>2010-06-02T11:32:12Z</time></trkpt>
<trkpt lat="44.42949100" lon="5.92156600"><ele>814.937012</ele><time>2010-06-02T11:32:17Z</time></trkpt>
<trkpt lat="44.42917700" lon="5.92172700"><ele>814.396973</ele><time>2010-06-02T11:32:21Z</time></trkpt>
<trkpt lat="44.42885400" lon="5.92204300"><ele>814.895996</ele><time>2010-06-02T11:32:26Z</time></trkpt>
<trkpt lat="44.42861000" lon="5.92236700"><ele>810.642029</ele><time>2010-06-02T11:32:31Z</time></trkpt>
<trkpt lat="44.42858500" lon="5.92239800"><ele>810.344971</ele><time>2010-06-02T11:32:34Z</time></trkpt>
<trkpt lat="44.42856400" lon="5.92244400"><ele>810.588989</ele><time>2010-06-02T11:32:38Z</time></trkpt>
<trkpt lat="44.42851000" lon="5.92254700"><ele>811.039001</ele><time>2010-06-02T11:32:41Z</time></trkpt>
<trkpt lat="44.42835800" lon="5.92276600"><ele>809.843994</ele><time>2010-06-02T11:32:45Z</time></trkpt>
<trkpt lat="44.42813600" lon="5.92309800"><ele>806.958984</ele><time>2010-06-02T11:32:49Z</time></trkpt>
<trkpt lat="44.42779400" lon="5.92357900"><ele>805.278015</ele><time>2010-06-02T11:32:54Z</time></trkpt>
<trkpt lat="44.42733500" lon="5.92429700"><ele>801.143005</ele><time>2010-06-02T11:33:00Z</time></trkpt>
<trkpt lat="44.42707600" lon="5.92492200"><ele>797.710999</ele><time>2010-06-02T11:33:04Z</time></trkpt>
<trkpt lat="44.42680200" lon="5.92582900"><ele>792.107971</ele><time>2010-06-02T11:33:09Z</time></trkpt>
<trkpt lat="44.42673700" lon="5.92601000"><ele>791.177979</ele><time>2010-06-02T11:33:10Z</time></trkpt>
<trkpt lat="44.42658300" lon="5.92634900"><ele>790.541992</ele><time>2010-06-02T11:33:12Z</time></trkpt>
<trkpt lat="44.42637400" lon="5.92686600"><ele>788.06897</ele><time>2010-06-02T11:33:15Z</time></trkpt>
<trkpt lat="44.42619100" lon="5.92762800"><ele>785.252014</ele><time>2010-06-02T11:33:19Z</time></trkpt>
<trkpt lat="44.42603200" lon="5.92864200"><ele>781.812988</ele><time>2010-06-02T11:33:24Z</time></trkpt>
<trkpt lat="44.42586300" lon="5.92971800"><ele>777.79303</ele><time>2010-06-02T11:33:29Z</time></trkpt>
<trkpt lat="44.42569200" lon="5.93036600"><ele>775.004028</ele><time>2010-06-02T11:33:32Z</time></trkpt>
<trkpt lat="44.42537000" lon="5.93134000"><ele>767.546997</ele><time>2010-06-02T11:33:37Z</time></trkpt>
<trkpt lat="44.42527800" lon="5.93206800"><ele>762.989014</ele><time>2010-06-02T11:33:41Z</time></trkpt>
<trkpt lat="44.42522100" lon="5.93265000"><ele>759.229004</ele><time>2010-06-02T11:33:44Z</time></trkpt>
<trkpt lat="44.42515100" lon="5.93303700"><ele>756.981995</ele><time>2010-06-02T11:33:46Z</time></trkpt>
<trkpt lat="44.42511800" lon="5.93376300"><ele>753.268005</ele><time>2010-06-02T11:33:50Z</time></trkpt>
<trkpt lat="44.42511100" lon="5.93392300"><ele>751.281982</ele><time>2010-06-02T11:33:51Z</time></trkpt>
<trkpt lat="44.42500800" lon="5.93432000"><ele>748.038025</ele><time>2010-06-02T11:33:54Z</time></trkpt>
<trkpt lat="44.42484400" lon="5.93448000"><ele>746.117004</ele><time>2010-06-02T11:33:56Z</time></trkpt>
<trkpt lat="44.42474200" lon="5.93452900"><ele>745.218994</ele><time>2010-06-02T11:33:57Z</time></trkpt>
<trkpt lat="44.42418800" lon="5.93480500"><ele>741.549011</ele><time>2010-06-02T11:34:02Z</time></trkpt>
<trkpt lat="44.42407300" lon="5.93487000"><ele>740.341003</ele><time>2010-06-02T11:34:03Z</time></trkpt>
<trkpt lat="44.42376700" lon="5.93493000"><ele>737.77002</ele><time>2010-06-02T11:34:06Z</time></trkpt>
<trkpt lat="44.42362300" lon="5.93480400"><ele>736.791992</ele><time>2010-06-02T11:34:08Z</time></trkpt>
<trkpt lat="44.42357700" lon="5.93470000"><ele>735.703979</ele><time>2010-06-02T11:34:09Z</time></trkpt>
<trkpt lat="44.42331900" lon="5.93425300"><ele>733.546021</ele><time>2010-06-02T11:34:14Z</time></trkpt>
<trkpt lat="44.42311000" lon="5.93424300"><ele>732.823975</ele><time>2010-06-02T11:34:17Z</time></trkpt>
<trkpt lat="44.42291100" lon="5.93444600"><ele>732.125</ele><time>2010-06-02T11:34:21Z</time></trkpt>
<trkpt lat="44.42289200" lon="5.93452700"><ele>731.885986</ele><time>2010-06-02T11:34:22Z</time></trkpt>
<trkpt lat="44.42273500" lon="5.93487400"><ele>730.825989</ele><time>2010-06-02T11:34:27Z</time></trkpt>
<trkpt lat="44.42252000" lon="5.93487300"><ele>730.422974</ele><time>2010-06-02T11:34:30Z</time></trkpt>
<trkpt lat="44.42217200" lon="5.93490900"><ele>729.913025</ele><time>2010-06-02T11:34:35Z</time></trkpt>
<trkpt lat="44.42212200" lon="5.93517100"><ele>729.14801</ele><time>2010-06-02T11:34:38Z</time></trkpt>
<trkpt lat="44.42216700" lon="5.93571400"><ele>729.963989</ele><time>2010-06-02T11:34:45Z</time></trkpt>
<trkpt lat="44.42215100" lon="5.93612400"><ele>729.164978</ele><time>2010-06-02T11:34:51Z</time></trkpt>
<trkpt lat="44.42213000" lon="5.93626200"><ele>729.057007</ele><time>2010-06-02T11:34:53Z</time></trkpt>
<trkpt lat="44.42197000" lon="5.93683600"><ele>727.705017</ele><time>2010-06-02T11:35:01Z</time></trkpt>
<trkpt lat="44.42183100" lon="5.93734000"><ele>726.336975</ele><time>2010-06-02T11:35:07Z</time></trkpt>
<trkpt lat="44.42165900" lon="5.93796700"><ele>724.70697</ele><time>2010-06-02T11:35:13Z</time></trkpt>
<trkpt lat="44.42142100" lon="5.93880300"><ele>722.71698</ele><time>2010-06-02T11:35:20Z</time></trkpt>
<trkpt lat="44.42125200" lon="5.93945900"><ele>721.478027</ele><time>2010-06-02T11:35:25Z</time></trkpt>
<trkpt lat="44.42117900" lon="5.93987300"><ele>720.255005</ele><time>2010-06-02T11:35:28Z</time></trkpt>
<trkpt lat="44.42105800" lon="5.94069500"><ele>718.052002</ele><time>2010-06-02T11:35:34Z</time></trkpt>
<trkpt lat="44.42094000" lon="5.94151500"><ele>716.171997</ele><time>2010-06-02T11:35:40Z</time></trkpt>
<trkpt lat="44.42083500" lon="5.94191800"><ele>715.778992</ele><time>2010-06-02T11:35:43Z</time></trkpt>
<trkpt lat="44.42055700" lon="5.94232600"><ele>713.005981</ele><time>2010-06-02T11:35:47Z</time></trkpt>
<trkpt lat="44.42027400" lon="5.94250700"><ele>710.929993</ele><time>2010-06-02T11:35:50Z</time></trkpt>
<trkpt lat="44.42013400" lon="5.94269600"><ele>710.166016</ele><time>2010-06-02T11:35:52Z</time></trkpt>
<trkpt lat="44.41998300" lon="5.94297500"><ele>707.090027</ele><time>2010-06-02T11:35:55Z</time></trkpt>
<trkpt lat="44.41982900" lon="5.94302800"><ele>705.491028</ele><time>2010-06-02T11:35:57Z</time></trkpt>
<trkpt lat="44.41958600" lon="5.94302700"><ele>704.038025</ele><time>2010-06-02T11:36:00Z</time></trkpt>
<trkpt lat="44.41947800" lon="5.94317100"><ele>704.190002</ele><time>2010-06-02T11:36:02Z</time></trkpt>
<trkpt lat="44.41944300" lon="5.94337500"><ele>703.244019</ele><time>2010-06-02T11:36:04Z</time></trkpt>
<trkpt lat="44.41941900" lon="5.94359300"><ele>702.231995</ele><time>2010-06-02T11:36:06Z</time></trkpt>
<trkpt lat="44.41936100" lon="5.94395500"><ele>700.924011</ele><time>2010-06-02T11:36:09Z</time></trkpt>
<trkpt lat="44.41922500" lon="5.94445800"><ele>698.643005</ele><time>2010-06-02T11:36:13Z</time></trkpt>
<trkpt lat="44.41905900" lon="5.94471600"><ele>697</ele><time>2010-06-02T11:36:16Z</time></trkpt>
<trkpt lat="44.41890900" lon="5.94472000"><ele>695.158997</ele><time>2010-06-02T11:36:18Z</time></trkpt>
<trkpt lat="44.41861900" lon="5.94472200"><ele>694.023987</ele><time>2010-06-02T11:36:22Z</time></trkpt>
<trkpt lat="44.41856400" lon="5.94479200"><ele>693.620972</ele><time>2010-06-02T11:36:23Z</time></trkpt>
<trkpt lat="44.41846200" lon="5.94495100"><ele>693.015015</ele><time>2010-06-02T11:36:25Z</time></trkpt>
<trkpt lat="44.41814700" lon="5.94515000"><ele>691.250977</ele><time>2010-06-02T11:36:29Z</time></trkpt>
<trkpt lat="44.41804900" lon="5.94515300"><ele>690.120972</ele><time>2010-06-02T11:36:30Z</time></trkpt>
<trkpt lat="44.41753700" lon="5.94514200"><ele>686.39502</ele><time>2010-06-02T11:36:35Z</time></trkpt>
<trkpt lat="44.41718400" lon="5.94537800"><ele>681.367004</ele><time>2010-06-02T11:36:39Z</time></trkpt>
<trkpt lat="44.41709800" lon="5.94559900"><ele>679.508972</ele><time>2010-06-02T11:36:41Z</time></trkpt>
<trkpt lat="44.41708900" lon="5.94572500"><ele>679.299011</ele><time>2010-06-02T11:36:42Z</time></trkpt>
<trkpt lat="44.41709300" lon="5.94585600"><ele>678.843994</ele><time>2010-06-02T11:36:43Z</time></trkpt>
<trkpt lat="44.41712000" lon="5.94626100"><ele>676.994995</ele><time>2010-06-02T11:36:46Z</time></trkpt>
<trkpt lat="44.41700600" lon="5.94667800"><ele>674.276978</ele><time>2010-06-02T11:36:50Z</time></trkpt>
<trkpt lat="44.41686100" lon="5.94682000"><ele>673.754028</ele><time>2010-06-02T11:36:52Z</time></trkpt>
<trkpt lat="44.41669100" lon="5.94692400"><ele>672.111023</ele><time>2010-06-02T11:36:54Z</time></trkpt>
<trkpt lat="44.41635300" lon="5.94728300"><ele>669.538025</ele><time>2010-06-02T11:36:58Z</time></trkpt>
<trkpt lat="44.41592500" lon="5.94755700"><ele>666.237</ele><time>2010-06-02T11:37:02Z</time></trkpt>
<trkpt lat="44.41548600" lon="5.94786900"><ele>663.046021</ele><time>2010-06-02T11:37:06Z</time></trkpt>
<trkpt lat="44.41528700" lon="5.94799400"><ele>659.226013</ele><time>2010-06-02T11:37:08Z</time></trkpt>
<trkpt lat="44.41488700" lon="5.94801100"><ele>656.073975</ele><time>2010-06-02T11:37:12Z</time></trkpt>
<trkpt lat="44.41464800" lon="5.94808000"><ele>653.950989</ele><time>2010-06-02T11:37:15Z</time></trkpt>
<trkpt lat="44.41456400" lon="5.94831200"><ele>651.369995</ele><time>2010-06-02T11:37:18Z</time></trkpt>
<trkpt lat="44.41465800" lon="5.94854900"><ele>650.575012</ele><time>2010-06-02T11:37:21Z</time></trkpt>
<trkpt lat="44.41483900" lon="5.94899500"><ele>649.129028</ele><time>2010-06-02T11:37:26Z</time></trkpt>
<trkpt lat="44.41482400" lon="5.94933300"><ele>648.83197</ele><time>2010-06-02T11:37:29Z</time></trkpt>
<trkpt lat="44.41466000" lon="5.95010600"><ele>646.955994</ele><time>2010-06-02T11:37:36Z</time></trkpt>
<trkpt lat="44.41463900" lon="5.95016200"><ele>646.72699</ele><time>2010-06-02T11:37:37Z</time></trkpt>
<trkpt lat="44.41462100" lon="5.95019500"><ele>646.513977</ele><time>2010-06-02T11:37:38Z</time></trkpt>
<trkpt lat="44.41459300" lon="5.95020900"><ele>645.953979</ele><time>2010-06-02T11:37:42Z</time></trkpt>
<trkpt lat="44.41448800" lon="5.95018800"><ele>645.926025</ele><time>2010-06-02T11:37:57Z</time></trkpt>
<trkpt lat="44.41443000" lon="5.95017500"><ele>646.354004</ele><time>2010-06-02T11:38:00Z</time></trkpt>
<trkpt lat="44.41438400" lon="5.95017500"><ele>645.973022</ele><time>2010-06-02T11:38:02Z</time></trkpt>
<trkpt lat="44.41422500" lon="5.95016500"><ele>646.288025</ele><time>2010-06-02T11:38:07Z</time></trkpt>
<trkpt lat="44.41393300" lon="5.95011900"><ele>647.083984</ele><time>2010-06-02T11:38:15Z</time></trkpt>
<trkpt lat="44.41373500" lon="5.95010900"><ele>647.914978</ele><time>2010-06-02T11:38:21Z</time></trkpt>
<trkpt lat="44.41359300" lon="5.95013000"><ele>648.22699</ele><time>2010-06-02T11:38:26Z</time></trkpt>
<trkpt lat="44.41352900" lon="5.95014100"><ele>648.380005</ele><time>2010-06-02T11:38:31Z</time></trkpt>
<trkpt lat="44.41352700" lon="5.95014300"><ele>648.429016</ele><time>2010-06-02T11:38:32Z</time></trkpt>
<trkpt lat="44.41347800" lon="5.95019200"><ele>648.30603</ele><time>2010-06-02T11:40:09Z</time></trkpt>
<trkpt lat="44.41346400" lon="5.95019600"><ele>648.210999</ele><time>2010-06-02T11:40:10Z</time></trkpt>
<trkpt lat="44.41344600" lon="5.95019700"><ele>648.60199</ele><time>2010-06-02T11:40:13Z</time></trkpt>
<trkpt lat="44.41342600" lon="5.95019300"><ele>648.398987</ele><time>2010-06-02T11:40:21Z</time></trkpt>
<trkpt lat="44.41334000" lon="5.95026500"><ele>648.158997</ele><time>2010-06-02T11:42:51Z</time></trkpt>
<trkpt lat="44.41312900" lon="5.95035500"><ele>648.528015</ele><time>2010-06-02T11:42:57Z</time></trkpt>
<trkpt lat="44.41292000" lon="5.95044900"><ele>648.893005</ele><time>2010-06-02T11:43:02Z</time></trkpt>
<trkpt lat="44.41254500" lon="5.95058600"><ele>648.666016</ele><time>2010-06-02T11:43:10Z</time></trkpt>
<trkpt lat="44.41217000" lon="5.95068000"><ele>649.200012</ele><time>2010-06-02T11:43:18Z</time></trkpt>
<trkpt lat="44.41170800" lon="5.95070700"><ele>648.515991</ele><time>2010-06-02T11:43:27Z</time></trkpt>
<trkpt lat="44.41144700" lon="5.95076700"><ele>647.159973</ele><time>2010-06-02T11:43:31Z</time></trkpt>
<trkpt lat="44.41113400" lon="5.95087200"><ele>644.502014</ele><time>2010-06-02T11:43:36Z</time></trkpt>
<trkpt lat="44.41093300" lon="5.95089900"><ele>641.883972</ele><time>2010-06-02T11:43:39Z</time></trkpt>
<trkpt lat="44.41053800" lon="5.95079100"><ele>638.481995</ele><time>2010-06-02T11:43:44Z</time></trkpt>
<trkpt lat="44.41035400" lon="5.95071900"><ele>637.794983</ele><time>2010-06-02T11:43:46Z</time></trkpt>
<trkpt lat="44.41016100" lon="5.95065200"><ele>637.125</ele><time>2010-06-02T11:43:48Z</time></trkpt>
<trkpt lat="44.40969900" lon="5.95041800"><ele>632.83197</ele><time>2010-06-02T11:43:53Z</time></trkpt>
<trkpt lat="44.40946100" lon="5.95023500"><ele>631.064026</ele><time>2010-06-02T11:43:56Z</time></trkpt>
<trkpt lat="44.40914300" lon="5.95011400"><ele>628.434021</ele><time>2010-06-02T11:44:00Z</time></trkpt>
<trkpt lat="44.40882700" lon="5.95025000"><ele>626.744019</ele><time>2010-06-02T11:44:04Z</time></trkpt>
<trkpt lat="44.40843500" lon="5.95037600"><ele>624.762024</ele><time>2010-06-02T11:44:09Z</time></trkpt>
<trkpt lat="44.40799900" lon="5.95031500"><ele>624.036987</ele><time>2010-06-02T11:44:15Z</time></trkpt>
<trkpt lat="44.40786800" lon="5.95030300"><ele>624.038025</ele><time>2010-06-02T11:44:17Z</time></trkpt>
<trkpt lat="44.40739000" lon="5.95034500"><ele>623.80603</ele><time>2010-06-02T11:44:25Z</time></trkpt>
<trkpt lat="44.40687000" lon="5.95038800"><ele>624.833984</ele><time>2010-06-02T11:44:34Z</time></trkpt>
<trkpt lat="44.40644200" lon="5.95050400"><ele>624.416016</ele><time>2010-06-02T11:44:41Z</time></trkpt>
<trkpt lat="44.40609700" lon="5.95063400"><ele>623.765015</ele><time>2010-06-02T11:44:46Z</time></trkpt>
<trkpt lat="44.40575600" lon="5.95068400"><ele>622.224976</ele><time>2010-06-02T11:44:50Z</time></trkpt>
<trkpt lat="44.40520200" lon="5.95077000"><ele>618.515015</ele><time>2010-06-02T11:44:56Z</time></trkpt>
<trkpt lat="44.40494000" lon="5.95081500"><ele>616.565979</ele><time>2010-06-02T11:44:59Z</time></trkpt>
<trkpt lat="44.40457600" lon="5.95070200"><ele>613.086975</ele><time>2010-06-02T11:45:03Z</time></trkpt>
<trkpt lat="44.40418100" lon="5.95047200"><ele>611.072021</ele><time>2010-06-02T11:45:07Z</time></trkpt>
<trkpt lat="44.40376400" lon="5.95014200"><ele>608.815979</ele><time>2010-06-02T11:45:12Z</time></trkpt>
<trkpt lat="44.40352800" lon="5.94989400"><ele>607.741028</ele><time>2010-06-02T11:45:16Z</time></trkpt>
<trkpt lat="44.40342000" lon="5.94981800"><ele>607.606995</ele><time>2010-06-02T11:45:20Z</time></trkpt>
<trkpt lat="44.40341800" lon="5.94981500"><ele>607.161011</ele><time>2010-06-02T11:45:22Z</time></trkpt>
<trkpt lat="44.40339800" lon="5.94982700"><ele>606.547974</ele><time>2010-06-02T11:45:46Z</time></trkpt>
<trkpt lat="44.40329800" lon="5.94969800"><ele>606.125977</ele><time>2010-06-02T11:45:51Z</time></trkpt>
<trkpt lat="44.40328700" lon="5.94966000"><ele>605.856995</ele><time>2010-06-02T11:45:52Z</time></trkpt>
<trkpt lat="44.40316200" lon="5.94938100"><ele>606.286011</ele><time>2010-06-02T11:45:59Z</time></trkpt>
<trkpt lat="44.40307900" lon="5.94923000"><ele>607.830017</ele><time>2010-06-02T11:46:03Z</time></trkpt>
<trkpt lat="44.40302800" lon="5.94910700"><ele>609.125</ele><time>2010-06-02T11:46:06Z</time></trkpt>
<trkpt lat="44.40297900" lon="5.94898200"><ele>609.830017</ele><time>2010-06-02T11:46:09Z</time></trkpt>
<trkpt lat="44.40286100" lon="5.94871800"><ele>610.40802</ele><time>2010-06-02T11:46:15Z</time></trkpt>
<trkpt lat="44.40275200" lon="5.94847400"><ele>610.112</ele><time>2010-06-02T11:46:20Z</time></trkpt>
<trkpt lat="44.40253600" lon="5.94808600"><ele>609.846008</ele><time>2010-06-02T11:46:27Z</time></trkpt>
<trkpt lat="44.40227600" lon="5.94772600"><ele>609.927979</ele><time>2010-06-02T11:46:34Z</time></trkpt>
<trkpt lat="44.40199100" lon="5.94737200"><ele>609.926025</ele><time>2010-06-02T11:46:41Z</time></trkpt>
<trkpt lat="44.40162600" lon="5.94704500"><ele>610.228027</ele><time>2010-06-02T11:46:49Z</time></trkpt>
<trkpt lat="44.40112500" lon="5.94669600"><ele>610.017029</ele><time>2010-06-02T11:46:59Z</time></trkpt>
<trkpt lat="44.40073700" lon="5.94644500"><ele>609.52301</ele><time>2010-06-02T11:47:06Z</time></trkpt>
<trkpt lat="44.40030800" lon="5.94625400"><ele>610.163025</ele><time>2010-06-02T11:47:13Z</time></trkpt>
<trkpt lat="44.39963500" lon="5.94597500"><ele>610.539001</ele><time>2010-06-02T11:47:23Z</time></trkpt>
<trkpt lat="44.39918300" lon="5.94574900"><ele>611.867981</ele><time>2010-06-02T11:47:29Z</time></trkpt>
<trkpt lat="44.39882600" lon="5.94550500"><ele>607.093018</ele><time>2010-06-02T11:47:34Z</time></trkpt>
<trkpt lat="44.39869000" lon="5.94538500"><ele>605.802002</ele><time>2010-06-02T11:47:36Z</time></trkpt>
<trkpt lat="44.39835300" lon="5.94504800"><ele>603.268005</ele><time>2010-06-02T11:47:41Z</time></trkpt>
<trkpt lat="44.39772900" lon="5.94452200"><ele>599.237</ele><time>2010-06-02T11:47:49Z</time></trkpt>
<trkpt lat="44.39754600" lon="5.94441000"><ele>598.450012</ele><time>2010-06-02T11:47:51Z</time></trkpt>
<trkpt lat="44.39668300" lon="5.94389200"><ele>595.130981</ele><time>2010-06-02T11:48:00Z</time></trkpt>
<trkpt lat="44.39630300" lon="5.94364400"><ele>593.244995</ele><time>2010-06-02T11:48:04Z</time></trkpt>
<trkpt lat="44.39577900" lon="5.94324600"><ele>591.697021</ele><time>2010-06-02T11:48:10Z</time></trkpt>
<trkpt lat="44.39535100" lon="5.94289100"><ele>591.210022</ele><time>2010-06-02T11:48:16Z</time></trkpt>
<trkpt lat="44.39515700" lon="5.94272700"><ele>591.083008</ele><time>2010-06-02T11:48:19Z</time></trkpt>
<trkpt lat="44.39502900" lon="5.94262700"><ele>591.367004</ele><time>2010-06-02T11:48:21Z</time></trkpt>
<trkpt lat="44.39462000" lon="5.94227300"><ele>592.255981</ele><time>2010-06-02T11:48:28Z</time></trkpt>
<trkpt lat="44.39440200" lon="5.94209100"><ele>591.591003</ele><time>2010-06-02T11:48:32Z</time></trkpt>
<trkpt lat="44.39402600" lon="5.94175500"><ele>590.396973</ele><time>2010-06-02T11:48:40Z</time></trkpt>
<trkpt lat="44.39382900" lon="5.94157800"><ele>590.202026</ele><time>2010-06-02T11:48:45Z</time></trkpt>
<trkpt lat="44.39348700" lon="5.94130500"><ele>589.364014</ele><time>2010-06-02T11:48:53Z</time></trkpt>
<trkpt lat="44.39302200" lon="5.94091800"><ele>588.767029</ele><time>2010-06-02T11:49:02Z</time></trkpt>
<trkpt lat="44.39258100" lon="5.94055000"><ele>587.874023</ele><time>2010-06-02T11:49:10Z</time></trkpt>
<trkpt lat="44.39213000" lon="5.94018000"><ele>587.901001</ele><time>2010-06-02T11:49:18Z</time></trkpt>
<trkpt lat="44.39165900" lon="5.93977600"><ele>588.98999</ele><time>2010-06-02T11:49:27Z</time></trkpt>
<trkpt lat="44.39122500" lon="5.93940100"><ele>588.700989</ele><time>2010-06-02T11:49:36Z</time></trkpt>
<trkpt lat="44.39085300" lon="5.93908400"><ele>588.815979</ele><time>2010-06-02T11:49:44Z</time></trkpt>
<trkpt lat="44.39043900" lon="5.93874100"><ele>589.060974</ele><time>2010-06-02T11:49:53Z</time></trkpt>
<trkpt lat="44.39006500" lon="5.93844000"><ele>589.078979</ele><time>2010-06-02T11:50:01Z</time></trkpt>
<trkpt lat="44.38968400" lon="5.93811900"><ele>588.788025</ele><time>2010-06-02T11:50:09Z</time></trkpt>
<trkpt lat="44.38918900" lon="5.93769900"><ele>588.151001</ele><time>2010-06-02T11:50:19Z</time></trkpt>
<trkpt lat="44.38868300" lon="5.93727800"><ele>587.853027</ele><time>2010-06-02T11:50:29Z</time></trkpt>
<trkpt lat="44.38832900" lon="5.93697900"><ele>587.909973</ele><time>2010-06-02T11:50:36Z</time></trkpt>
<trkpt lat="44.38798800" lon="5.93668300"><ele>587.89801</ele><time>2010-06-02T11:50:43Z</time></trkpt>
<trkpt lat="44.38765000" lon="5.93639400"><ele>589.346008</ele><time>2010-06-02T11:50:51Z</time></trkpt>
<trkpt lat="44.38734400" lon="5.93613900"><ele>590.133972</ele><time>2010-06-02T11:50:59Z</time></trkpt>
<trkpt lat="44.38720800" lon="5.93602700"><ele>590.671021</ele><time>2010-06-02T11:51:04Z</time></trkpt>
<trkpt lat="44.38712900" lon="5.93593600"><ele>590.835022</ele><time>2010-06-02T11:51:10Z</time></trkpt>
<trkpt lat="44.38712000" lon="5.93592800"><ele>590.859985</ele><time>2010-06-02T11:51:13Z</time></trkpt>
<trkpt lat="44.38708500" lon="5.93596100"><ele>590.179016</ele><time>2010-06-02T11:51:46Z</time></trkpt>
<trkpt lat="44.38704900" lon="5.93611800"><ele>589.020996</ele><time>2010-06-02T11:51:51Z</time></trkpt>
<trkpt lat="44.38704800" lon="5.93615900"><ele>588.771973</ele><time>2010-06-02T11:51:52Z</time></trkpt>
<trkpt lat="44.38703600" lon="5.93629800"><ele>588.609009</ele><time>2010-06-02T11:51:55Z</time></trkpt>
<trkpt lat="44.38702900" lon="5.93651200"><ele>588.153015</ele><time>2010-06-02T11:51:59Z</time></trkpt>
<trkpt lat="44.38701200" lon="5.93675300"><ele>588.276978</ele><time>2010-06-02T11:52:03Z</time></trkpt>
<trkpt lat="44.38700300" lon="5.93694500"><ele>588.734009</ele><time>2010-06-02T11:52:06Z</time></trkpt>
<trkpt lat="44.38697600" lon="5.93744100"><ele>587.546021</ele><time>2010-06-02T11:52:13Z</time></trkpt>
<trkpt lat="44.38694900" lon="5.93791700"><ele>585.91803</ele><time>2010-06-02T11:52:19Z</time></trkpt>
<trkpt lat="44.38692000" lon="5.93844800"><ele>583.705994</ele><time>2010-06-02T11:52:24Z</time></trkpt>
<trkpt lat="44.38701700" lon="5.93887300"><ele>582.992004</ele><time>2010-06-02T11:52:28Z</time></trkpt>
<trkpt lat="44.38721600" lon="5.93905800"><ele>582.992004</ele><time>2010-06-02T11:52:31Z</time></trkpt>
<trkpt lat="44.38752100" lon="5.93908800"><ele>582.90802</ele><time>2010-06-02T11:52:35Z</time></trkpt>
<trkpt lat="44.38766100" lon="5.93904100"><ele>582.948975</ele><time>2010-06-02T11:52:37Z</time></trkpt>
<trkpt lat="44.38778600" lon="5.93897700"><ele>582.809021</ele><time>2010-06-02T11:52:39Z</time></trkpt>
<trkpt lat="44.38794400" lon="5.93881700"><ele>582.122986</ele><time>2010-06-02T11:52:43Z</time></trkpt>
<trkpt lat="44.38797200" lon="5.93875800"><ele>580.830017</ele><time>2010-06-02T11:52:47Z</time></trkpt>
<trkpt lat="44.38798500" lon="5.93855300"><ele>581.427002</ele><time>2010-06-02T11:52:54Z</time></trkpt>
<trkpt lat="44.38783000" lon="5.93832900"><ele>581.695984</ele><time>2010-06-02T11:52:59Z</time></trkpt>
<trkpt lat="44.38769900" lon="5.93820100"><ele>581.633972</ele><time>2010-06-02T11:53:02Z</time></trkpt>
<trkpt lat="44.38747200" lon="5.93799000"><ele>582.187012</ele><time>2010-06-02T11:53:07Z</time></trkpt>
<trkpt lat="44.38714000" lon="5.93770200"><ele>582.013977</ele><time>2010-06-02T11:53:14Z</time></trkpt>
<trkpt lat="44.38700200" lon="5.93757000"><ele>581.750977</ele><time>2010-06-02T11:53:17Z</time></trkpt>
<trkpt lat="44.38665200" lon="5.93724600"><ele>582.973022</ele><time>2010-06-02T11:53:24Z</time></trkpt>
<trkpt lat="44.38634100" lon="5.93698500"><ele>583.48999</ele><time>2010-06-02T11:53:30Z</time></trkpt>
<trkpt lat="44.38586200" lon="5.93661800"><ele>583.432983</ele><time>2010-06-02T11:53:39Z</time></trkpt>
<trkpt lat="44.38531700" lon="5.93623600"><ele>583.546021</ele><time>2010-06-02T11:53:49Z</time></trkpt>
<trkpt lat="44.38482000" lon="5.93588800"><ele>582.642029</ele><time>2010-06-02T11:53:58Z</time></trkpt>
<trkpt lat="44.38430700" lon="5.93552400"><ele>583.085999</ele><time>2010-06-02T11:54:07Z</time></trkpt>
<trkpt lat="44.38358800" lon="5.93502800"><ele>584.234985</ele><time>2010-06-02T11:54:20Z</time></trkpt>
<trkpt lat="44.38348000" lon="5.93495800"><ele>585.025024</ele><time>2010-06-02T11:54:22Z</time></trkpt>
<trkpt lat="44.38287800" lon="5.93458800"><ele>583.76001</ele><time>2010-06-02T11:54:33Z</time></trkpt>
<trkpt lat="44.38230600" lon="5.93426300"><ele>583.656982</ele><time>2010-06-02T11:54:43Z</time></trkpt>
<trkpt lat="44.38166600" lon="5.93387100"><ele>583.414001</ele><time>2010-06-02T11:54:54Z</time></trkpt>
<trkpt lat="44.38124500" lon="5.93359800"><ele>583.083984</ele><time>2010-06-02T11:55:01Z</time></trkpt>
<trkpt lat="44.38042900" lon="5.93304000"><ele>581.718018</ele><time>2010-06-02T11:55:14Z</time></trkpt>
<trkpt lat="44.37975400" lon="5.93257600"><ele>581.932983</ele><time>2010-06-02T11:55:24Z</time></trkpt>
<trkpt lat="44.37900500" lon="5.93206600"><ele>580.83197</ele><time>2010-06-02T11:55:35Z</time></trkpt>
<trkpt lat="44.37827200" lon="5.93156000"><ele>580.294006</ele><time>2010-06-02T11:55:46Z</time></trkpt>
<trkpt lat="44.37747100" lon="5.93100400"><ele>580.390015</ele><time>2010-06-02T11:55:58Z</time></trkpt>
<trkpt lat="44.37677100" lon="5.93052400"><ele>580.752991</ele><time>2010-06-02T11:56:09Z</time></trkpt>
<trkpt lat="44.37620100" lon="5.93013100"><ele>581.421021</ele><time>2010-06-02T11:56:18Z</time></trkpt>
<trkpt lat="44.37553900" lon="5.92967100"><ele>582.051025</ele><time>2010-06-02T11:56:29Z</time></trkpt>
<trkpt lat="44.37476000" lon="5.92913400"><ele>582.833008</ele><time>2010-06-02T11:56:42Z</time></trkpt>
<trkpt lat="44.37424700" lon="5.92877700"><ele>582.310974</ele><time>2010-06-02T11:56:51Z</time></trkpt>
<trkpt lat="44.37383700" lon="5.92850400"><ele>585.343994</ele><time>2010-06-02T11:56:58Z</time></trkpt>
<trkpt lat="44.37327600" lon="5.92821800"><ele>583.38501</ele><time>2010-06-02T11:57:07Z</time></trkpt>
<trkpt lat="44.37277400" lon="5.92808300"><ele>581.588013</ele><time>2010-06-02T11:57:14Z</time></trkpt>
<trkpt lat="44.37221600" lon="5.92791100"><ele>581.280029</ele><time>2010-06-02T11:57:21Z</time></trkpt>
<trkpt lat="44.37184500" lon="5.92765000"><ele>580.242981</ele><time>2010-06-02T11:57:26Z</time></trkpt>
<trkpt lat="44.37152800" lon="5.92727700"><ele>579.262024</ele><time>2010-06-02T11:57:31Z</time></trkpt>
<trkpt lat="44.37136200" lon="5.92702400"><ele>579.176025</ele><time>2010-06-02T11:57:34Z</time></trkpt>
<trkpt lat="44.37092400" lon="5.92630500"><ele>578.072998</ele><time>2010-06-02T11:57:42Z</time></trkpt>
<trkpt lat="44.37043400" lon="5.92561800"><ele>578.280029</ele><time>2010-06-02T11:57:50Z</time></trkpt>
<trkpt lat="44.36995600" lon="5.92526500"><ele>578.586975</ele><time>2010-06-02T11:57:57Z</time></trkpt>
<trkpt lat="44.36956100" lon="5.92497500"><ele>578.596008</ele><time>2010-06-02T11:58:04Z</time></trkpt>
<trkpt lat="44.36905900" lon="5.92462400"><ele>578.911011</ele><time>2010-06-02T11:58:14Z</time></trkpt>
<trkpt lat="44.36858100" lon="5.92429600"><ele>579.827026</ele><time>2010-06-02T11:58:23Z</time></trkpt>
<trkpt lat="44.36803300" lon="5.92393500"><ele>579.846008</ele><time>2010-06-02T11:58:33Z</time></trkpt>
<trkpt lat="44.36755800" lon="5.92372700"><ele>580.72699</ele><time>2010-06-02T11:58:41Z</time></trkpt>
<trkpt lat="44.36694600" lon="5.92346600"><ele>579.86499</ele><time>2010-06-02T11:58:51Z</time></trkpt>
<trkpt lat="44.36681500" lon="5.92342400"><ele>580.01001</ele><time>2010-06-02T11:58:53Z</time></trkpt>
<trkpt lat="44.36623800" lon="5.92319900"><ele>579.700012</ele><time>2010-06-02T11:59:02Z</time></trkpt>
<trkpt lat="44.36551000" lon="5.92291600"><ele>579.913025</ele><time>2010-06-02T11:59:13Z</time></trkpt>
<trkpt lat="44.36482600" lon="5.92268500"><ele>579.453979</ele><time>2010-06-02T11:59:23Z</time></trkpt>
<trkpt lat="44.36415600" lon="5.92245000"><ele>580.763977</ele><time>2010-06-02T11:59:33Z</time></trkpt>
<trkpt lat="44.36359300" lon="5.92217200"><ele>581.736023</ele><time>2010-06-02T11:59:42Z</time></trkpt>
<trkpt lat="44.36324200" lon="5.92183900"><ele>581.666016</ele><time>2010-06-02T11:59:49Z</time></trkpt>
<trkpt lat="44.36278800" lon="5.92124800"><ele>582.312012</ele><time>2010-06-02T12:00:00Z</time></trkpt>
<trkpt lat="44.36235000" lon="5.92077000"><ele>582.422974</ele><time>2010-06-02T12:00:10Z</time></trkpt>
<trkpt lat="44.36189500" lon="5.92041900"><ele>582.716003</ele><time>2010-06-02T12:00:19Z</time></trkpt>
<trkpt lat="44.36138700" lon="5.92006700"><ele>582.716003</ele><time>2010-06-02T12:00:29Z</time></trkpt>
<trkpt lat="44.36083800" lon="5.91969100"><ele>582.487</ele><time>2010-06-02T12:00:40Z</time></trkpt>
<trkpt lat="44.36024500" lon="5.91928400"><ele>583.012024</ele><time>2010-06-02T12:00:52Z</time></trkpt>
<trkpt lat="44.35971900" lon="5.91892100"><ele>583.132996</ele><time>2010-06-02T12:01:02Z</time></trkpt>
<trkpt lat="44.35916500" lon="5.91854000"><ele>582.987976</ele><time>2010-06-02T12:01:12Z</time></trkpt>
<trkpt lat="44.35859100" lon="5.91814400"><ele>582.986023</ele><time>2010-06-02T12:01:22Z</time></trkpt>
<trkpt lat="44.35797300" lon="5.91772100"><ele>583.075012</ele><time>2010-06-02T12:01:33Z</time></trkpt>
<trkpt lat="44.35753300" lon="5.91741200"><ele>582.492004</ele><time>2010-06-02T12:01:41Z</time></trkpt>
<trkpt lat="44.35697900" lon="5.91702800"><ele>582.499023</ele><time>2010-06-02T12:01:51Z</time></trkpt>
<trkpt lat="44.35634700" lon="5.91658700"><ele>581.760986</ele><time>2010-06-02T12:02:02Z</time></trkpt>
<trkpt lat="44.35569200" lon="5.91613600"><ele>580.539001</ele><time>2010-06-02T12:02:13Z</time></trkpt>
<trkpt lat="44.35502300" lon="5.91567400"><ele>580.333008</ele><time>2010-06-02T12:02:24Z</time></trkpt>
<trkpt lat="44.35448800" lon="5.91530000"><ele>578.252014</ele><time>2010-06-02T12:02:33Z</time></trkpt>
<trkpt lat="44.35397400" lon="5.91491300"><ele>578.583008</ele><time>2010-06-02T12:02:41Z</time></trkpt>
<trkpt lat="44.35351200" lon="5.91455300"><ele>577.979004</ele><time>2010-06-02T12:02:48Z</time></trkpt>
<trkpt lat="44.35281400" lon="5.91400500"><ele>577.828003</ele><time>2010-06-02T12:02:58Z</time></trkpt>
<trkpt lat="44.35260700" lon="5.91384200"><ele>579.640991</ele><time>2010-06-02T12:03:01Z</time></trkpt>
<trkpt lat="44.35185700" lon="5.91323500"><ele>578.197021</ele><time>2010-06-02T12:03:12Z</time></trkpt>
<trkpt lat="44.35116900" lon="5.91268400"><ele>577.26001</ele><time>2010-06-02T12:03:22Z</time></trkpt>
<trkpt lat="44.35067800" lon="5.91229600"><ele>577.11499</ele><time>2010-06-02T12:03:29Z</time></trkpt>
<trkpt lat="44.35004200" lon="5.91182800"><ele>576.643982</ele><time>2010-06-02T12:03:38Z</time></trkpt>
<trkpt lat="44.34938300" lon="5.91136100"><ele>576.794006</ele><time>2010-06-02T12:03:47Z</time></trkpt>
<trkpt lat="44.34885000" lon="5.91108900"><ele>577.067993</ele><time>2010-06-02T12:03:54Z</time></trkpt>
<trkpt lat="44.34814300" lon="5.91089400"><ele>575.195984</ele><time>2010-06-02T12:04:03Z</time></trkpt>
<trkpt lat="44.34739700" lon="5.91073400"><ele>576.08197</ele><time>2010-06-02T12:04:12Z</time></trkpt>
<trkpt lat="44.34690500" lon="5.91052800"><ele>575.968994</ele><time>2010-06-02T12:04:18Z</time></trkpt>
<trkpt lat="44.34635100" lon="5.91014400"><ele>576.208008</ele><time>2010-06-02T12:04:25Z</time></trkpt>
<trkpt lat="44.34570200" lon="5.90959900"><ele>576.427002</ele><time>2010-06-02T12:04:34Z</time></trkpt>
<trkpt lat="44.34522300" lon="5.90920200"><ele>576.70697</ele><time>2010-06-02T12:04:41Z</time></trkpt>
<trkpt lat="44.34471000" lon="5.90871200"><ele>580.007019</ele><time>2010-06-02T12:04:49Z</time></trkpt>
<trkpt lat="44.34434500" lon="5.90820800"><ele>579.343994</ele><time>2010-06-02T12:04:56Z</time></trkpt>
<trkpt lat="44.34398700" lon="5.90768100"><ele>579.085022</ele><time>2010-06-02T12:05:04Z</time></trkpt>
<trkpt lat="44.34359500" lon="5.90710400"><ele>580.140015</ele><time>2010-06-02T12:05:13Z</time></trkpt>
<trkpt lat="44.34314300" lon="5.90643400"><ele>580.487976</ele><time>2010-06-02T12:05:23Z</time></trkpt>
<trkpt lat="44.34267400" lon="5.90574700"><ele>580.979004</ele><time>2010-06-02T12:05:33Z</time></trkpt>
<trkpt lat="44.34226800" lon="5.90516700"><ele>581.421997</ele><time>2010-06-02T12:05:42Z</time></trkpt>
<trkpt lat="44.34170700" lon="5.90448900"><ele>581.981018</ele><time>2010-06-02T12:05:54Z</time></trkpt>
<trkpt lat="44.34133600" lon="5.90407000"><ele>583.210999</ele><time>2010-06-02T12:06:02Z</time></trkpt>
<trkpt lat="44.34080600" lon="5.90346700"><ele>583.215027</ele><time>2010-06-02T12:06:14Z</time></trkpt>
<trkpt lat="44.34045400" lon="5.90306400"><ele>583.68103</ele><time>2010-06-02T12:06:22Z</time></trkpt>
<trkpt lat="44.34001700" lon="5.90256400"><ele>584.77002</ele><time>2010-06-02T12:06:32Z</time></trkpt>
<trkpt lat="44.33954400" lon="5.90203500"><ele>584.219971</ele><time>2010-06-02T12:06:42Z</time></trkpt>
<trkpt lat="44.33901400" lon="5.90146200"><ele>583.411011</ele><time>2010-06-02T12:06:52Z</time></trkpt>
<trkpt lat="44.33851900" lon="5.90096900"><ele>582.726013</ele><time>2010-06-02T12:07:00Z</time></trkpt>
<trkpt lat="44.33795700" lon="5.90047100"><ele>581.151978</ele><time>2010-06-02T12:07:08Z</time></trkpt>
<trkpt lat="44.33740200" lon="5.90003300"><ele>579.679016</ele><time>2010-06-02T12:07:15Z</time></trkpt>
<trkpt lat="44.33669100" lon="5.89953300"><ele>577.854004</ele><time>2010-06-02T12:07:23Z</time></trkpt>
<trkpt lat="44.33591100" lon="5.89906800"><ele>574.747986</ele><time>2010-06-02T12:07:31Z</time></trkpt>
<trkpt lat="44.33526000" lon="5.89874100"><ele>571.601013</ele><time>2010-06-02T12:07:37Z</time></trkpt>
<trkpt lat="44.33431800" lon="5.89835300"><ele>569.380981</ele><time>2010-06-02T12:07:45Z</time></trkpt>
<trkpt lat="44.33326500" lon="5.89795000"><ele>567.34198</ele><time>2010-06-02T12:07:54Z</time></trkpt>
<trkpt lat="44.33237100" lon="5.89760300"><ele>566.202026</ele><time>2010-06-02T12:08:02Z</time></trkpt>
<trkpt lat="44.33138400" lon="5.89722500"><ele>565.976013</ele><time>2010-06-02T12:08:11Z</time></trkpt>
<trkpt lat="44.33057200" lon="5.89690600"><ele>565.976013</ele><time>2010-06-02T12:08:19Z</time></trkpt>
<trkpt lat="44.32985500" lon="5.89661300"><ele>567.182007</ele><time>2010-06-02T12:08:27Z</time></trkpt>
<trkpt lat="44.32923500" lon="5.89629500"><ele>568.291016</ele><time>2010-06-02T12:08:35Z</time></trkpt>
<trkpt lat="44.32861100" lon="5.89591400"><ele>569.851013</ele><time>2010-06-02T12:08:44Z</time></trkpt>
<trkpt lat="44.32812000" lon="5.89556300"><ele>571.51001</ele><time>2010-06-02T12:08:52Z</time></trkpt>
<trkpt lat="44.32760100" lon="5.89515800"><ele>573.429016</ele><time>2010-06-02T12:09:01Z</time></trkpt>
<trkpt lat="44.32725400" lon="5.89487900"><ele>574.179993</ele><time>2010-06-02T12:09:08Z</time></trkpt>
<trkpt lat="44.32688800" lon="5.89458900"><ele>575.018982</ele><time>2010-06-02T12:09:16Z</time></trkpt>
<trkpt lat="44.32648500" lon="5.89426700"><ele>576.065979</ele><time>2010-06-02T12:09:25Z</time></trkpt>
<trkpt lat="44.32612800" lon="5.89401600"><ele>576.473999</ele><time>2010-06-02T12:09:33Z</time></trkpt>
<trkpt lat="44.32585700" lon="5.89383200"><ele>577.856995</ele><time>2010-06-02T12:09:39Z</time></trkpt>
<trkpt lat="44.32552200" lon="5.89364000"><ele>578.236023</ele><time>2010-06-02T12:09:46Z</time></trkpt>
<trkpt lat="44.32492500" lon="5.89336100"><ele>581.723999</ele><time>2010-06-02T12:09:58Z</time></trkpt>
<trkpt lat="44.32487600" lon="5.89334100"><ele>581.927002</ele><time>2010-06-02T12:09:59Z</time></trkpt>
<trkpt lat="44.32432600" lon="5.89313900"><ele>581.573975</ele><time>2010-06-02T12:10:10Z</time></trkpt>
<trkpt lat="44.32375700" lon="5.89296900"><ele>581.664978</ele><time>2010-06-02T12:10:21Z</time></trkpt>
<trkpt lat="44.32329400" lon="5.89283200"><ele>582.97699</ele><time>2010-06-02T12:10:30Z</time></trkpt>
<trkpt lat="44.32293200" lon="5.89272700"><ele>583.570984</ele><time>2010-06-02T12:10:37Z</time></trkpt>
<trkpt lat="44.32241000" lon="5.89257200"><ele>583.848999</ele><time>2010-06-02T12:10:47Z</time></trkpt>
<trkpt lat="44.32213100" lon="5.89248800"><ele>583.455017</ele><time>2010-06-02T12:10:53Z</time></trkpt>
<trkpt lat="44.32169200" lon="5.89235200"><ele>583.877014</ele><time>2010-06-02T12:11:02Z</time></trkpt>
<trkpt lat="44.32126800" lon="5.89222400"><ele>585.469971</ele><time>2010-06-02T12:11:10Z</time></trkpt>
<trkpt lat="44.32080600" lon="5.89216500"><ele>585.89801</ele><time>2010-06-02T12:11:18Z</time></trkpt>
<trkpt lat="44.32030300" lon="5.89217900"><ele>584.140015</ele><time>2010-06-02T12:11:26Z</time></trkpt>
<trkpt lat="44.31974400" lon="5.89229600"><ele>584.10498</ele><time>2010-06-02T12:11:34Z</time></trkpt>
<trkpt lat="44.31916300" lon="5.89255100"><ele>583.749023</ele><time>2010-06-02T12:11:42Z</time></trkpt>
<trkpt lat="44.31863300" lon="5.89287600"><ele>583.638</ele><time>2010-06-02T12:11:49Z</time></trkpt>
<trkpt lat="44.31807200" lon="5.89333200"><ele>583.25</ele><time>2010-06-02T12:11:56Z</time></trkpt>
<trkpt lat="44.31741600" lon="5.89391900"><ele>582.656982</ele><time>2010-06-02T12:12:04Z</time></trkpt>
<trkpt lat="44.31666100" lon="5.89460200"><ele>582.642029</ele><time>2010-06-02T12:12:13Z</time></trkpt>
<trkpt lat="44.31587300" lon="5.89530700"><ele>583.16803</ele><time>2010-06-02T12:12:22Z</time></trkpt>
<trkpt lat="44.31499000" lon="5.89610300"><ele>582.609009</ele><time>2010-06-02T12:12:32Z</time></trkpt>
<trkpt lat="44.31417600" lon="5.89684200"><ele>583.062012</ele><time>2010-06-02T12:12:41Z</time></trkpt>
<trkpt lat="44.31337400" lon="5.89756400"><ele>583.572021</ele><time>2010-06-02T12:12:50Z</time></trkpt>
<trkpt lat="44.31260800" lon="5.89825000"><ele>583.161987</ele><time>2010-06-02T12:12:59Z</time></trkpt>
<trkpt lat="44.31203300" lon="5.89876600"><ele>585.018005</ele><time>2010-06-02T12:13:06Z</time></trkpt>
<trkpt lat="44.31132800" lon="5.89940600"><ele>585.955017</ele><time>2010-06-02T12:13:15Z</time></trkpt>
<trkpt lat="44.31074100" lon="5.89987900"><ele>587.419006</ele><time>2010-06-02T12:13:23Z</time></trkpt>
<trkpt lat="44.31012300" lon="5.90026200"><ele>589.348022</ele><time>2010-06-02T12:13:32Z</time></trkpt>
<trkpt lat="44.30961400" lon="5.90049200"><ele>590.770996</ele><time>2010-06-02T12:13:40Z</time></trkpt>
<trkpt lat="44.30900600" lon="5.90066700"><ele>592.685974</ele><time>2010-06-02T12:13:50Z</time></trkpt>
<trkpt lat="44.30836500" lon="5.90075000"><ele>593.929993</ele><time>2010-06-02T12:14:00Z</time></trkpt>
<trkpt lat="44.30781000" lon="5.90075100"><ele>594.395996</ele><time>2010-06-02T12:14:08Z</time></trkpt>
<trkpt lat="44.30718700" lon="5.90072100"><ele>594.304016</ele><time>2010-06-02T12:14:16Z</time></trkpt>
<trkpt lat="44.30646200" lon="5.90068700"><ele>592.719971</ele><time>2010-06-02T12:14:24Z</time></trkpt>
<trkpt lat="44.30584100" lon="5.90065700"><ele>590.666016</ele><time>2010-06-02T12:14:30Z</time></trkpt>
<trkpt lat="44.30501900" lon="5.90061400"><ele>589.034973</ele><time>2010-06-02T12:14:37Z</time></trkpt>
<trkpt lat="44.30383200" lon="5.90055400"><ele>586.91803</ele><time>2010-06-02T12:14:47Z</time></trkpt>
<trkpt lat="44.30298800" lon="5.90051000"><ele>587.992981</ele><time>2010-06-02T12:14:55Z</time></trkpt>
<trkpt lat="44.30223000" lon="5.90052700"><ele>589.096008</ele><time>2010-06-02T12:15:03Z</time></trkpt>
<trkpt lat="44.30145200" lon="5.90060400"><ele>590.010986</ele><time>2010-06-02T12:15:12Z</time></trkpt>
<trkpt lat="44.30072900" lon="5.90068300"><ele>590.833008</ele><time>2010-06-02T12:15:21Z</time></trkpt>
<trkpt lat="44.29996800" lon="5.90076500"><ele>591.096008</ele><time>2010-06-02T12:15:31Z</time></trkpt>
<trkpt lat="44.29907100" lon="5.90086100"><ele>591.736023</ele><time>2010-06-02T12:15:43Z</time></trkpt>
<trkpt lat="44.29847200" lon="5.90092200"><ele>592.185974</ele><time>2010-06-02T12:15:51Z</time></trkpt>
<trkpt lat="44.29758000" lon="5.90101900"><ele>592.633972</ele><time>2010-06-02T12:16:03Z</time></trkpt>
<trkpt lat="44.29677600" lon="5.90109700"><ele>593.716003</ele><time>2010-06-02T12:16:14Z</time></trkpt>
<trkpt lat="44.29604400" lon="5.90109700"><ele>593.940979</ele><time>2010-06-02T12:16:24Z</time></trkpt>
<trkpt lat="44.29559700" lon="5.90098700"><ele>593.450989</ele><time>2010-06-02T12:16:30Z</time></trkpt>
<trkpt lat="44.29522400" lon="5.90082600"><ele>593.04303</ele><time>2010-06-02T12:16:35Z</time></trkpt>
<trkpt lat="44.29493200" lon="5.90066500"><ele>592.169006</ele><time>2010-06-02T12:16:39Z</time></trkpt>
<trkpt lat="44.29450300" lon="5.90041700"><ele>590.789978</ele><time>2010-06-02T12:16:45Z</time></trkpt>
<trkpt lat="44.29405000" lon="5.90025200"><ele>588.450989</ele><time>2010-06-02T12:16:51Z</time></trkpt>
<trkpt lat="44.29355800" lon="5.90020000"><ele>587.661987</ele><time>2010-06-02T12:16:57Z</time></trkpt>
<trkpt lat="44.29311300" lon="5.90029500"><ele>585.455017</ele><time>2010-06-02T12:17:02Z</time></trkpt>
<trkpt lat="44.29265000" lon="5.90054100"><ele>583.987976</ele><time>2010-06-02T12:17:07Z</time></trkpt>
<trkpt lat="44.29209600" lon="5.90100100"><ele>582.627991</ele><time>2010-06-02T12:17:13Z</time></trkpt>
<trkpt lat="44.29122800" lon="5.90173700"><ele>580.273987</ele><time>2010-06-02T12:17:22Z</time></trkpt>
<trkpt lat="44.29068400" lon="5.90208400"><ele>579.770996</ele><time>2010-06-02T12:17:27Z</time></trkpt>
<trkpt lat="44.29010400" lon="5.90230500"><ele>579.093994</ele><time>2010-06-02T12:17:32Z</time></trkpt>
<trkpt lat="44.28962700" lon="5.90238600"><ele>578.682007</ele><time>2010-06-02T12:17:36Z</time></trkpt>
<trkpt lat="44.28891700" lon="5.90234600"><ele>577.179993</ele><time>2010-06-02T12:17:42Z</time></trkpt>
<trkpt lat="44.28835100" lon="5.90217100"><ele>576.257019</ele><time>2010-06-02T12:17:47Z</time></trkpt>
<trkpt lat="44.28781400" lon="5.90187900"><ele>575.60498</ele><time>2010-06-02T12:17:52Z</time></trkpt>
<trkpt lat="44.28713200" lon="5.90136200"><ele>574.10199</ele><time>2010-06-02T12:17:59Z</time></trkpt>
<trkpt lat="44.28642000" lon="5.90077800"><ele>572.973022</ele><time>2010-06-02T12:18:07Z</time></trkpt>
<trkpt lat="44.28567500" lon="5.90017000"><ele>571.708984</ele><time>2010-06-02T12:18:16Z</time></trkpt>
<trkpt lat="44.28497200" lon="5.89961800"><ele>570.64502</ele><time>2010-06-02T12:18:25Z</time></trkpt>
<trkpt lat="44.28435200" lon="5.89921900"><ele>569.924011</ele><time>2010-06-02T12:18:33Z</time></trkpt>
<trkpt lat="44.28347600" lon="5.89877200"><ele>568.763</ele><time>2010-06-02T12:18:44Z</time></trkpt>
<trkpt lat="44.28321500" lon="5.89866200"><ele>568.138</ele><time>2010-06-02T12:18:48Z</time></trkpt>
<trkpt lat="44.28308900" lon="5.89857300"><ele>567.684021</ele><time>2010-06-02T12:18:52Z</time></trkpt>
<trkpt lat="44.28308800" lon="5.89856500"><ele>567.737976</ele><time>2010-06-02T12:18:54Z</time></trkpt>
<trkpt lat="44.28307400" lon="5.89853000"><ele>567.791992</ele><time>2010-06-02T12:20:34Z</time></trkpt>
<trkpt lat="44.28306100" lon="5.89851300"><ele>567.817017</ele><time>2010-06-02T12:20:35Z</time></trkpt>
<trkpt lat="44.28302600" lon="5.89840300"><ele>568.823975</ele><time>2010-06-02T12:20:40Z</time></trkpt>
<trkpt lat="44.28300800" lon="5.89824800"><ele>568.189026</ele><time>2010-06-02T12:20:47Z</time></trkpt>
<trkpt lat="44.28287100" lon="5.89809200"><ele>568.237</ele><time>2010-06-02T12:20:54Z</time></trkpt>
<trkpt lat="44.28272800" lon="5.89802700"><ele>568.013</ele><time>2010-06-02T12:20:58Z</time></trkpt>
<trkpt lat="44.28251600" lon="5.89801200"><ele>567.989014</ele><time>2010-06-02T12:21:03Z</time></trkpt>
<trkpt lat="44.28232400" lon="5.89790600"><ele>567.989014</ele><time>2010-06-02T12:21:08Z</time></trkpt>
<trkpt lat="44.28229100" lon="5.89785900"><ele>567.989014</ele><time>2010-06-02T12:21:12Z</time></trkpt>
<trkpt lat="44.28234700" lon="5.89781500"><ele>567.606995</ele><time>2010-06-02T12:21:50Z</time></trkpt>
<trkpt lat="44.28237700" lon="5.89778300"><ele>568.27002</ele><time>2010-06-02T12:21:52Z</time></trkpt>
<trkpt lat="44.28241600" lon="5.89774700"><ele>568.302002</ele><time>2010-06-02T12:21:54Z</time></trkpt>
<trkpt lat="44.28287800" lon="5.89680900"><ele>568.356018</ele><time>2010-06-02T12:22:24Z</time></trkpt>
<trkpt lat="44.28286100" lon="5.89663400"><ele>570.10199</ele><time>2010-06-02T12:22:28Z</time></trkpt>
<trkpt lat="44.28284100" lon="5.89650400"><ele>570.27002</ele><time>2010-06-02T12:22:31Z</time></trkpt>
<trkpt lat="44.28283300" lon="5.89594300"><ele>570.27002</ele><time>2010-06-02T12:22:46Z</time></trkpt>
<trkpt lat="44.28289200" lon="5.89578200"><ele>574.554993</ele><time>2010-06-02T12:22:51Z</time></trkpt>
<trkpt lat="44.28304000" lon="5.89547200"><ele>575.552002</ele><time>2010-06-02T12:23:01Z</time></trkpt>
<trkpt lat="44.28314800" lon="5.89526300"><ele>576.465027</ele><time>2010-06-02T12:23:08Z</time></trkpt>
<trkpt lat="44.28326200" lon="5.89503500"><ele>576.684021</ele><time>2010-06-02T12:23:15Z</time></trkpt>
<trkpt lat="44.28340000" lon="5.89475400"><ele>577.127014</ele><time>2010-06-02T12:23:23Z</time></trkpt>
<trkpt lat="44.28352100" lon="5.89450500"><ele>577.021973</ele><time>2010-06-02T12:23:30Z</time></trkpt>
<trkpt lat="44.28367800" lon="5.89418200"><ele>578.137024</ele><time>2010-06-02T12:23:39Z</time></trkpt>
<trkpt lat="44.28379500" lon="5.89395800"><ele>576.52002</ele><time>2010-06-02T12:23:46Z</time></trkpt>
<trkpt lat="44.28380800" lon="5.89393800"><ele>576.351013</ele><time>2010-06-02T12:23:49Z</time></trkpt>
<trkpt lat="44.28380700" lon="5.89389800"><ele>576.039978</ele><time>2010-06-02T12:25:52Z</time></trkpt>
<trkpt lat="44.28382700" lon="5.89384700"><ele>576.192993</ele><time>2010-06-02T12:25:54Z</time></trkpt>
<trkpt lat="44.28391700" lon="5.89354700"><ele>575.741028</ele><time>2010-06-02T12:26:01Z</time></trkpt>
<trkpt lat="44.28401400" lon="5.89305700"><ele>575.677979</ele><time>2010-06-02T12:26:09Z</time></trkpt>
<trkpt lat="44.28409000" lon="5.89269400"><ele>577.244995</ele><time>2010-06-02T12:26:15Z</time></trkpt>
<trkpt lat="44.28407800" lon="5.89252500"><ele>576.422974</ele><time>2010-06-02T12:26:19Z</time></trkpt>
<trkpt lat="44.28401100" lon="5.89242200"><ele>574.752014</ele><time>2010-06-02T12:26:22Z</time></trkpt>
<trkpt lat="44.28380400" lon="5.89223700"><ele>575.377014</ele><time>2010-06-02T12:26:28Z</time></trkpt>
<trkpt lat="44.28370100" lon="5.89216200"><ele>575.219971</ele><time>2010-06-02T12:26:31Z</time></trkpt>
<trkpt lat="44.28352300" lon="5.89204200"><ele>576.718994</ele><time>2010-06-02T12:26:36Z</time></trkpt>
<trkpt lat="44.28322000" lon="5.89181900"><ele>576.419006</ele><time>2010-06-02T12:26:44Z</time></trkpt>
<trkpt lat="44.28303300" lon="5.89169100"><ele>575.987</ele><time>2010-06-02T12:26:48Z</time></trkpt>
<trkpt lat="44.28278100" lon="5.89144700"><ele>574.851013</ele><time>2010-06-02T12:26:53Z</time></trkpt>
<trkpt lat="44.28252400" lon="5.89111700"><ele>574.570007</ele><time>2010-06-02T12:26:58Z</time></trkpt>
<trkpt lat="44.28237900" lon="5.89075100"><ele>572.630005</ele><time>2010-06-02T12:27:03Z</time></trkpt>
<trkpt lat="44.28225700" lon="5.89065600"><ele>569.822021</ele><time>2010-06-02T12:27:06Z</time></trkpt>
<trkpt lat="44.28215200" lon="5.89068800"><ele>569.953003</ele><time>2010-06-02T12:27:08Z</time></trkpt>
<trkpt lat="44.28188500" lon="5.89081100"><ele>571.356018</ele><time>2010-06-02T12:27:13Z</time></trkpt>
<trkpt lat="44.28183200" lon="5.89082600"><ele>571.268982</ele><time>2010-06-02T12:27:14Z</time></trkpt>
<trkpt lat="44.28165700" lon="5.89075800"><ele>570.671021</ele><time>2010-06-02T12:27:18Z</time></trkpt>
<trkpt lat="44.28161000" lon="5.89062200"><ele>569.901978</ele><time>2010-06-02T12:27:20Z</time></trkpt>
<trkpt lat="44.28150100" lon="5.89007700"><ele>568.059021</ele><time>2010-06-02T12:27:26Z</time></trkpt>
<trkpt lat="44.28131400" lon="5.88990000"><ele>567.057007</ele><time>2010-06-02T12:27:30Z</time></trkpt>
<trkpt lat="44.28119500" lon="5.88995600"><ele>566.505005</ele><time>2010-06-02T12:27:32Z</time></trkpt>
<trkpt lat="44.28073800" lon="5.89024500"><ele>565.52301</ele><time>2010-06-02T12:27:39Z</time></trkpt>
<trkpt lat="44.28033800" lon="5.89028300"><ele>564.747986</ele><time>2010-06-02T12:27:44Z</time></trkpt>
<trkpt lat="44.27966700" lon="5.89019300"><ele>563.65802</ele><time>2010-06-02T12:27:52Z</time></trkpt>
<trkpt lat="44.27949000" lon="5.89019900"><ele>562.997009</ele><time>2010-06-02T12:27:54Z</time></trkpt>
<trkpt lat="44.27931500" lon="5.89023300"><ele>562.893982</ele><time>2010-06-02T12:27:56Z</time></trkpt>
<trkpt lat="44.27907400" lon="5.89019700"><ele>562.98999</ele><time>2010-06-02T12:27:59Z</time></trkpt>
<trkpt lat="44.27898700" lon="5.89003600"><ele>563.669006</ele><time>2010-06-02T12:28:01Z</time></trkpt>
<trkpt lat="44.27897000" lon="5.88994100"><ele>563.643982</ele><time>2010-06-02T12:28:02Z</time></trkpt>
<trkpt lat="44.27878500" lon="5.88958500"><ele>561.351013</ele><time>2010-06-02T12:28:07Z</time></trkpt>
<trkpt lat="44.27846000" lon="5.88918400"><ele>561.633972</ele><time>2010-06-02T12:28:13Z</time></trkpt>
<trkpt lat="44.27812900" lon="5.88858100"><ele>561.301025</ele><time>2010-06-02T12:28:20Z</time></trkpt>
<trkpt lat="44.27808000" lon="5.88849700"><ele>561.028992</ele><time>2010-06-02T12:28:21Z</time></trkpt>
<trkpt lat="44.27780500" lon="5.88829500"><ele>559.822998</ele><time>2010-06-02T12:28:25Z</time></trkpt>
<trkpt lat="44.27741300" lon="5.88817500"><ele>559.429993</ele><time>2010-06-02T12:28:30Z</time></trkpt>
<trkpt lat="44.27713300" lon="5.88798400"><ele>559.150024</ele><time>2010-06-02T12:28:34Z</time></trkpt>
<trkpt lat="44.27681000" lon="5.88768800"><ele>558.21698</ele><time>2010-06-02T12:28:39Z</time></trkpt>
<trkpt lat="44.27636100" lon="5.88750900"><ele>557.567993</ele><time>2010-06-02T12:28:45Z</time></trkpt>
<trkpt lat="44.27614300" lon="5.88727900"><ele>558.500977</ele><time>2010-06-02T12:28:49Z</time></trkpt>
<trkpt lat="44.27610300" lon="5.88720000"><ele>558.830994</ele><time>2010-06-02T12:28:50Z</time></trkpt>
<trkpt lat="44.27572400" lon="5.88632900"><ele>558.388</ele><time>2010-06-02T12:29:00Z</time></trkpt>
<trkpt lat="44.27566000" lon="5.88617800"><ele>558.638</ele><time>2010-06-02T12:29:02Z</time></trkpt>
<trkpt lat="44.27544500" lon="5.88595900"><ele>559.179016</ele><time>2010-06-02T12:29:07Z</time></trkpt>
<trkpt lat="44.27539000" lon="5.88595200"><ele>558.979004</ele><time>2010-06-02T12:29:08Z</time></trkpt>
<trkpt lat="44.27493500" lon="5.88596200"><ele>557.960999</ele><time>2010-06-02T12:29:15Z</time></trkpt>
<trkpt lat="44.27450100" lon="5.88592200"><ele>557.182007</ele><time>2010-06-02T12:29:21Z</time></trkpt>
<trkpt lat="44.27394400" lon="5.88572700"><ele>556.466003</ele><time>2010-06-02T12:29:29Z</time></trkpt>
<trkpt lat="44.27328300" lon="5.88539500"><ele>554.978027</ele><time>2010-06-02T12:29:38Z</time></trkpt>
<trkpt lat="44.27275700" lon="5.88522000"><ele>555.460999</ele><time>2010-06-02T12:29:45Z</time></trkpt>
<trkpt lat="44.27215800" lon="5.88509900"><ele>554.117981</ele><time>2010-06-02T12:29:52Z</time></trkpt>
<trkpt lat="44.27144800" lon="5.88503200"><ele>554.142029</ele><time>2010-06-02T12:30:00Z</time></trkpt>
<trkpt lat="44.27103300" lon="5.88486800"><ele>555.19397</ele><time>2010-06-02T12:30:05Z</time></trkpt>
<trkpt lat="44.27051200" lon="5.88460200"><ele>556.213013</ele><time>2010-06-02T12:30:12Z</time></trkpt>
<trkpt lat="44.27017900" lon="5.88453400"><ele>557.343994</ele><time>2010-06-02T12:30:17Z</time></trkpt>
<trkpt lat="44.26959400" lon="5.88446000"><ele>556.130005</ele><time>2010-06-02T12:30:25Z</time></trkpt>
<trkpt lat="44.26923100" lon="5.88436000"><ele>556.309998</ele><time>2010-06-02T12:30:30Z</time></trkpt>
<trkpt lat="44.26887600" lon="5.88405600"><ele>557.242981</ele><time>2010-06-02T12:30:36Z</time></trkpt>
<trkpt lat="44.26864700" lon="5.88383000"><ele>558.659973</ele><time>2010-06-02T12:30:41Z</time></trkpt>
<trkpt lat="44.26835600" lon="5.88364500"><ele>559.38501</ele><time>2010-06-02T12:30:48Z</time></trkpt>
<trkpt lat="44.26805900" lon="5.88345300"><ele>559.312988</ele><time>2010-06-02T12:30:55Z</time></trkpt>
<trkpt lat="44.26786200" lon="5.88326800"><ele>559.284973</ele><time>2010-06-02T12:31:00Z</time></trkpt>
<trkpt lat="44.26764800" lon="5.88312200"><ele>560.163025</ele><time>2010-06-02T12:31:05Z</time></trkpt>
<trkpt lat="44.26733700" lon="5.88297800"><ele>560.247986</ele><time>2010-06-02T12:31:12Z</time></trkpt>
<trkpt lat="44.26690800" lon="5.88272000"><ele>560.677002</ele><time>2010-06-02T12:31:21Z</time></trkpt>
<trkpt lat="44.26656100" lon="5.88242500"><ele>559.770996</ele><time>2010-06-02T12:31:28Z</time></trkpt>
<trkpt lat="44.26615700" lon="5.88193000"><ele>559.864014</ele><time>2010-06-02T12:31:37Z</time></trkpt>
<trkpt lat="44.26587500" lon="5.88154500"><ele>561.215027</ele><time>2010-06-02T12:31:44Z</time></trkpt>
<trkpt lat="44.26557400" lon="5.88112500"><ele>562.866028</ele><time>2010-06-02T12:31:52Z</time></trkpt>
<trkpt lat="44.26536100" lon="5.88086600"><ele>563.528015</ele><time>2010-06-02T12:31:58Z</time></trkpt>
<trkpt lat="44.26511900" lon="5.88066100"><ele>564.802979</ele><time>2010-06-02T12:32:05Z</time></trkpt>
<trkpt lat="44.26491100" lon="5.88050200"><ele>566.299011</ele><time>2010-06-02T12:32:12Z</time></trkpt>
<trkpt lat="44.26477500" lon="5.88042800"><ele>567.586975</ele><time>2010-06-02T12:32:17Z</time></trkpt>
<trkpt lat="44.26454500" lon="5.88036600"><ele>568.596985</ele><time>2010-06-02T12:32:26Z</time></trkpt>
<trkpt lat="44.26430000" lon="5.88029700"><ele>570.257996</ele><time>2010-06-02T12:32:35Z</time></trkpt>
<trkpt lat="44.26415800" lon="5.88027000"><ele>571.109009</ele><time>2010-06-02T12:32:41Z</time></trkpt>
<trkpt lat="44.26406400" lon="5.88024000"><ele>572.966003</ele><time>2010-06-02T12:32:45Z</time></trkpt>
<trkpt lat="44.26390800" lon="5.88018800"><ele>573.690979</ele><time>2010-06-02T12:32:52Z</time></trkpt>
<trkpt lat="44.26376700" lon="5.88006500"><ele>576.06897</ele><time>2010-06-02T12:33:01Z</time></trkpt>
<trkpt lat="44.26368500" lon="5.87993500"><ele>577.085999</ele><time>2010-06-02T12:33:08Z</time></trkpt>
<trkpt lat="44.26360200" lon="5.87981600"><ele>578.08197</ele><time>2010-06-02T12:33:14Z</time></trkpt>
<trkpt lat="44.26350300" lon="5.87962600"><ele>578.994995</ele><time>2010-06-02T12:33:22Z</time></trkpt>
<trkpt lat="44.26343700" lon="5.87943100"><ele>580.039001</ele><time>2010-06-02T12:33:29Z</time></trkpt>
<trkpt lat="44.26342100" lon="5.87915300"><ele>580.924011</ele><time>2010-06-02T12:33:38Z</time></trkpt>
<trkpt lat="44.26346800" lon="5.87889900"><ele>581.745972</ele><time>2010-06-02T12:33:46Z</time></trkpt>
<trkpt lat="44.26347700" lon="5.87864000"><ele>581.284973</ele><time>2010-06-02T12:33:54Z</time></trkpt>
<trkpt lat="44.26343900" lon="5.87838700"><ele>582.229004</ele><time>2010-06-02T12:34:02Z</time></trkpt>
<trkpt lat="44.26335100" lon="5.87818600"><ele>582.341003</ele><time>2010-06-02T12:34:08Z</time></trkpt>
<trkpt lat="44.26318200" lon="5.87800400"><ele>583.039001</ele><time>2010-06-02T12:34:14Z</time></trkpt>
<trkpt lat="44.26288200" lon="5.87775200"><ele>583.388977</ele><time>2010-06-02T12:34:23Z</time></trkpt>
<trkpt lat="44.26280900" lon="5.87770100"><ele>583.560974</ele><time>2010-06-02T12:34:25Z</time></trkpt>
<trkpt lat="44.26255900" lon="5.87749100"><ele>585.760986</ele><time>2010-06-02T12:34:32Z</time></trkpt>
<trkpt lat="44.26231800" lon="5.87731100"><ele>585.700989</ele><time>2010-06-02T12:34:39Z</time></trkpt>
<trkpt lat="44.26206200" lon="5.87714400"><ele>584.879028</ele><time>2010-06-02T12:34:47Z</time></trkpt>
<trkpt lat="44.26170600" lon="5.87696900"><ele>586.215027</ele><time>2010-06-02T12:34:57Z</time></trkpt>
<trkpt lat="44.26140000" lon="5.87683000"><ele>586.565002</ele><time>2010-06-02T12:35:06Z</time></trkpt>
<trkpt lat="44.26117600" lon="5.87676100"><ele>586.507996</ele><time>2010-06-02T12:35:13Z</time></trkpt>
<trkpt lat="44.26093900" lon="5.87680200"><ele>587.057007</ele><time>2010-06-02T12:35:21Z</time></trkpt>
<trkpt lat="44.26081000" lon="5.87687600"><ele>586.130981</ele><time>2010-06-02T12:35:25Z</time></trkpt>
<trkpt lat="44.26053200" lon="5.87688600"><ele>586.142029</ele><time>2010-06-02T12:35:31Z</time></trkpt>
<trkpt lat="44.26014000" lon="5.87689900"><ele>585.35498</ele><time>2010-06-02T12:35:37Z</time></trkpt>
<trkpt lat="44.25974100" lon="5.87698000"><ele>583.390991</ele><time>2010-06-02T12:35:42Z</time></trkpt>
<trkpt lat="44.25922500" lon="5.87718100"><ele>582.119995</ele><time>2010-06-02T12:35:48Z</time></trkpt>
<trkpt lat="44.25878700" lon="5.87742600"><ele>580.544006</ele><time>2010-06-02T12:35:53Z</time></trkpt>
<trkpt lat="44.25862200" lon="5.87748400"><ele>579.958008</ele><time>2010-06-02T12:35:55Z</time></trkpt>
<trkpt lat="44.25839400" lon="5.87762700"><ele>578.502991</ele><time>2010-06-02T12:35:58Z</time></trkpt>
<trkpt lat="44.25826900" lon="5.87778700"><ele>577.892029</ele><time>2010-06-02T12:36:00Z</time></trkpt>
<trkpt lat="44.25774100" lon="5.87858700"><ele>575.895996</ele><time>2010-06-02T12:36:09Z</time></trkpt>
<trkpt lat="44.25723300" lon="5.87924500"><ele>574.997986</ele><time>2010-06-02T12:36:17Z</time></trkpt>
<trkpt lat="44.25692200" lon="5.87962300"><ele>574.573975</ele><time>2010-06-02T12:36:22Z</time></trkpt>
<trkpt lat="44.25650300" lon="5.88008300"><ele>575.468018</ele><time>2010-06-02T12:36:29Z</time></trkpt>
<trkpt lat="44.25614400" lon="5.88052000"><ele>575.125</ele><time>2010-06-02T12:36:36Z</time></trkpt>
<trkpt lat="44.25582100" lon="5.88091000"><ele>575.822998</ele><time>2010-06-02T12:36:43Z</time></trkpt>
<trkpt lat="44.25564900" lon="5.88124400"><ele>576.534973</ele><time>2010-06-02T12:36:49Z</time></trkpt>
<trkpt lat="44.25555200" lon="5.88151800"><ele>576.744019</ele><time>2010-06-02T12:36:55Z</time></trkpt>
<trkpt lat="44.25553500" lon="5.88158500"><ele>576.320007</ele><time>2010-06-02T12:36:57Z</time></trkpt>
<trkpt lat="44.25546200" lon="5.88162400"><ele>577.159973</ele><time>2010-06-02T12:37:02Z</time></trkpt>
<trkpt lat="44.25544600" lon="5.88162800"><ele>576.804016</ele><time>2010-06-02T12:37:05Z</time></trkpt>
<trkpt lat="44.25545800" lon="5.88173600"><ele>575.989014</ele><time>2010-06-02T12:37:15Z</time></trkpt>
<trkpt lat="44.25534900" lon="5.88177800"><ele>575.304016</ele><time>2010-06-02T12:37:18Z</time></trkpt>
<trkpt lat="44.25502700" lon="5.88181300"><ele>574.338989</ele><time>2010-06-02T12:37:24Z</time></trkpt>
<trkpt lat="44.25466300" lon="5.88187500"><ele>571.661987</ele><time>2010-06-02T12:37:29Z</time></trkpt>
<trkpt lat="44.25414900" lon="5.88196200"><ele>568.223022</ele><time>2010-06-02T12:37:35Z</time></trkpt>
<trkpt lat="44.25406800" lon="5.88198300"><ele>567.888977</ele><time>2010-06-02T12:37:36Z</time></trkpt>
<trkpt lat="44.25372200" lon="5.88223600"><ele>567.505005</ele><time>2010-06-02T12:37:41Z</time></trkpt>
<trkpt lat="44.25361200" lon="5.88239600"><ele>567.421997</ele><time>2010-06-02T12:37:43Z</time></trkpt>
<trkpt lat="44.25333100" lon="5.88288900"><ele>565.057007</ele><time>2010-06-02T12:37:48Z</time></trkpt>
<trkpt lat="44.25318200" lon="5.88310100"><ele>563.356018</ele><time>2010-06-02T12:37:50Z</time></trkpt>
<trkpt lat="44.25277800" lon="5.88340600"><ele>560.242981</ele><time>2010-06-02T12:37:54Z</time></trkpt>
<trkpt lat="44.25267900" lon="5.88345800"><ele>560.171997</ele><time>2010-06-02T12:37:55Z</time></trkpt>
<trkpt lat="44.25232400" lon="5.88379600"><ele>560.627014</ele><time>2010-06-02T12:38:00Z</time></trkpt>
<trkpt lat="44.25200000" lon="5.88403900"><ele>561.934998</ele><time>2010-06-02T12:38:05Z</time></trkpt>
<trkpt lat="44.25186500" lon="5.88411400"><ele>562.455017</ele><time>2010-06-02T12:38:07Z</time></trkpt>
<trkpt lat="44.25173400" lon="5.88418200"><ele>562.763977</ele><time>2010-06-02T12:38:09Z</time></trkpt>
<trkpt lat="44.25145900" lon="5.88433400"><ele>564.689026</ele><time>2010-06-02T12:38:14Z</time></trkpt>
<trkpt lat="44.25137300" lon="5.88438300"><ele>565.692017</ele><time>2010-06-02T12:38:16Z</time></trkpt>
<trkpt lat="44.25119600" lon="5.88447300"><ele>567.348999</ele><time>2010-06-02T12:38:21Z</time></trkpt>
<trkpt lat="44.25096800" lon="5.88456400"><ele>568.268005</ele><time>2010-06-02T12:38:29Z</time></trkpt>
<trkpt lat="44.25083900" lon="5.88471500"><ele>569.64502</ele><time>2010-06-02T12:38:35Z</time></trkpt>
<trkpt lat="44.25079900" lon="5.88475000"><ele>571.541016</ele><time>2010-06-02T12:38:39Z</time></trkpt>
<trkpt lat="44.25079900" lon="5.88475000"><ele>571.804016</ele><time>2010-06-02T12:38:40Z</time></trkpt>
<trkpt lat="44.25076000" lon="5.88477700"><ele>571.325989</ele><time>2010-06-02T12:38:49Z</time></trkpt>
<trkpt lat="44.25070100" lon="5.88492300"><ele>570.320984</ele><time>2010-06-02T12:38:53Z</time></trkpt>
<trkpt lat="44.25055500" lon="5.88512600"><ele>569.47998</ele><time>2010-06-02T12:38:57Z</time></trkpt>
<trkpt lat="44.25034900" lon="5.88542900"><ele>567.95697</ele><time>2010-06-02T12:39:01Z</time></trkpt>
<trkpt lat="44.24999700" lon="5.88593100"><ele>566.047974</ele><time>2010-06-02T12:39:06Z</time></trkpt>
<trkpt lat="44.24954600" lon="5.88647200"><ele>564.580994</ele><time>2010-06-02T12:39:11Z</time></trkpt>
<trkpt lat="44.24900700" lon="5.88693800"><ele>562.815979</ele><time>2010-06-02T12:39:16Z</time></trkpt>
<trkpt lat="44.24876500" lon="5.88710000"><ele>561.695984</ele><time>2010-06-02T12:39:18Z</time></trkpt>
<trkpt lat="44.24788000" lon="5.88763900"><ele>558.559998</ele><time>2010-06-02T12:39:25Z</time></trkpt>
<trkpt lat="44.24739900" lon="5.88796300"><ele>555.883972</ele><time>2010-06-02T12:39:29Z</time></trkpt>
<trkpt lat="44.24659400" lon="5.88851300"><ele>551.862976</ele><time>2010-06-02T12:39:36Z</time></trkpt>
<trkpt lat="44.24591700" lon="5.88897600"><ele>548.005981</ele><time>2010-06-02T12:39:42Z</time></trkpt>
<trkpt lat="44.24569700" lon="5.88914200"><ele>547.020996</ele><time>2010-06-02T12:39:44Z</time></trkpt>
<trkpt lat="44.24532700" lon="5.88962500"><ele>544.549988</ele><time>2010-06-02T12:39:48Z</time></trkpt>
<trkpt lat="44.24525600" lon="5.88978300"><ele>544.187988</ele><time>2010-06-02T12:39:49Z</time></trkpt>
<trkpt lat="44.24473700" lon="5.89087700"><ele>540.04303</ele><time>2010-06-02T12:39:56Z</time></trkpt>
<trkpt lat="44.24434600" lon="5.89135700"><ele>539.463989</ele><time>2010-06-02T12:40:00Z</time></trkpt>
<trkpt lat="44.24414000" lon="5.89158400"><ele>538.692017</ele><time>2010-06-02T12:40:02Z</time></trkpt>
<trkpt lat="44.24371300" lon="5.89205400"><ele>539.104004</ele><time>2010-06-02T12:40:06Z</time></trkpt>
<trkpt lat="44.24294100" lon="5.89290200"><ele>539.65802</ele><time>2010-06-02T12:40:13Z</time></trkpt>
<trkpt lat="44.24228400" lon="5.89362700"><ele>537.870972</ele><time>2010-06-02T12:40:19Z</time></trkpt>
<trkpt lat="44.24151400" lon="5.89448200"><ele>537.604004</ele><time>2010-06-02T12:40:26Z</time></trkpt>
<trkpt lat="44.24122700" lon="5.89479100"><ele>536.825989</ele><time>2010-06-02T12:40:29Z</time></trkpt>
<trkpt lat="44.24112200" lon="5.89490500"><ele>536.672974</ele><time>2010-06-02T12:40:31Z</time></trkpt>
<trkpt lat="44.24109600" lon="5.89493200"><ele>535.744019</ele><time>2010-06-02T12:40:33Z</time></trkpt>
<trkpt lat="44.24109600" lon="5.89493100"><ele>535.573975</ele><time>2010-06-02T12:40:34Z</time></trkpt>
<trkpt lat="44.24118100" lon="5.89483200"><ele>535.203003</ele><time>2010-06-02T12:40:46Z</time></trkpt>
<trkpt lat="44.24122300" lon="5.89479000"><ele>537.562988</ele><time>2010-06-02T12:40:49Z</time></trkpt>
<trkpt lat="44.24138200" lon="5.89461900"><ele>537.109009</ele><time>2010-06-02T12:40:57Z</time></trkpt>
<trkpt lat="44.24149200" lon="5.89450100"><ele>537.616028</ele><time>2010-06-02T12:41:03Z</time></trkpt>
<trkpt lat="44.24153300" lon="5.89446200"><ele>536.966003</ele><time>2010-06-02T12:41:08Z</time></trkpt>
<trkpt lat="44.24156400" lon="5.89444100"><ele>536.973022</ele><time>2010-06-02T12:41:13Z</time></trkpt>
<trkpt lat="44.24152100" lon="5.89444300"><ele>536.835999</ele><time>2010-06-02T12:41:23Z</time></trkpt>
<trkpt lat="44.24148100" lon="5.89449700"><ele>537.085022</ele><time>2010-06-02T12:42:01Z</time></trkpt>
<trkpt lat="44.24146500" lon="5.89451700"><ele>537.062012</ele><time>2010-06-02T12:42:02Z</time></trkpt>
<trkpt lat="44.24137600" lon="5.89461700"><ele>536.551025</ele><time>2010-06-02T12:42:06Z</time></trkpt>
<trkpt lat="44.24116700" lon="5.89483800"><ele>536.643005</ele><time>2010-06-02T12:42:11Z</time></trkpt>
<trkpt lat="44.24087200" lon="5.89516900"><ele>536.875</ele><time>2010-06-02T12:42:16Z</time></trkpt>
<trkpt lat="44.24052100" lon="5.89555300"><ele>536.606018</ele><time>2010-06-02T12:42:21Z</time></trkpt>
<trkpt lat="44.24003300" lon="5.89609200"><ele>536.320984</ele><time>2010-06-02T12:42:27Z</time></trkpt>
<trkpt lat="44.23949700" lon="5.89668600"><ele>534.812988</ele><time>2010-06-02T12:42:33Z</time></trkpt>
<trkpt lat="44.23855700" lon="5.89772800"><ele>535.231995</ele><time>2010-06-02T12:42:43Z</time></trkpt>
<trkpt lat="44.23772700" lon="5.89863100"><ele>534.901001</ele><time>2010-06-02T12:42:52Z</time></trkpt>
<trkpt lat="44.23683200" lon="5.89961500"><ele>534.138977</ele><time>2010-06-02T12:43:02Z</time></trkpt>
<trkpt lat="44.23596200" lon="5.90058100"><ele>533.388977</ele><time>2010-06-02T12:43:12Z</time></trkpt>
<trkpt lat="44.23532000" lon="5.90130600"><ele>530.903015</ele><time>2010-06-02T12:43:19Z</time></trkpt>
<trkpt lat="44.23464000" lon="5.90207700"><ele>528.547974</ele><time>2010-06-02T12:43:26Z</time></trkpt>
<trkpt lat="44.23401100" lon="5.90278500"><ele>526.640015</ele><time>2010-06-02T12:43:33Z</time></trkpt>
<trkpt lat="44.23335000" lon="5.90354100"><ele>526.317993</ele><time>2010-06-02T12:43:41Z</time></trkpt>
<trkpt lat="44.23248800" lon="5.90450800"><ele>526.744995</ele><time>2010-06-02T12:43:52Z</time></trkpt>
<trkpt lat="44.23174600" lon="5.90534000"><ele>525.241028</ele><time>2010-06-02T12:44:02Z</time></trkpt>
<trkpt lat="44.23080800" lon="5.90639700"><ele>524.682007</ele><time>2010-06-02T12:44:15Z</time></trkpt>
<trkpt lat="44.23044400" lon="5.90680500"><ele>524.203003</ele><time>2010-06-02T12:44:20Z</time></trkpt>
<trkpt lat="44.23000700" lon="5.90729000"><ele>523.546997</ele><time>2010-06-02T12:44:26Z</time></trkpt>
<trkpt lat="44.22972100" lon="5.90761200"><ele>523.53302</ele><time>2010-06-02T12:44:30Z</time></trkpt>
<trkpt lat="44.22907600" lon="5.90834100"><ele>523.187012</ele><time>2010-06-02T12:44:39Z</time></trkpt>
<trkpt lat="44.22845700" lon="5.90901800"><ele>522.63501</ele><time>2010-06-02T12:44:48Z</time></trkpt>
<trkpt lat="44.22792800" lon="5.90959300"><ele>521.817993</ele><time>2010-06-02T12:44:56Z</time></trkpt>
<trkpt lat="44.22737100" lon="5.91020900"><ele>522.117004</ele><time>2010-06-02T12:45:05Z</time></trkpt>
<trkpt lat="44.22698400" lon="5.91063200"><ele>521.645996</ele><time>2010-06-02T12:45:12Z</time></trkpt>
<trkpt lat="44.22658800" lon="5.91107000"><ele>521.471008</ele><time>2010-06-02T12:45:20Z</time></trkpt>
<trkpt lat="44.22614400" lon="5.91156900"><ele>520.437988</ele><time>2010-06-02T12:45:30Z</time></trkpt>
<trkpt lat="44.22574700" lon="5.91203600"><ele>519.708008</ele><time>2010-06-02T12:45:39Z</time></trkpt>
<trkpt lat="44.22542800" lon="5.91239500"><ele>519.43103</ele><time>2010-06-02T12:45:46Z</time></trkpt>
<trkpt lat="44.22512000" lon="5.91284600"><ele>518.487976</ele><time>2010-06-02T12:45:53Z</time></trkpt>
<trkpt lat="44.22498300" lon="5.91312200"><ele>518.031006</ele><time>2010-06-02T12:45:57Z</time></trkpt>
<trkpt lat="44.22481000" lon="5.91330400"><ele>517.593994</ele><time>2010-06-02T12:46:01Z</time></trkpt>
<trkpt lat="44.22459800" lon="5.91358100"><ele>517.533997</ele><time>2010-06-02T12:46:06Z</time></trkpt>
<trkpt lat="44.22444900" lon="5.91371500"><ele>517.664978</ele><time>2010-06-02T12:46:09Z</time></trkpt>
<trkpt lat="44.22403000" lon="5.91401200"><ele>517.289001</ele><time>2010-06-02T12:46:16Z</time></trkpt>
<trkpt lat="44.22360800" lon="5.91446700"><ele>516.505005</ele><time>2010-06-02T12:46:23Z</time></trkpt>
<trkpt lat="44.22328200" lon="5.91481500"><ele>516.791016</ele><time>2010-06-02T12:46:28Z</time></trkpt>
<trkpt lat="44.22271000" lon="5.91544900"><ele>517.185974</ele><time>2010-06-02T12:46:37Z</time></trkpt>
<trkpt lat="44.22201500" lon="5.91621500"><ele>516.539001</ele><time>2010-06-02T12:46:48Z</time></trkpt>
<trkpt lat="44.22143600" lon="5.91685900"><ele>517.23999</ele><time>2010-06-02T12:46:57Z</time></trkpt>
<trkpt lat="44.22078900" lon="5.91756500"><ele>517.669983</ele><time>2010-06-02T12:47:07Z</time></trkpt>
<trkpt lat="44.22022400" lon="5.91813400"><ele>518.325989</ele><time>2010-06-02T12:47:16Z</time></trkpt>
<trkpt lat="44.22002300" lon="5.91829800"><ele>516.825012</ele><time>2010-06-02T12:47:19Z</time></trkpt>
<trkpt lat="44.21949400" lon="5.91870800"><ele>517.094971</ele><time>2010-06-02T12:47:27Z</time></trkpt>
<trkpt lat="44.21908800" lon="5.91911800"><ele>516.570007</ele><time>2010-06-02T12:47:34Z</time></trkpt>
<trkpt lat="44.21864600" lon="5.91960500"><ele>515.953979</ele><time>2010-06-02T12:47:42Z</time></trkpt>
<trkpt lat="44.21817900" lon="5.92014000"><ele>514.143982</ele><time>2010-06-02T12:47:50Z</time></trkpt>
<trkpt lat="44.21783300" lon="5.92055800"><ele>514.27002</ele><time>2010-06-02T12:47:56Z</time></trkpt>
<trkpt lat="44.21744600" lon="5.92109100"><ele>514.234009</ele><time>2010-06-02T12:48:03Z</time></trkpt>
<trkpt lat="44.21707100" lon="5.92159900"><ele>513.754028</ele><time>2010-06-02T12:48:10Z</time></trkpt>
<trkpt lat="44.21668300" lon="5.92205300"><ele>513.60199</ele><time>2010-06-02T12:48:17Z</time></trkpt>
<trkpt lat="44.21626700" lon="5.92251700"><ele>513.822998</ele><time>2010-06-02T12:48:25Z</time></trkpt>
<trkpt lat="44.21588800" lon="5.92292300"><ele>513.653015</ele><time>2010-06-02T12:48:33Z</time></trkpt>
<trkpt lat="44.21551200" lon="5.92332900"><ele>515.388977</ele><time>2010-06-02T12:48:42Z</time></trkpt>
<trkpt lat="44.21526400" lon="5.92359700"><ele>513.130981</ele><time>2010-06-02T12:48:49Z</time></trkpt>
<trkpt lat="44.21513300" lon="5.92370500"><ele>513.994019</ele><time>2010-06-02T12:48:54Z</time></trkpt>
<trkpt lat="44.21510700" lon="5.92371600"><ele>513.703003</ele><time>2010-06-02T12:48:57Z</time></trkpt>
<trkpt lat="44.21505500" lon="5.92380300"><ele>513.752014</ele><time>2010-06-02T12:49:20Z</time></trkpt>
<trkpt lat="44.21498000" lon="5.92388300"><ele>514.322021</ele><time>2010-06-02T12:49:24Z</time></trkpt>
<trkpt lat="44.21479300" lon="5.92408800"><ele>514.10498</ele><time>2010-06-02T12:49:32Z</time></trkpt>
<trkpt lat="44.21459000" lon="5.92430900"><ele>513.773987</ele><time>2010-06-02T12:49:40Z</time></trkpt>
<trkpt lat="44.21438700" lon="5.92452100"><ele>514.200012</ele><time>2010-06-02T12:49:48Z</time></trkpt>
<trkpt lat="44.21413500" lon="5.92477400"><ele>512.827026</ele><time>2010-06-02T12:49:58Z</time></trkpt>
<trkpt lat="44.21408600" lon="5.92481700"><ele>512.40802</ele><time>2010-06-02T12:50:03Z</time></trkpt>
<trkpt lat="44.21414900" lon="5.92488500"><ele>514.289978</ele><time>2010-06-02T12:50:28Z</time></trkpt>
<trkpt lat="44.21418900" lon="5.92484100"><ele>514.23999</ele><time>2010-06-02T12:50:30Z</time></trkpt>
<trkpt lat="44.21431000" lon="5.92470600"><ele>513.942993</ele><time>2010-06-02T12:50:35Z</time></trkpt>
<trkpt lat="44.21439400" lon="5.92461900"><ele>514.500977</ele><time>2010-06-02T12:50:38Z</time></trkpt>
<trkpt lat="44.21463400" lon="5.92436200"><ele>514.822021</ele><time>2010-06-02T12:50:46Z</time></trkpt>
<trkpt lat="44.21478800" lon="5.92419700"><ele>514.33197</ele><time>2010-06-02T12:50:51Z</time></trkpt>
<trkpt lat="44.21502600" lon="5.92394700"><ele>514.06897</ele><time>2010-06-02T12:50:59Z</time></trkpt>
<trkpt lat="44.21525300" lon="5.92376300"><ele>514.130981</ele><time>2010-06-02T12:51:07Z</time></trkpt>
<trkpt lat="44.21527700" lon="5.92376400"><ele>514.072021</ele><time>2010-06-02T12:51:08Z</time></trkpt>
<trkpt lat="44.21543100" lon="5.92387200"><ele>513.596008</ele><time>2010-06-02T12:51:16Z</time></trkpt>
<trkpt lat="44.21543800" lon="5.92388900"><ele>513.41803</ele><time>2010-06-02T12:51:19Z</time></trkpt>
<trkpt lat="44.21544200" lon="5.92391000"><ele>513.60199</ele><time>2010-06-02T12:51:26Z</time></trkpt>
<trkpt lat="44.21541700" lon="5.92388800"><ele>512.828003</ele><time>2010-06-02T12:53:02Z</time></trkpt>
</trkseg></trk></gpx>